[[{"header":{"parameterUnit":"m.s-1","parameterCategory":1,"la1":31.0,"la2":29.5877,"lo1":-88.7671,"lo2":-86.6584,"dy":0.0162,"dx":0.0185,"nx":115,"ny":88,"refTime":"2023-06-18T06:00:00:Z","depth":0,"parameterNumber":2,"parameterNumberName":"U-component_of_WINDS"},"data":[0.0,0.0,0.0,0.0,0.0,0.0,0.0,0.0,0.0,0.0,0.0,0.0,0.0,0.0,0.0,0.0,0.0,0.0,0.0,0.0,0.0,0.0,0.0,0.0,0.0,0.0,0.0,0.0,0.0,0.0,0.0,0.0,0.0,0.0,0.0,0.0,0.0,0.0,0.0,0.0,0.0,0.0,0.0,0.0,0.0,0.0,0.0,0.0,0.0,0.0,0.0,0.0,0.0,0.0,0.0,0.0,0.0,0.0,0.0,0.0,0.0,0.0,0.0,0.0,0.0,0.0,0.0,0.0,0.0,0.0,0.0,0.0,0.0,0.0,0.0,0.0,0.0,0.0,0.0,0.0,0.0,0.0,0.0,0.0,0.0,0.0,0.0,0.0,0.0,0.0,0.0,0.0,0.0,0.0,0.0,0.0,0.0,0.0,0.0,0.0,0.0,0.0,0.0,0.0,0.0,0.0,0.0,0.0,0.0,0.0,0.0,0.0,0.0,0.0,0.0,0.0,0.0,0.0,0.0,0.0,0.0,0.0,0.0,0.0,0.0,0.0,0.0,0.0,0.0,0.0,0.0,0.0,0.0,0.0,0.0,0.0,0.0,0.0,0.0,0.0,0.0,0.0,0.0,0.0,0.0,0.0,0.0,0.0,0.0,0.0,0.0,0.0,0.0,0.0,0.0,0.0,0.0,0.0,0.0,0.0,0.0,0.0,0.0,0.0,0.0,0.0,0.0,0.0,0.0,0.0,0.0,0.0,0.0,0.0,0.0,0.0,0.0,0.0,0.0,0.0,0.0,0.0,0.0,0.0,0.0,0.0,0.0,0.0,0.0,0.0,0.0,0.0,0.0,0.0,0.0,0.0,0.0,0.0,0.0,0.0,0.0,0.0,0.0,0.0,0.0,0.0,0.0,0.0,0.0,0.0,0.0,0.0,0.0,0.0,0.0,0.0,0.0,0.0,0.0,0.0,0.0,0.0,0.0,0.0,0.0,0.0,0.0,0.0,0.0,0.0,0.0,0.0,0.0,0.0,0.0,0.0,0.0,0.0,0.0,0.0,0.0,0.0,0.0,0.0,0.0,0.0,0.0,0.0,0.0,0.0,0.0,0.0,0.0,0.0,0.0,0.0,0.0,0.0,0.0,0.0,0.0,0.0,0.0,0.0,0.0,0.0,0.0,0.0,0.0,0.0,0.0,0.0,0.0,0.0,0.0,0.0,0.0,0.0,0.0,0.0,0.0,0.0,0.0,0.0,0.0,0.0,0.0,0.0,0.0,0.0,0.0,0.0,0.0,0.0,0.0,0.0,0.0,0.0,0.0,0.0,0.0,0.0,0.0,0.0,0.0,0.0,0.0,0.0,0.0,0.0,0.0,0.0,0.0,0.0,0.0,0.0,0.0,0.0,0.0,0.0,0.0,0.0,0.0,0.0,0.0,0.0,0.0,0.0,0.0,0.0,0.0,0.0,0.0,0.0,0.0,0.0,0.0,0.0,0.0,0.0,0.0,0.0,0.0,0.0,0.0,0.0,0.0,0.0,0.0,0.0,0.0,0.0,0.0,0.0,0.0,0.0,0.0,0.0,0.0,0.0,0.0,0.0,0.0,0.0,0.0,0.0,0.0,0.0,0.0,0.0,0.0,0.0,0.0,0.0,0.0,0.0,0.0,0.0,0.0,0.0,0.0,0.0,0.0,0.0,0.0,0.0,0.0,0.0,0.0,0.0,0.0,0.0,0.0,0.0,0.0,0.0,0.0,0.0,0.0,0.0,0.0,0.0,0.0,0.0,0.0,0.0,0.0,0.0,0.0,0.0,0.0,0.0,0.0,0.0,0.0,0.0,0.0,0.0,0.0,0.0,0.0,0.0,0.0,0.0,0.0,0.0,0.0,0.0,0.0,0.0,0.0,0.0,0.0,0.0,0.0,0.0,0.0,0.0,0.0,0.0,0.0,0.0,0.0,0.0,0.0,0.0,0.0,0.0,0.0,0.0,0.0,0.0,0.0,0.0,0.0,0.0,0.0,0.0,0.0,0.0,0.0,0.0,0.0,0.0,0.0,0.0,0.0,0.0,0.0,0.0,0.0,0.0,0.0,0.0,0.0,0.0,0.0,0.0,0.0,0.0,0.0,0.0,0.0,0.0,0.0,0.0,0.0,0.0,0.0,0.0,0.0,0.0,0.0,0.0,0.0,0.0,0.0,0.0,0.0,0.0,0.0,0.0,0.0,0.0,0.0,0.0,0.0,0.0,0.0,0.0,0.0,0.0,0.0,0.0,0.0,0.0,0.0,0.0,0.0,0.0,0.0,0.0,0.0,0.0,0.0,0.0,0.0,0.0,0.0,0.0,0.0,0.0,0.0,0.0,0.0,0.0,0.0,0.0,0.0,0.0,0.0,0.0,0.0,0.0,0.0,0.0,0.0,0.0,0.0,0.0,0.0,0.0,0.0,0.0,0.0,0.0,0.0,0.0,0.0,0.0,0.0,0.0,0.0,0.0,0.0,0.0,0.0,0.0,0.0,0.0,0.0,0.0,0.0,0.0,0.0,0.0,0.0,0.0,0.0,0.0,0.0,0.0,0.0,0.0,0.0,0.0,0.0,0.0,0.0,0.0,0.0,0.0,0.0,0.0,0.0,0.0,0.0,0.0,0.0,0.0,0.0,0.0,0.0,0.0,0.0,0.0,0.0,0.0,0.0,0.0,0.0,0.0,0.0,0.0,0.0,0.0,0.0,0.0,0.0,0.0,0.0,0.0,0.0,0.0,0.0,0.0,0.0,0.0,0.0,0.0,0.0,0.0,0.0,0.0,0.0,0.0,0.0,0.0,0.0,0.0,0.0,0.0,0.0,0.0,0.0,0.0,0.0,0.0,0.0,0.0,0.0,0.0,0.0,0.0,0.0,0.0,0.0,0.0,0.0,0.0,0.0,0.0,0.0,0.0,0.0,0.0,0.0,0.0,0.0,0.0,0.0,0.0,0.0,0.0,0.0,0.0,0.0,0.0,0.0,0.0,0.0,0.0,0.0,0.0,0.0,0.0,0.0,0.0,0.0,0.0,0.0,0.0,0.0,0.0,0.0,0.0,0.0,0.0,0.0,0.0,0.0,0.0,0.0,0.0,0.0,0.0,0.0,0.0,0.0,0.0,0.0,0.0,0.0,0.0,0.0,0.0,0.0,0.0,0.0,0.0,0.0,0.0,0.0,0.0,0.0,0.0,0.0,0.0,0.0,0.0,0.0,0.0,0.0,0.0,0.0,0.0,0.0,0.0,0.0,0.0,0.0,0.0,0.0,0.0,0.0,0.0,0.0,0.0,0.0,0.0,0.0,0.0,0.0,0.0,0.0,0.0,0.0,0.0,0.0,0.0,0.0,0.0,0.0,0.0,0.0,0.0,0.0,0.0,0.0,0.0,0.0,0.0,0.0,0.0,0.0,0.0,0.0,0.0,0.0,0.0,0.0,0.0,0.0,0.0,0.0,0.0,0.0,0.0,0.0,0.0,0.0,0.0,0.0,0.0,0.0,0.0,0.0,0.0,0.0,0.0,0.0,0.0,0.0,0.0,0.0,0.0,0.0,0.0,0.0,0.0,0.0,0.0,0.0,0.0,0.0,0.0,0.0,0.0,0.0,0.0,0.0,0.0,0.0,0.0,0.0,0.0,0.0,0.0,0.0,0.0,0.0,0.0,0.0,0.0,0.0,0.0,0.0,0.0,0.0,0.0,0.0,0.0,0.0,0.0,0.0,0.0,0.0,0.0,0.0,0.0,0.0,0.0,0.0,0.0,0.0,0.0,0.0,0.0,0.0,0.0,0.0,0.0,0.0,0.0,0.0,0.0,0.0,0.0,0.0,0.0,0.0,0.0,0.0,0.0,0.0,0.0,0.0,0.0,0.0,0.0,0.0,0.0,0.0,0.0,0.0,0.0,0.0,0.0,0.0,0.0,0.0,0.0,0.0,0.0,0.0,0.0,0.0,0.0,0.0,0.0,0.0,0.0,0.0,0.0,0.0,0.0,0.0,0.0,0.0,0.0,0.0,0.0,0.0,0.0,0.0,0.0,0.0,0.0,0.0,0.0,0.0,0.0,0.0,0.0,0.0,0.0,0.0,0.0,0.0,0.0,0.0,0.0,0.0,0.0,0.0,0.0,0.0,0.0,0.0,0.0,0.0,0.0,0.0,0.0,0.0,0.0,0.0,0.0,0.0,0.0,0.0,0.0,0.0,0.0,0.0,0.0,0.0,0.0,0.0,0.0,0.0,0.0,0.0,0.0,0.0,0.0,2.8311,0.0,0.0,0.0,0.0,0.0,0.0,0.0,0.0,0.0,0.0,0.0,0.0,0.0,0.0,0.0,0.0,0.0,0.0,0.0,0.0,0.0,0.0,0.0,0.0,0.0,0.0,0.0,0.0,0.0,0.0,0.0,0.0,0.0,0.0,0.0,0.0,0.0,0.0,0.0,0.0,0.0,0.0,0.0,0.0,0.0,0.0,0.0,0.0,0.0,0.0,0.0,0.0,0.0,0.0,0.0,0.0,0.0,0.0,0.0,0.0,0.0,0.0,0.0,0.0,0.0,0.0,0.0,0.0,0.0,0.0,0.0,0.0,0.0,0.0,0.0,0.0,0.0,0.0,0.0,0.0,0.0,0.0,0.0,0.0,0.0,0.0,0.0,0.0,0.0,0.0,0.0,0.0,0.0,0.0,0.0,0.0,0.0,0.0,0.0,0.0,0.0,0.0,0.0,0.0,0.0,0.0,0.0,0.0,0.0,0.0,2.8972,2.9077,2.878,2.84,2.7838,0.0,0.0,0.0,0.0,0.0,0.0,0.0,0.0,0.0,0.0,0.0,0.0,0.0,0.0,0.0,0.0,0.0,0.0,0.0,0.0,0.0,0.0,0.0,0.0,0.0,0.0,0.0,0.0,0.0,0.0,0.0,0.0,0.0,0.0,0.0,0.0,0.0,0.0,0.0,0.0,0.0,0.0,0.0,0.0,0.0,0.0,0.0,0.0,0.0,0.0,0.0,0.0,0.0,0.0,0.0,0.0,0.0,0.0,0.0,0.0,0.0,0.0,0.0,0.0,0.0,0.0,0.0,0.0,0.0,0.0,0.0,0.0,0.0,0.0,0.0,0.0,0.0,0.0,0.0,0.0,0.0,0.0,0.0,0.0,0.0,0.0,0.0,0.0,0.0,0.0,0.0,0.0,0.0,0.0,0.0,0.0,0.0,0.0,0.0,0.0,0.0,0.0,0.0,0.0,0.0,0.0,0.0,0.0,0.0,0.0,0.0,0.0,2.7986,2.7723,2.7274,0.0,0.0,0.0,0.0,0.0,0.0,0.0,0.0,0.0,0.0,0.0,0.0,0.0,0.0,0.0,0.0,0.0,0.0,0.0,0.0,0.0,0.0,0.0,0.0,0.0,0.0,0.0,0.0,0.0,0.0,0.0,0.0,0.0,0.0,0.0,0.0,0.0,0.0,0.0,0.0,0.0,0.0,0.0,0.0,0.0,0.0,0.0,0.0,0.0,0.0,0.0,0.0,0.0,0.0,0.0,0.0,0.0,0.0,0.0,0.0,0.0,0.0,0.0,0.0,0.0,0.0,0.0,0.0,0.0,0.0,0.0,0.0,0.0,0.0,0.0,0.0,0.0,0.0,0.0,0.0,0.0,0.0,0.0,0.0,0.0,0.0,0.0,0.0,0.0,0.0,0.0,0.0,0.0,0.0,0.0,0.0,0.0,0.0,0.0,0.0,0.0,0.0,0.0,0.0,0.0,0.0,0.0,0.0,0.0,0.0,2.7616,2.7535,2.7079,0.0,2.6483,0.0,0.0,0.0,0.0,0.0,0.0,0.0,0.0,0.0,0.0,0.0,0.0,0.0,0.0,0.0,0.0,0.0,0.0,0.0,0.0,0.0,0.0,0.0,0.0,0.0,0.0,0.0,0.0,0.0,0.0,0.0,0.0,0.0,0.0,0.0,0.0,0.0,0.0,0.0,0.0,0.0,0.0,0.0,0.0,0.0,0.0,0.0,0.0,0.0,0.0,0.0,0.0,0.0,0.0,0.0,0.0,0.0,0.0,0.0,0.0,0.0,0.0,0.0,0.0,0.0,0.0,0.0,0.0,0.0,0.0,0.0,0.0,0.0,0.0,0.0,0.0,0.0,0.0,0.0,0.0,0.0,0.0,0.0,0.0,0.0,0.0,0.0,0.0,0.0,0.0,0.0,0.0,0.0,0.0,0.0,0.0,0.0,0.0,0.0,0.0,0.0,0.0,0.0,0.0,0.0,0.0,0.0,0.0,0.0,0.0,2.6998,2.6875,2.6452,2.6164,0.0,0.0,0.0,0.0,0.0,0.0,0.0,0.0,0.0,0.0,0.0,0.0,0.0,0.0,0.0,0.0,0.0,0.0,0.0,0.0,0.0,0.0,0.0,0.0,0.0,0.0,0.0,0.0,0.0,0.0,0.0,0.0,0.0,0.0,0.0,0.0,0.0,0.0,0.0,0.0,0.0,0.0,0.0,0.0,0.0,0.0,0.0,0.0,0.0,0.0,0.0,0.0,0.0,0.0,0.0,0.0,0.0,0.0,0.0,0.0,0.0,0.0,0.0,0.0,0.0,0.0,0.0,0.0,0.0,0.0,0.0,0.0,0.0,0.0,0.0,0.0,0.0,0.0,0.0,0.0,0.0,0.0,0.0,0.0,0.0,0.0,0.0,0.0,0.0,0.0,0.0,0.0,0.0,0.0,0.0,0.0,0.0,0.0,0.0,0.0,0.0,0.0,0.0,0.0,0.0,0.0,0.0,0.0,0.0,0.0,2.6571,2.6289,2.5918,2.5734,2.5465,2.5194,0.0,0.0,0.0,0.0,0.0,0.0,0.0,0.0,0.0,0.0,0.0,0.0,0.0,0.0,0.0,0.0,0.0,0.0,0.0,0.0,0.0,0.0,0.0,0.0,0.0,0.0,0.0,0.0,0.0,0.0,0.0,0.0,0.0,0.0,0.0,0.0,0.0,0.0,0.0,0.0,0.0,0.0,0.0,0.0,0.0,0.0,0.0,0.0,0.0,0.0,0.0,0.0,0.0,0.0,0.0,0.0,0.0,0.0,0.0,0.0,0.0,0.0,0.0,0.0,0.0,0.0,0.0,0.0,0.0,0.0,0.0,0.0,0.0,0.0,0.0,0.0,0.0,0.0,0.0,0.0,0.0,0.0,0.0,0.0,0.0,0.0,0.0,0.0,0.0,0.0,0.0,0.0,0.0,0.0,0.0,0.0,0.0,0.0,0.0,0.0,0.0,0.0,0.0,0.0,0.0,0.0,0.0,0.0,2.598,2.591,2.5535,2.4862,2.4791,2.4587,0.0,0.0,0.0,0.0,0.0,0.0,0.0,0.0,0.0,0.0,0.0,0.0,0.0,0.0,0.0,0.0,0.0,0.0,0.0,0.0,0.0,0.0,0.0,0.0,0.0,0.0,0.0,0.0,0.0,0.0,0.0,0.0,0.0,0.0,0.0,0.0,0.0,0.0,0.0,0.0,0.0,0.0,0.0,0.0,0.0,0.0,0.0,0.0,0.0,0.0,0.0,0.0,0.0,0.0,0.0,0.0,0.0,0.0,0.0,0.0,0.0,0.0,0.0,0.0,0.0,0.0,0.0,0.0,0.0,0.0,0.0,0.0,0.0,0.0,0.0,0.0,0.0,0.0,0.0,0.0,0.0,0.0,0.0,0.0,0.0,0.0,0.0,0.0,0.0,0.0,0.0,0.0,0.0,0.0,0.0,0.0,0.0,0.0,0.0,0.0,0.0,0.0,0.0,0.0,0.0,0.0,0.0,0.0,0.0,2.5525,2.5325,2.4956,2.4394,2.4059,2.3706,0.0,0.0,0.0,0.0,0.0,0.0,0.0,0.0,0.0,0.0,0.0,0.0,0.0,0.0,0.0,0.0,0.0,0.0,0.0,0.0,0.0,0.0,0.0,0.0,0.0,0.0,0.0,0.0,0.0,0.0,0.0,0.0,0.0,0.0,0.0,0.0,0.0,0.0,0.0,0.0,0.0,0.0,0.0,0.0,0.0,0.0,0.0,0.0,0.0,0.0,0.0,0.0,0.0,0.0,0.0,0.0,0.0,0.0,0.0,0.0,0.0,0.0,0.0,0.0,0.0,0.0,0.0,0.0,0.0,0.0,0.0,0.0,0.0,0.0,0.0,0.0,0.0,0.0,0.0,0.0,0.0,0.0,0.0,0.0,0.0,0.0,0.0,0.0,0.0,0.0,0.0,0.0,0.0,0.0,0.0,0.0,0.0,0.0,0.0,0.0,0.0,0.0,0.0,0.0,0.0,0.0,0.0,0.0,0.0,2.4956,0.0,2.4281,2.3824,2.3434,2.3075,0.0,0.0,0.0,0.0,0.0,0.0,0.0,0.0,0.0,0.0,0.0,0.0,0.0,0.0,0.0,0.0,0.0,0.0,0.0,0.0,0.0,0.0,0.0,0.0,0.0,0.0,0.0,0.0,0.0,0.0,0.0,0.0,0.0,0.0,0.0,0.0,0.0,0.0,0.0,0.0,0.0,0.0,0.0,0.0,0.0,0.0,0.0,0.0,0.0,0.0,0.0,0.0,0.0,0.0,0.0,0.0,0.0,0.0,0.0,0.0,0.0,0.0,0.0,0.0,0.0,0.0,0.0,0.0,0.0,0.0,0.0,0.0,0.0,0.0,0.0,0.0,0.0,0.0,0.0,0.0,0.0,0.0,0.0,0.0,0.0,0.0,0.0,0.0,0.0,0.0,0.0,0.0,0.0,0.0,0.0,0.0,0.0,0.0,0.0,0.0,0.0,0.0,0.0,0.0,0.0,0.0,0.0,0.0,2.4562,2.42,2.3926,2.3568,2.3001,2.297,2.2682,0.0,0.0,0.0,0.0,0.0,0.0,0.0,0.0,0.0,0.0,0.0,0.0,0.0,0.0,0.0,0.0,0.0,0.0,0.0,0.0,0.0,0.0,0.0,0.0,0.0,0.0,0.0,0.0,0.0,0.0,0.0,0.0,0.0,0.0,0.0,0.0,0.0,0.0,0.0,0.0,0.0,0.0,0.0,0.0,0.0,0.0,0.0,0.0,0.0,0.0,0.0,0.0,0.0,0.0,0.0,0.0,0.0,0.0,0.0,0.0,0.0,0.0,0.0,0.0,0.0,0.0,0.0,0.0,0.0,0.0,0.0,0.0,0.0,0.0,0.0,0.0,0.0,0.0,0.0,0.0,0.0,0.0,0.0,0.0,0.0,0.0,0.0,0.0,0.0,0.0,0.0,0.0,0.0,0.0,0.0,0.0,0.0,0.0,0.0,0.0,0.0,0.0,0.0,0.0,0.0,0.0,0.0,0.0,0.0,2.3161,2.3497,2.3295,2.2413,2.1745,2.1288,0.0,0.0,0.0,0.0,0.0,0.0,0.0,0.0,0.0,0.0,0.0,0.0,0.0,0.0,0.0,0.0,0.0,0.0,0.0,0.0,0.0,0.0,0.0,0.0,0.0,0.0,0.0,0.0,0.0,0.0,0.0,0.0,0.0,0.0,0.0,0.0,0.0,0.0,0.0,0.0,0.0,0.0,0.0,0.0,0.0,0.0,0.0,0.0,0.0,0.0,0.0,0.0,0.0,0.0,0.0,0.0,0.0,0.0,0.0,0.0,0.0,0.0,0.0,0.0,0.0,0.0,0.0,0.0,0.0,0.0,0.0,0.0,0.0,0.0,0.0,0.0,0.0,0.0,0.0,0.0,0.0,0.0,0.0,0.0,0.0,0.0,0.0,0.0,0.0,0.0,0.0,0.0,0.0,0.0,0.0,0.0,0.0,0.0,0.0,0.0,0.0,0.0,0.0,0.0,0.0,0.0,0.0,0.0,0.0,2.2122,2.2679,2.2529,2.1807,2.0681,2.0294,2.0479,0.0,0.0,0.0,0.0,0.0,0.0,0.0,0.0,0.0,0.0,0.0,0.0,0.0,0.0,0.0,0.0,0.0,0.0,0.0,0.0,0.0,0.0,0.0,0.0,0.0,0.0,0.0,0.0,0.0,0.0,0.0,0.0,0.0,0.0,0.0,0.0,0.0,0.0,0.0,0.0,0.0,0.0,0.0,0.0,0.0,0.0,0.0,0.0,0.0,0.0,0.0,0.0,0.0,0.0,0.0,0.0,0.0,0.0,0.0,0.0,0.0,0.0,0.0,0.0,0.0,0.0,0.0,0.0,0.0,0.0,0.0,0.0,0.0,0.0,0.0,0.0,0.0,0.0,0.0,0.0,0.0,0.0,0.0,0.0,0.0,0.0,0.0,0.0,0.0,0.0,0.0,0.0,0.0,0.0,0.0,0.0,0.0,0.0,0.0,0.0,0.0,0.0,0.0,0.0,0.0,0.0,0.0,0.0,2.1179,2.1519,2.1541,2.1178,2.0012,1.9506,0.0,0.0,0.0,0.0,0.0,0.0,0.0,0.0,0.0,0.0,0.0,0.0,0.0,0.0,0.0,0.0,0.0,0.0,0.0,0.0,0.0,0.0,0.0,0.0,0.0,0.0,0.0,0.0,0.0,0.0,0.0,0.0,0.0,0.0,0.0,0.0,0.0,0.0,0.0,0.0,0.0,0.0,0.0,0.0,0.0,0.0,0.0,0.0,0.0,0.0,0.0,0.0,0.0,0.0,0.0,0.0,0.0,0.0,0.0,0.0,0.0,0.0,0.0,0.0,0.0,0.0,0.0,0.0,0.0,0.0,0.0,0.0,0.0,0.0,0.0,0.0,0.0,0.0,0.0,0.0,0.0,0.0,0.0,0.0,0.0,0.0,0.0,0.0,0.0,0.0,0.0,0.0,0.0,0.0,0.0,0.0,0.0,0.0,0.0,0.0,0.0,0.0,0.0,0.0,0.0,0.0,0.0,0.0,0.0,2.0919,2.1066,2.1029,2.0755,2.0353,1.9901,0.0,0.0,0.0,0.0,0.0,0.0,0.0,0.0,0.0,0.0,0.0,0.0,0.0,0.0,0.0,0.0,0.0,0.0,0.0,0.0,0.0,0.0,0.0,0.0,0.0,0.0,0.0,0.0,0.0,0.0,0.0,0.0,0.0,0.0,0.0,0.0,0.0,0.0,0.0,0.0,0.0,0.0,0.0,0.0,0.0,0.0,0.0,0.0,0.0,0.0,0.0,0.0,0.0,0.0,0.0,0.0,0.0,0.0,0.0,0.0,0.0,0.0,0.0,0.0,0.0,0.0,0.0,0.0,0.0,0.0,0.0,0.0,0.0,0.0,0.0,0.0,0.0,0.0,0.0,0.0,0.0,0.0,0.0,0.0,0.0,0.0,0.0,0.0,0.0,0.0,0.0,0.0,0.0,0.0,0.0,0.0,0.0,0.0,0.0,0.0,0.0,0.0,0.0,0.0,0.0,0.0,0.0,0.0,2.0782,2.0674,2.0703,2.0621,2.0316,1.9906,1.9261,0.0,0.0,0.0,0.0,0.0,0.0,0.0,0.0,0.0,0.0,0.0,0.0,0.0,0.0,0.0,0.0,0.0,0.0,0.0,0.0,0.0,0.0,0.0,0.0,0.0,0.0,0.0,0.0,0.0,0.0,0.0,0.0,0.0,0.0,0.0,0.0,0.0,0.0,0.0,0.0,0.0,0.0,0.0,0.0,0.0,0.0,0.0,0.0,0.0,0.0,0.0,0.0,0.0,0.0,0.0,0.0,0.0,0.0,0.0,0.0,0.0,0.0,0.0,0.0,0.0,0.0,0.0,0.0,0.0,0.0,0.0,0.0,0.0,0.0,0.0,0.0,0.0,0.0,0.0,0.0,0.0,0.0,0.0,0.0,0.0,0.0,0.0,0.0,0.0,0.0,0.0,0.0,0.0,0.0,0.0,0.0,0.0,0.0,0.0,0.0,0.0,0.0,0.0,0.0,0.0,0.0,0.0,0.0,2.0391,2.0307,2.0454,2.0326,1.9978,1.9025,1.8205,0.0,0.0,0.0,0.0,0.0,0.0,0.0,0.0,0.0,0.0,0.0,0.0,0.0,0.0,0.0,0.0,0.0,0.0,0.0,0.0,0.0,0.0,0.0,0.0,0.0,0.0,0.0,0.0,0.0,0.0,0.0,0.0,0.0,0.0,0.0,0.0,0.0,0.0,0.0,0.0,0.0,0.0,0.0,0.0,0.0,0.0,0.0,0.0,0.0,0.0,0.0,0.0,0.0,0.0,0.0,0.0,0.0,0.0,0.0,0.0,0.0,0.0,0.0,0.0,0.0,0.0,0.0,0.0,0.0,0.0,0.0,0.0,0.0,0.0,0.0,0.0,0.0,0.0,0.0,0.0,0.0,0.0,0.0,0.0,0.0,0.0,0.0,0.0,0.0,0.0,0.0,0.0,0.0,0.0,0.0,0.0,0.0,0.0,0.0,0.0,0.0,0.0,0.0,0.0,0.0,0.0,0.0,0.0,1.9748,1.9768,1.9778,1.9745,1.9671,1.958,1.8659,0.0,0.0,0.0,0.0,0.0,0.0,0.0,0.0,0.0,0.0,0.0,0.0,0.0,0.0,0.0,0.0,0.0,0.0,0.0,0.0,0.0,0.0,0.0,0.0,0.0,0.0,0.0,0.0,0.0,0.0,0.0,0.0,0.0,0.0,0.0,0.0,0.0,0.0,0.0,0.0,0.0,0.0,0.0,0.0,0.0,0.0,0.0,0.0,0.5015,0.0,0.0,0.0,0.0,0.0,0.0,0.0,0.0,0.0,0.0,0.0,0.0,0.0,0.0,0.0,0.0,0.0,0.0,0.0,0.0,0.0,0.0,0.0,0.0,0.0,0.0,0.0,0.0,0.0,0.0,0.0,0.0,0.0,0.0,0.0,0.0,0.0,0.0,0.0,0.0,0.0,0.0,0.0,0.0,0.0,0.0,0.0,0.0,0.0,0.0,0.0,0.0,0.0,0.0,0.0,0.0,0.0,0.0,0.0,1.8643,1.888,1.8527,1.8589,1.8893,1.8364,1.7409,0.0,0.0,0.0,0.0,0.0,0.0,0.0,0.0,0.0,0.0,0.0,0.0,0.0,0.0,0.0,0.0,0.0,0.0,0.0,0.0,0.0,0.0,0.0,0.0,0.0,0.0,0.0,0.0,0.0,0.0,0.0,0.0,0.0,0.0,0.0,0.0,0.0,0.0,0.0,0.0,0.0,0.0,0.0,0.0,0.0,0.0,0.0,0.0,0.0,0.0,0.0,0.0,0.0,0.0,0.0,0.0,0.0,0.0,0.0,0.0,0.0,0.0,0.0,0.0,0.0,0.0,0.0,0.0,0.0,0.0,0.0,0.0,0.0,0.0,0.0,0.0,0.0,0.0,0.0,0.0,0.0,0.0,0.0,0.0,0.0,0.0,0.0,0.0,0.0,0.0,0.0,0.0,0.0,0.0,0.0,0.0,0.0,0.0,0.0,0.0,0.0,0.0,0.0,0.0,0.0,0.0,0.0,1.7389,1.7363,1.7677,1.7131,1.7109,1.7705,1.663,1.5484,1.4625,0.0,0.0,0.0,0.0,0.0,0.0,0.0,0.0,0.0,0.0,0.0,0.0,0.0,0.0,0.0,0.0,0.0,0.0,0.0,0.0,0.0,0.0,0.0,0.0,0.0,0.0,0.0,0.0,0.0,0.0,0.0,0.0,0.0,0.0,0.0,0.0,0.0,0.0,1.0132,0.9005,0.0,0.0,0.0,0.0,0.0,0.0,0.0,0.0,0.2178,0.0,0.0,0.0,0.0,0.0,0.0,0.0,0.0,0.0,0.0,0.0,0.0,0.0,0.0,0.0,0.0,0.0,0.0,0.0,0.0,0.0,0.0,0.0,0.0,0.0,0.0,0.0,0.0,0.0,0.0,0.0,0.0,0.0,0.0,0.0,0.0,0.0,0.0,0.0,0.0,0.0,0.0,0.0,0.0,0.0,0.0,0.0,0.0,0.0,0.0,0.0,0.0,0.0,0.0,0.0,0.0,1.6617,1.6353,1.6197,1.617,1.5805,1.5845,1.6103,1.5382,1.4196,1.2694,0.0,0.0,0.0,0.0,0.0,0.0,0.0,0.0,0.0,0.0,0.0,0.0,0.0,0.0,0.0,0.0,0.0,0.0,0.0,0.0,0.0,0.0,0.0,0.0,0.0,0.0,0.0,0.0,0.0,0.0,0.0,0.0,0.0,0.0,0.0,0.0,0.0,0.0,0.0,0.7587,0.6878,0.0,0.0,0.0,0.0,0.0,0.0,0.0,0.0,0.0191,0.0,0.0,0.0,0.0,0.0,0.0,0.0,0.0,0.0,0.0,0.0,0.0,0.0,0.0,0.0,0.0,0.0,0.0,0.0,0.0,0.0,0.0,0.0,0.0,0.0,0.0,0.0,0.0,0.0,0.0,0.0,0.0,0.0,0.0,0.0,0.0,0.0,0.0,0.0,0.0,0.0,0.0,0.0,0.0,0.0,0.0,0.0,0.0,0.0,0.0,0.0,0.0,0.0,0.0,0.0,1.5377,1.5041,1.4952,1.5038,1.4472,1.4502,1.4942,1.4033,1.2886,0.0,0.0,0.0,0.0,0.0,0.0,0.0,0.0,0.0,0.0,0.0,0.0,0.0,0.0,0.0,0.0,0.0,0.0,0.0,0.0,0.0,0.0,0.0,0.0,0.0,0.0,0.0,0.0,0.0,0.0,0.0,0.0,0.0,0.0,0.0,0.0,0.0,0.0,0.0,0.0,0.6435,0.5842,0.519,0.0,0.0,0.0,0.0,0.0,0.0,-0.0683,-0.1366,0.0,0.0,0.0,0.0,0.0,0.0,0.0,0.0,0.0,0.0,0.0,0.0,0.0,0.0,0.0,0.0,0.0,0.0,0.0,0.0,0.0,0.0,0.0,0.0,0.0,0.0,0.0,0.0,0.0,0.0,0.0,0.0,0.0,0.0,0.0,0.0,0.0,0.0,0.0,0.0,0.0,0.0,0.0,0.0,0.0,0.0,0.0,0.0,0.0,0.0,0.0,0.0,0.0,0.0,0.0,1.405,1.3624,1.3507,1.3607,1.2931,1.2958,1.3796,1.2586,1.1461,0.0,0.0,0.0,0.0,0.0,0.0,0.0,0.0,0.0,0.0,0.0,0.0,0.0,0.0,0.0,0.0,0.0,0.0,0.0,0.0,0.0,0.0,0.0,0.0,0.0,0.0,0.0,0.0,0.0,0.0,0.0,0.0,0.0,0.0,0.0,0.0,0.0,0.0,0.0,0.0,0.0,0.4962,0.3933,0.2889,0.0,0.0,0.0,0.0,-0.1481,-0.2098,0.0,0.0,0.0,0.0,0.0,0.0,0.0,0.0,0.0,0.0,0.0,0.0,0.0,0.0,0.0,0.0,0.0,0.0,0.0,0.0,0.0,0.0,0.0,0.0,0.0,0.0,0.0,0.0,0.0,0.0,0.0,0.0,0.0,0.0,0.0,0.0,0.0,0.0,0.0,0.0,0.0,0.0,0.0,0.0,0.0,0.0,0.0,0.0,0.0,0.0,0.0,0.0,0.0,0.0,0.0,0.0,1.2329,1.2278,1.1935,1.158,1.0998,1.1217,1.2242,1.1217,1.0013,0.0,0.0,0.0,0.0,0.0,0.0,0.0,0.0,0.0,0.0,0.0,0.0,0.0,0.0,0.0,0.0,0.0,0.0,0.0,0.0,0.0,0.0,0.0,0.0,0.0,0.0,0.0,0.0,0.0,0.0,0.0,0.0,0.0,0.0,0.0,0.0,0.0,0.0,0.0,0.0,0.0,0.4135,0.2788,0.1802,0.0801,0.0,0.0,-0.2212,-0.3323,-0.3627,0.0,0.0,0.0,0.0,0.0,0.0,0.0,0.0,0.0,0.0,0.0,0.0,0.0,0.0,0.0,0.0,0.0,0.0,0.0,0.0,0.0,0.0,0.0,0.0,0.0,0.0,0.0,0.0,0.0,0.0,0.0,0.0,0.0,0.0,0.0,0.0,0.0,0.0,0.0,0.0,0.0,0.0,0.0,0.0,0.0,0.0,0.0,0.0,0.0,0.0,0.0,0.0,0.0,0.0,0.0,1.1017,1.0755,1.0674,1.0493,1.0109,0.971,0.9826,1.0645,0.9731,0.8751,0.0,0.0,0.0,0.0,0.0,0.0,0.0,0.0,0.0,0.0,0.0,0.0,0.0,0.0,0.0,0.0,0.0,0.0,0.0,0.0,0.0,0.0,0.0,0.0,0.0,0.0,0.0,0.0,0.0,0.0,0.0,0.0,0.0,0.0,0.0,0.0,0.0,0.0,0.0,0.0,0.0,0.0,0.1204,0.0305,0.0,0.0,0.0,-0.3638,-0.4679,0.0,0.0,0.0,0.0,0.0,0.0,0.0,0.0,0.0,0.0,0.0,0.0,0.0,0.0,0.0,0.0,0.0,0.0,0.0,0.0,0.0,0.0,0.0,0.0,0.0,0.0,0.0,0.0,0.0,0.0,0.0,0.0,0.0,0.0,0.0,0.0,0.0,0.0,0.0,0.0,0.0,0.0,0.0,0.0,0.0,0.0,0.0,0.0,0.0,0.0,0.0,0.0,0.0,0.0,0.0,0.0,0.0,0.9137,0.9057,0.8817,0.8619,0.8322,0.8435,0.8943,0.8336,0.0,0.0,0.0,0.0,0.0,0.0,0.0,0.0,0.0,0.0,0.0,0.0,0.0,0.0,0.0,0.0,0.0,0.0,0.0,0.0,0.0,0.0,0.0,0.0,0.0,0.0,0.0,0.5872,0.0,0.0,0.0,0.0,0.0,0.0,0.0,0.0,0.0,0.0,0.0,0.0,0.0,0.0,0.0497,-0.0405,-0.1444,-0.2503,0.0,0.0,-0.4996,-0.5843,-0.627,-0.6661,0.0,0.0,0.0,0.0,0.0,0.0,0.0,0.0,0.0,0.0,0.0,0.0,0.0,0.0,0.0,0.0,0.0,0.0,0.0,0.0,0.0,0.0,0.0,0.0,0.0,0.0,0.0,0.0,0.0,0.0,0.0,0.0,0.0,0.0,0.0,0.0,0.0,0.0,0.0,0.0,0.0,0.0,0.0,0.0,0.0,0.0,0.0,0.0,0.0,0.0,0.0,0.0,0.0,0.0,0.7452,0.7491,0.7356,0.7232,0.6927,0.6734,0.6836,0.7338,0.6836,0.627,0.0,0.0,0.0,0.0,0.0,0.0,0.0,0.0,0.0,0.0,0.0,0.0,0.0,0.0,0.0,0.0,0.0,0.0,0.0,0.0,0.0,0.0,0.0,0.0,0.0,0.0,0.0,0.0,0.0,0.0,0.0,0.0,0.0,0.0,0.0,0.0,0.0,0.0,0.0,0.0,0.0,-0.1013,-0.1961,-0.3469,-0.457,0.0,-0.5523,-0.6165,-0.7009,-0.7431,-0.7839,-0.8354,0.0,0.0,0.0,0.0,0.0,0.0,0.0,0.0,0.0,0.0,0.0,0.0,0.0,0.0,0.0,0.0,0.0,0.0,0.0,0.0,0.0,0.0,0.0,0.0,0.0,0.0,0.0,0.0,0.0,0.0,0.0,0.0,0.0,0.0,0.0,0.0,0.0,0.0,0.0,0.0,0.0,0.0,0.0,0.0,0.0,0.0,0.0,0.0,0.0,0.0,0.0,0.0,0.0,0.5453,0.5863,0.5882,0.5837,0.5534,0.5434,0.5636,0.6245,0.5636,0.5185,0.0,0.0,0.0,0.0,0.0,0.0,0.0,0.0,0.0,0.0,0.0,0.0,0.0,0.0,0.0,0.0,0.0,0.0,0.0,0.0,0.0,0.0,0.0,0.0,0.0,0.0,0.0,0.0,0.3849,0.3358,0.2042,0.0,0.0,0.0,0.0,0.0,0.0,0.0,0.0,0.0,0.0,-0.2272,-0.2943,-0.3851,0.0,0.0,-0.6531,-0.7339,-0.8425,-0.8862,-0.9259,-0.9902,-1.0204,0.0,0.0,0.0,0.0,0.0,0.0,0.0,0.0,0.0,0.0,0.0,0.0,0.0,0.0,0.0,0.0,0.0,0.0,0.0,0.0,0.0,0.0,0.0,0.0,0.0,0.0,0.0,0.0,0.0,0.0,0.0,0.0,0.0,0.0,0.0,0.0,0.0,0.0,0.0,0.0,0.0,0.0,0.0,0.0,0.0,0.0,0.0,0.0,0.0,0.0,0.0,0.0,0.3847,0.4445,0.4606,0.4535,0.4332,0.4334,0.4535,0.5039,0.4636,0.4303,0.0,0.0,0.0,0.0,0.0,0.0,0.0,0.0,0.0,0.0,0.0,0.0,0.0,0.0,0.0,0.0,0.0,0.0,0.0,0.0,0.0,0.0,0.0,0.0,0.0,0.0,0.0,0.0,0.3019,0.2198,0.0629,0.0,0.0,0.0,0.0,0.0,0.0,0.0,0.0,0.0,0.0,-0.3281,-0.3854,-0.4461,-0.5385,-0.6478,-0.7532,-0.8478,-0.9585,-1.0029,-1.0429,-1.1164,0.0,0.0,0.0,0.0,0.0,0.0,0.0,0.0,0.0,0.0,0.0,0.0,0.0,0.0,0.0,0.0,0.0,0.0,0.0,0.0,0.0,0.0,0.0,0.0,0.0,0.0,0.0,0.7496,0.0,0.0,0.8644,0.0,0.0,0.0,0.0,0.0,0.0,0.0,0.0,0.0,0.0,0.0,0.0,0.0,0.0,0.0,0.0,0.0,0.0,0.0,0.0,0.0,0.0,0.2719,0.3225,0.3229,0.323,0.323,0.323,0.343,0.3831,0.3729,0.3629,0.3828,0.0,0.0,0.0,0.0,0.0,0.0,0.0,0.0,0.0,0.0,0.0,0.0,0.0,0.0,0.0,0.0,0.0,0.0,0.0,0.0,0.0,0.0,0.0,0.0,0.0,0.0,0.3477,0.172,0.021,0.0,0.0,0.0,0.0,0.0,0.0,0.0,0.0,0.0,-0.3313,-0.3634,-0.4038,-0.4693,-0.5643,-0.6586,-0.7473,-0.8582,-0.9695,-1.0582,-1.0911,-1.1236,0.0,0.0,0.0,0.0,0.0,0.0,0.0,0.0,0.0,0.0,0.0,0.0,0.0,0.0,0.0,0.0,0.0,0.0,0.0,0.0,0.0,0.0,0.0,0.0,0.0,0.0,0.0,0.5721,0.6015,0.0,0.0,0.0,0.0,0.0,0.0,0.0,0.0,0.0,0.0,0.0,0.8016,0.7541,0.0,0.0,0.0,0.0,0.0,0.0,0.0,0.0,0.0,0.0,0.0,0.0,0.2164,0.262,0.2624,0.2624,0.2624,0.2624,0.274,0.2772,0.2876,0.2893,0.2927,0.0,0.0,0.0,0.0,0.0,0.0,0.0,0.0,0.0,0.0,0.0,0.0,0.0,0.0,0.0,0.0,0.0,0.0,0.0,0.0,0.0,0.0,0.0,0.0,0.0,0.297,0.0,0.0,0.0,0.0,0.0,0.0,0.0,0.0,0.0,0.0,-0.3222,-0.3479,-0.3969,-0.4123,-0.4496,-0.532,-0.6241,-0.7152,0.0,0.0,0.0,0.0,0.0,0.0,0.0,0.0,0.0,0.0,0.0,0.0,0.0,0.0,-1.2691,-1.2479,-1.2663,-1.2857,-1.2857,0.0,0.0,0.0,0.0,0.0,0.0,0.0,0.0,0.0,0.0,0.0,0.0,0.0,0.0,0.4148,0.4542,0.4937,0.0,0.0,0.0,0.0,0.0,0.0,0.0,0.0,0.7142,0.7164,0.6774,0.6395,0.582,0.5144,0.4951,0.4592,0.0,0.0,0.0,0.0,0.0,0.0,0.0,0.0,0.1783,0.2118,0.2133,0.2141,0.2141,0.2153,0.2172,0.2198,0.2408,0.2528,0.245,0.2424,0.2603,0.0,0.0,0.0,0.0,0.0,0.0,0.0,0.0,0.0,0.0,0.0,0.0,0.0,0.0,0.0,0.0,0.0,0.0,0.0,0.0,0.0,0.0,0.0,0.1623,0.0,0.0,0.0,0.0,0.0,0.0,0.0,0.0,0.0,-0.3595,-0.3738,-0.3997,-0.4586,-0.483,-0.5208,-0.6196,0.0,0.0,0.0,0.0,0.0,0.0,0.0,-1.2646,-1.2871,-1.298,-1.3065,-1.3065,-1.3065,-1.3065,-1.3065,0.0,0.0,-1.272,-1.2876,-1.3065,-1.3065,-1.3065,-1.3065,-1.3065,-1.3065,-1.3227,0.0,0.0,0.0,0.0,0.0384,0.0,0.0,0.0,0.1916,0.2494,0.0,0.3839,0.0,0.0,0.0,0.0,0.4698,0.5196,0.0,0.0,0.6095,0.6044,0.5539,0.5343,0.4841,0.4338,0.4135,0.3734,0.323,0.3375,0.0,0.0,0.0,0.0,0.0,0.0,0.1589,0.1619,0.1648,0.1663,0.1769,0.169,0.1811,0.2132,0.2562,0.2563,0.2243,0.2241,0.2346,0.256,0.2515,0.0,0.0,0.0,0.0,0.0,0.0,0.0,0.0,0.0,0.0,0.0,0.0,0.0,0.0,0.0,0.0,0.0,0.0,0.0,0.0,0.1112,0.0,0.0,0.0,0.0,0.0,0.0,0.0,0.0,0.0,-0.4012,-0.3955,-0.4274,-0.46,-0.5257,0.0,0.0,0.0,0.0,-0.9211,-1.026,-1.1101,-1.191,-1.2479,-1.2836,-1.3079,-1.3074,0.0,0.0,-1.3093,-1.3088,-1.3102,-1.3102,-1.3287,-1.3343,-1.3154,-1.3126,-1.3126,-1.3126,-1.315,-1.3121,-1.3117,-1.3192,-1.3277,-0.1587,0.0,0.0,0.0,0.0,-0.0516,-0.0,0.0414,0.1033,0.1652,0.2169,0.2893,0.0,0.0,0.0,0.0,0.0,0.0,0.4589,0.48,0.5195,0.5203,0.4832,0.4525,0.4087,0.3534,0.3273,0.3087,0.2883,0.2697,0.2457,0.2279,0.0,0.0,0.0,0.0,0.1538,0.1651,0.1574,0.1695,0.1695,0.1703,0.1716,0.1845,0.1648,0.1658,0.1547,0.1967,0.2388,0.2606,0.2776,0.0,0.0,0.0,0.0,0.0,0.0,0.0,0.0,0.0,0.0,0.0,0.0,0.0,0.0,0.0,0.0,0.0,0.0,0.0,0.1358,0.0228,-0.0907,0.0,0.0,0.0,0.0,0.0,0.0,0.0,0.0,0.0,-0.4831,-0.4907,-0.5209,0.0,0.0,-0.7306,-0.8724,-0.9313,-1.0018,-1.1216,-1.168,0.0,-1.2488,-1.2961,-1.3296,-1.3296,-1.3414,-1.3509,-1.3509,-1.3391,-1.32,-1.3343,-1.33,-1.3116,-1.3197,-1.3467,-1.3745,-1.375,-1.3854,-1.3953,-1.3953,-1.3953,-1.3986,-0.2087,-0.1955,-0.1928,-0.1917,-0.1917,-0.1384,-0.0853,-0.0533,0.0107,0.0639,0.1171,0.1811,0.2211,0.2579,0.2579,0.0,0.0,0.0,0.367,0.388,0.4131,0.4128,0.388,0.3668,0.3439,0.2996,0.2921,0.2832,0.2622,0.2226,0.1889,0.1934,0.0,0.1849,0.122,0.1038,0.105,0.1261,0.1282,0.1293,0.1293,0.141,0.1531,0.1767,0.1562,0.1458,0.1683,0.2111,0.2431,0.2761,0.2935,0.3231,0.0,0.0,0.0,0.0,0.0,0.0,0.0,0.0,0.0,0.0,0.0,0.3487,0.3441,0.0,0.0,0.0,0.2588,0.1492,-0.0,-0.1045,0.0,0.0,0.0,0.0,0.0,0.0,0.0,-0.4518,-0.4832,-0.518,-0.5399,-0.5633,-0.6069,-0.6606,-0.7235,-0.811,-0.9562,0.0,-1.0891,-1.2008,-1.2372,-1.2606,-1.2965,-1.3306,-1.3504,-1.3386,-1.3439,-1.3569,-1.3453,-1.3139,-1.311,-1.3093,-1.2884,-1.2669,-1.2779,-1.3143,-1.347,-1.3651,-1.3849,-1.3927,-1.3931,-1.3931,-1.408,-0.2244,-0.2239,-0.2277,-0.2248,-0.2247,-0.1925,-0.1605,-0.1283,-0.0963,-0.0428,0.0214,0.0641,0.1175,0.1601,0.2239,0.0,0.2451,0.2668,0.2884,0.2885,0.3098,0.3098,0.2885,0.2884,0.2775,0.277,0.2667,0.2563,0.235,0.1925,0.1606,0.1607,0.1607,0.1284,0.0747,0.0214,0.0214,0.0748,0.0761,0.0767,0.0876,0.089,0.1121,0.1683,0.1795,0.2019,0.2356,0.2468,0.2693,0.3143,0.3211,0.3405,0.3949,0.0,0.0,0.0,0.0,0.0,0.0,0.0,0.0,0.0,0.0,0.0,0.0,0.0,0.0,0.0,0.1518,0.0,-0.1062,-0.236,0.0,0.0,0.0,-0.3648,-0.4234,-0.4353,-0.4591,-0.5189,0.0,0.0,-0.5548,-0.6334,-0.6836,-0.7087,-0.7888,-0.8987,-0.9944,-1.0921,-1.1696,-1.2556,-1.2955,-1.32,-1.3407,-1.3564,-1.3486,-1.3152,-1.3292,-1.3282,-1.3049,-1.2661,-1.2645,-1.2552,-1.2316,-1.2083,-1.2087,-1.2226,-1.2527,-1.3003,-1.323,-1.3226,-1.3243,-1.3374,-1.3558,-0.2579,-0.2242,-0.2668,-0.277,-0.255,-0.2218,-0.1884,-0.1663,-0.1551,-0.1441,-0.1219,-0.0221,0.077,0.1738,0.1824,0.1919,0.1919,0.1945,0.2283,0.272,0.2754,0.2752,0.2719,0.2501,0.2375,0.2241,0.162,0.1413,0.1851,0.1763,0.1662,0.1553,0.1552,0.1095,0.0214,0.0108,0.0109,0.0218,0.0221,0.0669,0.1561,0.0672,0.0448,0.1121,0.2019,0.2468,0.2468,0.2691,0.3157,0.3539,0.3758,0.4092,0.4427,0.4137,0.0,0.0,0.0,0.0,0.0,0.0,0.0,0.0,0.0,0.3682,0.3972,0.0,0.3747,0.0,0.1782,-0.0,-0.1318,-0.2517,0.0,0.0,-0.3794,-0.4118,-0.4234,-0.4707,-0.5084,-0.5262,-0.5508,-0.5656,-0.5843,-0.6481,-0.6974,-0.7309,-0.815,-0.9248,-1.0485,-1.0853,-1.1346,-1.2475,-1.2612,-1.2599,-1.2866,-1.3098,-1.3119,-1.2884,-1.282,-1.2728,-1.2486,-1.1882,-1.1564,-1.169,-1.121,-1.0998,-1.0978,-1.1041,-1.1176,-1.1403,-1.2172,-1.295,-1.295,-1.3206,-1.3357,-0.2914,-0.2691,-0.2913,-0.3026,-0.2805,-0.2581,-0.2356,-0.2354,-0.1907,-0.1907,-0.1907,-0.0785,0.0223,0.0995,0.1205,0.1418,0.1527,0.1652,0.1881,0.2214,0.2235,0.2233,0.2213,0.2102,0.2091,0.1964,0.1431,0.1106,0.0886,0.1005,0.1009,0.0897,0.0897,0.0556,-0.0,-0.0,0.0221,0.0775,0.0781,0.1009,0.1346,0.1009,0.1009,0.157,0.2356,0.2815,0.2948,0.3399,0.3881,0.4292,0.4528,0.4761,0.5105,0.4836,0.4437,0.0,0.0,0.0,0.0,0.0,0.0,0.0,0.0,0.0,0.0,0.0,0.3342,0.2764,0.1091,-0.0609,-0.2191,-0.2922,-0.3533,-0.3775,-0.4108,-0.4444,-0.4804,-0.5047,-0.5303,-0.5591,-0.572,-0.5876,-0.6211,-0.6717,-0.7108,-0.7523,-0.8282,-0.9233,-1.0096,-1.0601,-1.1267,-1.2243,-1.2433,-1.2483,-1.2729,-1.27,-1.2557,-1.2272,-1.223,-1.2023,-1.178,-1.1195,-1.0753,-1.0833,-1.0461,-1.0093,-1.0174,-1.0326,-1.0323,-1.0326,-1.085,-1.1505,-1.2029,-1.2433,-1.2696,-0.3137,-0.3026,-0.3137,-0.3137,-0.3137,-0.2805,-0.2805,-0.2914,-0.2131,-0.2019,-0.2132,-0.1121,-0.0448,-0.0,0.0673,0.1121,0.1234,0.157,0.1795,0.1795,0.1795,0.1795,0.1795,0.1795,0.1795,0.1795,0.1683,0.1009,-0.0,-0.0,-0.0,-0.0,-0.0,0.0112,0.0225,0.0225,0.079,0.1807,0.192,0.1693,0.1129,0.158,0.2032,0.2484,0.2823,0.3184,0.3688,0.4147,0.464,0.5182,0.5307,0.5424,0.5781,0.5428,0.504,0.0,0.4322,0.0,0.0,0.0,0.0,0.0,0.0,0.0,0.0,0.3568,0.2797,0.1478,0.0123,-0.136,-0.3093,-0.3348,-0.3722,-0.434,-0.4465,-0.4711,-0.533,-0.5453,-0.5577,-0.5949,-0.5951,-0.6106,-0.6558,-0.6946,-0.7231,-0.7684,-0.8209,-0.8899,-0.9585,-1.0246,-1.0944,-1.1693,-1.2186,-1.2255,-1.2292,-1.2194,-1.1841,-1.1622,-1.1342,-1.1167,-1.0911,-1.0359,-1.005,-1.0054,-0.9785,-0.9525,-0.9528,-0.9528,-0.9525,-0.9528,-0.9658,-1.0057,-1.0853,-1.138,-1.1648,-0.3365,-0.2805,-0.3027,-0.3137,-0.3025,-0.2579,-0.2356,-0.2355,-0.2244,-0.2019,-0.1907,-0.1683,-0.1009,0.0112,0.1121,0.1346,0.1009,0.157,0.1795,0.1795,0.1795,0.1795,0.1795,0.1795,0.1795,0.1795,0.0785,0.0224,-0.0,-0.0,-0.0,-0.0,-0.0,0.0572,0.1603,0.0,0.0,0.0,0.2453,0.257,0.2336,0.1984,0.2099,0.2801,0.3854,0.0,0.3869,0.4566,0.5187,0.5628,0.5636,0.0,0.0,0.0,0.0,0.0,0.0,0.0,0.0,0.0,0.0,0.0,0.3793,0.3931,0.4181,0.3768,0.2829,0.148,0.0374,-0.0879,-0.264,-0.305,-0.3583,-0.4476,-0.4859,-0.5239,-0.5625,-0.5874,-0.6131,-0.6131,-0.6129,-0.6262,-0.6666,-0.6926,-0.7314,-0.7724,-0.7978,-0.8472,-0.8934,-0.9573,-1.0222,-1.0865,-1.1038,-1.1217,-1.1331,-1.0963,-1.075,-1.0467,-1.0518,-1.0277,-1.0012,-0.9624,-0.9383,-0.9386,-0.8987,-0.8856,-0.8856,-0.8856,-0.8856,-0.8853,-0.8987,-0.9389,-0.9924,-1.0323,-1.0588,-0.3365,-0.3141,-0.2917,-0.2915,0.0,-0.2693,-0.2356,-0.2019,-0.2019,-0.1907,-0.1795,-0.1795,-0.0785,0.0897,0.157,0.157,0.1346,0.1683,0.1795,0.1795,0.1458,0.157,0.1795,0.1795,0.1458,0.0898,0.0339,-0.0,-0.0,0.0687,0.1035,0.1035,0.0927,0.128,0.1981,0.2011,0.2139,0.224,0.2827,0.2946,0.271,0.2472,0.2589,0.3061,0.4239,0.0,0.0,0.0,0.0,0.0,0.0,0.0,0.0,0.5845,0.0,0.5243,0.5,0.4644,0.4286,0.4167,0.4064,0.3857,0.3912,0.3822,0.3699,0.3354,0.2503,0.1134,0.0127,-0.102,-0.2552,-0.2955,-0.3483,-0.4514,-0.5026,-0.5283,-0.567,-0.5925,-0.6182,-0.6182,-0.631,-0.6584,-0.7025,-0.7286,-0.7697,-0.8133,-0.8277,-0.8405,-0.8663,-0.9004,-0.9629,-1.0354,-1.0497,-1.0521,-1.0585,-1.034,-1.0096,-0.9908,-0.9788,-0.9655,-0.9389,-0.912,-0.8853,-0.8851,-0.872,-0.8587,-0.8587,-0.8587,-0.8587,-0.8587,-0.872,-0.8853,-0.9125,-0.9525,-0.9927,-0.325,-0.3363,-0.2917,-0.2693,-0.2693,-0.2806,-0.2244,-0.1458,-0.1683,0.0,0.0,-0.1234,-0.0224,0.1458,0.1683,0.1795,0.1795,0.1683,0.1683,0.1795,0.1346,0.1235,0.1464,0.1464,0.1129,0.034,0.0344,0.0231,0.0231,0.1288,0.2003,0.2122,0.2009,0.2133,0.2141,0.2167,0.2408,0.2854,0.3088,0.3206,0.3085,0.3205,0.3205,0.3324,0.4509,0.5134,0.5194,0.5682,0.6079,0.6399,0.6405,0.6405,0.6405,0.6037,0.576,0.5446,0.5079,0.4724,0.4492,0.4131,0.4039,0.3977,0.3898,0.3671,0.3041,0.2914,0.2292,0.1031,0.0129,-0.1036,-0.2591,-0.2857,-0.351,-0.4419,-0.4936,-0.5325,-0.5586,-0.597,-0.6237,-0.6231,-0.65,-0.6909,-0.7384,-0.7656,-0.8078,-0.8427,-0.8568,-0.8587,-0.8576,-0.8761,-0.9261,-0.9874,-0.9883,-1.0041,-0.9921,-0.9782,-0.9528,-0.9392,-0.9253,-0.8984,-0.8984,-0.872,-0.8587,-0.8587,-0.8587,-0.8587,-0.8587,-0.8587,-0.8587,-0.8587,-0.8587,-0.8587,-0.872,-0.9125,-0.9528,-0.3365,-0.258,-0.2806,-0.2806,-0.2468,-0.2132,-0.1346,-0.0336,-0.1346,-0.1234,-0.0224,0.0785,0.0897,0.0336,0.1346,0.1795,0.1795,0.1234,0.1346,0.1795,0.1683,0.113,0.0229,0.0229,0.0808,0.1638,0.176,0.1409,0.094,0.106,0.165,0.2599,0.227,0.23,0.2817,0.2826,0.3193,0.3675,0.3555,0.3555,0.3797,0.4164,0.441,0.441,0.5265,0.5638,0.5278,0.5892,0.639,0.6403,0.6405,0.6405,0.6405,0.6039,0.591,0.5776,0.5527,0.5188,0.4877,0.4635,0.429,0.4094,0.3851,0.347,0.3088,0.3087,0.2703,0.1936,0.1044,-0.0263,-0.1973,-0.2656,-0.3341,-0.4143,-0.4677,-0.5077,-0.5738,-0.6138,-0.6402,-0.6402,-0.6814,-0.7073,-0.7355,-0.7762,-0.8161,-0.8451,-0.8454,-0.8587,-0.8584,-0.8839,-0.9097,-0.9247,-0.9253,-0.925,-0.9253,-0.8987,-0.8856,-0.8723,-0.872,-0.872,-0.872,-0.8587,-0.8587,-0.8587,-0.8587,-0.8587,-0.8587,-0.8587,-0.8587,-0.8587,-0.8587,-0.8587,-0.8587,-0.872,-0.8853,-0.303,-0.2693,-0.2468,-0.2244,-0.2019,-0.1234,-0.0112,0.0897,0.0448,0.0224,0.0561,0.1458,0.1458,0.1009,0.0897,0.1234,0.1796,0.1472,0.1137,0.091,0.1607,0.162,0.1048,0.0699,0.0819,0.1415,0.1784,0.203,0.2031,0.1686,0.2055,0.3024,0.2801,0.2818,0.3451,0.3331,0.3576,0.419,0.407,0.407,0.4438,0.4807,0.493,0.4805,0.5546,0.5794,0.5669,0.5914,0.6162,0.6162,0.616,0.616,0.6162,0.5963,0.5866,0.5741,0.5405,0.5192,0.4846,0.4468,0.4112,0.3908,0.3782,0.3404,0.2906,0.2885,0.2621,0.2111,0.1329,0.0133,-0.1467,-0.2146,-0.2962,-0.3903,-0.4305,-0.4708,-0.5242,-0.5912,-0.6183,-0.6182,-0.6717,-0.7121,-0.7257,-0.7524,-0.7791,-0.7925,-0.8056,-0.8058,-0.8058,-0.8189,-0.8454,-0.8717,-0.8853,-0.8853,-0.8851,-0.872,-0.8587,-0.8587,-0.8587,-0.8587,-0.8587,-0.8587,-0.8587,-0.8587,-0.8587,-0.8587,-0.8587,-0.8587,-0.8587,-0.8587,-0.8587,-0.8587,-0.8587,-0.8587,-0.872,-0.2581,-0.2244,-0.2244,-0.1795,-0.0897,-0.0112,0.0785,0.1795,0.1795,0.1574,0.124,0.1573,0.1799,0.1692,0.0789,0.0904,0.1704,0.1725,0.1156,0.0347,0.1289,0.1889,0.2133,0.1659,0.1424,0.155,0.205,0.2548,0.2917,0.2456,0.2592,0.3208,0.333,0.3453,0.3944,0.3824,0.3947,0.4439,0.4561,0.4687,0.4933,0.53,0.5298,0.5174,0.5669,0.5919,0.5919,0.5937,0.5947,0.5949,0.5967,0.5976,0.598,0.6043,0.5829,0.558,0.5377,0.5034,0.4535,0.4291,0.4055,0.3702,0.3572,0.3325,0.282,0.2534,0.2395,0.2151,0.1345,0.0269,-0.0807,-0.175,-0.2558,-0.3366,-0.3769,-0.4171,-0.4572,-0.5243,-0.5644,-0.5778,-0.6313,-0.6717,-0.6851,-0.6987,-0.7259,-0.7257,-0.7259,-0.7259,-0.7259,-0.7259,-0.7524,-0.792,-0.8187,-0.8323,-0.832,-0.832,-0.8323,-0.8323,-0.8323,-0.8323,-0.8323,-0.8323,-0.8323,-0.8323,-0.8454,-0.8454,-0.8456,-0.8587,-0.8587,-0.8587,-0.8587,-0.8587,-0.8587,-0.8587,-0.872,-0.1907,-0.0673,-0.2468,-0.157,0.1234,0.1009,0.1234,0.1796,0.1795,0.181,0.1718,0.1808,0.1812,0.1834,0.1721,0.1734,0.1874,0.141,0.1058,0.094,0.106,0.1782,0.2769,0.2771,0.2912,0.3065,0.3074,0.3074,0.3074,0.2958,0.296,0.308,0.3821,0.4192,0.3946,0.4193,0.4441,0.481,0.5177,0.5177,0.4935,0.5548,0.5794,0.5794,0.5796,0.5919,0.5931,0.5998,0.6041,0.6045,0.611,0.6153,0.6155,0.6163,0.6042,0.5659,0.5281,0.4925,0.4336,0.426,0.4154,0.3758,0.3488,0.3089,0.2693,0.2421,0.2285,0.202,0.1481,0.0808,-0.0,-0.1346,-0.2155,-0.2424,-0.2826,-0.3228,-0.3901,-0.4437,-0.4975,-0.4973,-0.551,-0.6048,-0.6046,-0.6182,-0.6451,-0.6451,-0.6317,-0.6317,-0.6451,-0.6451,-0.6453,-0.6719,-0.7121,-0.7524,-0.7524,-0.766,-0.766,-0.7524,-0.7658,-0.7658,-0.7658,-0.7658,-0.7658,-0.7789,-0.7922,-0.8056,-0.8189,-0.8323,-0.8587,-0.8587,-0.8587,-0.8587,-0.8587,-0.8587,-0.8723,-0.1009,-0.0112,-0.0785,-0.0,0.1683,0.157,0.1579,0.1821,0.1822,0.1839,0.1864,0.2201,0.1972,0.1516,0.14,0.164,0.2005,0.2142,0.2152,0.2154,0.2291,0.2674,0.3179,0.3058,0.3067,0.3083,0.3085,0.3331,0.3576,0.3946,0.3946,0.3697,0.4315,0.4832,0.5243,0.5122,0.5143,0.5317,0.5693,0.5695,0.5439,0.5774,0.5898,0.594,0.6072,0.6072,0.6076,0.611,0.6127,0.6129,0.6163,0.6182,0.6182,0.6231,0.6133,0.5747,0.5396,0.5036,0.4532,0.4559,0.4305,0.3497,0.3362,0.296,0.2424,0.229,0.2155,0.2155,0.1885,0.1346,0.0135,-0.0539,-0.1077,-0.1616,-0.2153,-0.2691,-0.3362,-0.4037,-0.444,-0.4305,-0.4571,-0.497,-0.4972,-0.5106,-0.5106,-0.5108,-0.5108,-0.5242,-0.5108,-0.5108,-0.5108,-0.5242,-0.5376,-0.6048,-0.6585,-0.6855,-0.6855,-0.6857,-0.6855,-0.6855,-0.6855,-0.6855,-0.6855,-0.7123,-0.7254,-0.7522,-0.7794,-0.7791,-0.8056,-0.8189,-0.859,-0.8587,-0.8587,-0.872,-0.8851,0.0113,0.0568,0.0909,0.1478,0.2047,0.216,0.2061,0.2083,0.2083,0.2103,0.2252,0.2491,0.2379,0.1788,0.1664,0.1901,0.2391,0.2779,0.3037,0.304,0.3193,0.3331,0.3454,0.333,0.333,0.3454,0.3577,0.3699,0.4193,0.4832,0.4838,0.4342,0.4857,0.5522,0.6084,0.5835,0.5737,0.5665,0.6054,0.6192,0.608,0.6161,0.6145,0.6046,0.618,0.6182,0.631,0.6335,0.6348,0.635,0.6502,0.6515,0.6519,0.6581,0.6487,0.5965,0.5748,0.5245,0.4839,0.4839,0.4437,0.3497,0.3362,0.3095,0.2558,0.2423,0.2424,0.229,0.229,0.1751,0.0808,0.0269,-0.0269,-0.0943,-0.1616,-0.2424,-0.2826,-0.35,-0.3769,-0.3633,-0.3765,-0.4031,-0.4033,-0.4033,-0.4033,-0.4033,-0.4033,-0.4033,-0.4033,-0.4033,-0.4033,-0.4033,-0.4033,-0.457,-0.551,-0.578,-0.578,-0.578,-0.5778,-0.578,-0.578,-0.578,-0.5914,-0.6046,-0.6315,-0.6717,-0.6987,-0.7121,-0.7524,-0.7925,-0.8323,-0.8587,-0.872,-0.8984,-0.9253,0.1159,0.1761,0.2116,0.2466,0.2822,0.2816,0.2703,0.259,0.2706,0.2848,0.2767,0.2891,0.2914,0.2946,0.3028,0.3156,0.3196,0.3076,0.3078,0.3078,0.3082,0.333,0.3821,0.3944,0.4192,0.4564,0.4687,0.4689,0.482,0.5381,0.5288,0.4913,0.5732,0.6168,0.6184,0.6178,0.6052,0.5814,0.6074,0.6487,0.6828,0.6836,0.6656,0.6331,0.6186,0.6325,0.646,0.6794,0.6841,0.6843,0.7183,0.7503,0.7505,0.7376,0.7111,0.6577,0.618,0.5644,0.4975,0.4839,0.4571,0.3902,0.3767,0.3632,0.3228,0.3094,0.296,0.2693,0.2694,0.2425,0.202,0.0943,0.0135,-0.0135,-0.1346,-0.202,-0.2289,-0.2693,-0.2694,-0.2828,-0.3095,-0.3228,-0.3228,-0.3228,-0.3228,-0.3228,-0.3228,-0.3228,-0.3228,-0.3228,-0.3228,-0.3228,-0.3362,-0.3497,-0.4167,-0.457,-0.4435,-0.457,-0.457,-0.4435,-0.4435,-0.4434,-0.4704,-0.4973,-0.5243,-0.5647,-0.6048,-0.6583,-0.7254,-0.7789,-0.8189,-0.8587,-0.872,-0.9392,-0.9658,0.2109,0.259,0.2709,0.2826,0.2944,0.3178,0.3317,0.3349,0.3229,0.3136,0.3054,0.3302,0.3556,0.3575,0.4048,0.3927,0.3207,0.3453,0.3452,0.3329,0.3947,0.4316,0.4315,0.4684,0.4808,0.4933,0.5179,0.5328,0.5384,0.5713,0.5878,0.5751,0.6034,0.6206,0.6385,0.6268,0.6294,0.6479,0.6617,0.7033,0.7592,0.7735,0.7443,0.7006,0.7008,0.7015,0.7146,0.745,0.7735,0.7735,0.8038,0.8189,0.8189,0.8058,0.7658,0.7259,0.6987,0.6585,0.6051,0.5915,0.5512,0.4572,0.4438,0.417,0.3767,0.3632,0.3499,0.3096,0.2828,0.2694,0.2425,0.1885,0.1077,0.0135,-0.0539,-0.1212,-0.202,-0.229,-0.2425,-0.2424,-0.2558,-0.2558,-0.2558,-0.2558,-0.2557,-0.2558,-0.2558,-0.2558,-0.2558,-0.2558,-0.2558,-0.2558,-0.2558,-0.2692,-0.2826,-0.3362,-0.3631,-0.3631,-0.3631,-0.3631,-0.3631,-0.363,-0.3765,-0.4304,-0.4574,-0.4844,-0.5377,-0.5914,-0.6719,-0.7524,-0.7922,-0.832,-0.8717,-0.9259,-0.9661,0.287,0.3226,0.3226,0.3346,0.3466,0.3705,0.409,0.4251,0.401,0.3788,0.3696,0.4069,0.4192,0.4315,0.4808,0.4685,0.3822,0.4067,0.4067,0.3819,0.4684,0.4931,0.4935,0.5324,0.5462,0.5348,0.5617,0.591,0.597,0.6438,0.6481,0.6225,0.6511,0.669,0.6745,0.6755,0.6923,0.7243,0.7388,0.7653,0.8323,0.8587,0.8448,0.831,0.8451,0.8462,0.8197,0.8459,0.8456,0.8456,0.8856,0.912,0.8992,0.8726,0.8459,0.8056,0.8056,0.7655,0.6987,0.6851,0.6449,0.5377,0.5243,0.5109,0.4572,0.444,0.4168,0.3632,0.323,0.2962,0.2559,0.229,0.1616,0.0539,0.0135,-0.0539,-0.1616,-0.1885,-0.1885,-0.1885,-0.1885,-0.1885,-0.1885,-0.1885,-0.1885,-0.1885,-0.1885,-0.1885,-0.1885,-0.1885,-0.1885,-0.1885,-0.1885,-0.1885,-0.1885,-0.2288,-0.2691,-0.2826,-0.2826,-0.2826,-0.296,-0.2826,-0.3095,-0.3633,-0.4038,-0.4307,-0.4844,-0.5379,-0.6183,-0.6989,-0.7655,-0.8051,-0.8587,-0.9389,-0.9658,0.3326,0.3812,0.3942,0.4179,0.4544,0.4666,0.5051,0.5172,0.4928,0.4803,0.4687,0.4933,0.4933,0.5056,0.5423,0.5419,0.5298,0.5063,0.4813,0.4679,0.5181,0.5431,0.5313,0.5759,0.6049,0.6057,0.6396,0.6693,0.6706,0.7055,0.6974,0.6594,0.7057,0.7491,0.7522,0.7643,0.765,0.8058,0.8189,0.8454,0.912,0.9516,0.9649,0.9779,1.0187,1.0326,0.981,0.9655,0.9516,0.9253,0.9788,1.006,0.9794,0.9661,0.9522,0.912,0.9117,0.8581,0.7648,0.7517,0.7116,0.6451,0.6453,0.6185,0.578,0.578,0.5377,0.4441,0.3903,0.3365,0.2558,0.229,0.1885,0.1077,0.0404,-0.0269,-0.0943,-0.1077,-0.1077,-0.1077,-0.1077,-0.1077,-0.1077,-0.1077,-0.1077,-0.1077,-0.1077,-0.1077,-0.1077,-0.1077,-0.1077,-0.1077,-0.1077,-0.1077,-0.1077,-0.1212,-0.1616,-0.202,-0.2155,-0.2154,-0.2289,-0.2289,-0.2558,-0.2962,-0.35,-0.3769,-0.4441,-0.4977,-0.5647,-0.6317,-0.6982,-0.765,-0.8454,-0.9125,-0.9658,0.3946,0.4562,0.4562,0.481,0.5058,0.5177,0.5302,0.5306,0.555,0.5425,0.53,0.579,0.5912,0.6039,0.6285,0.6283,0.6041,0.5974,0.5726,0.5315,0.5852,0.6006,0.6027,0.6227,0.6651,0.6796,0.6877,0.7055,0.7208,0.7558,0.7476,0.7346,0.7636,0.8328,0.9001,0.8595,0.8587,0.9117,0.9117,0.9649,1.0449,1.0717,1.085,1.1115,1.138,1.1523,1.1806,1.086,1.0319,1.0187,1.0585,1.085,1.0721,1.0455,1.019,0.9791,0.9383,0.8848,0.8318,0.8053,0.7789,0.7257,0.7123,0.6855,0.6453,0.6317,0.5915,0.5112,0.4575,0.3903,0.3635,0.2692,0.175,0.0539,0.0135,-0.0,-0.0,-0.0,-0.0404,-0.0404,-0.0404,-0.0404,-0.0,-0.0,-0.0,-0.0,-0.0,-0.0,-0.0,-0.0,-0.0269,-0.0404,-0.0404,-0.0,-0.0808,-0.0943,-0.1212,-0.1616,-0.1751,-0.1751,-0.1751,-0.1885,-0.2155,-0.2425,-0.2962,-0.3366,-0.4038,-0.4574,-0.4977,-0.5781,-0.6583,-0.7252,-0.8056,-0.8723,-0.9259,0.4685,0.5302,0.5304,0.5427,0.5673,0.5916,0.5914,0.5919,0.6164,0.6162,0.6037,0.6405,0.6528,0.6528,0.6898,0.6922,0.6708,0.6899,0.6786,0.6268,0.6443,0.6604,0.6493,0.6837,0.7036,0.7331,0.7391,0.7553,0.7822,0.8153,0.8187,0.8048,0.8584,0.9398,1.0345,0.9794,0.9649,1.018,1.018,1.0578,1.1247,1.1512,1.1644,1.1776,1.2041,1.2448,1.2724,1.1788,1.1247,1.1118,1.1383,1.1383,1.1251,1.0986,1.0717,1.0323,0.9918,0.9519,0.9253,0.8989,0.8592,0.8189,0.8056,0.7791,0.7257,0.7123,0.6719,0.6048,0.5379,0.4844,0.444,0.3499,0.2288,0.1211,0.0673,0.0269,-0.0,-0.0,-0.0,-0.0,-0.0,-0.0,-0.0,-0.0,-0.0,-0.0,-0.0,-0.0,-0.0,-0.0,-0.0,-0.0,-0.0,-0.0,-0.0,-0.0808,-0.0943,-0.1212,-0.1481,-0.1346,-0.1346,-0.1481,-0.1751,-0.2155,-0.2558,-0.2828,-0.3366,-0.3767,-0.4303,-0.5242,-0.6049,-0.6719,-0.7388,-0.8323,-0.8856,0.5302,0.5919,0.5919,0.6162,0.6405,0.6655,0.6778,0.69,0.69,0.69,0.69,0.7021,0.6905,0.6782,0.7291,0.7343,0.7298,0.7718,0.7775,0.7446,0.7357,0.7112,0.6999,0.7336,0.7414,0.7619,0.7902,0.831,0.8701,0.9117,0.9117,0.8978,0.9649,1.0734,1.1283,1.1,1.085,1.1115,1.1247,1.1512,1.1912,1.2177,1.2173,1.1897,1.2437,1.2704,1.2708,1.2309,1.2045,1.1912,1.178,1.1648,1.1383,1.1247,1.0982,1.0721,1.0721,1.0452,1.019,0.9924,0.9658,0.912,0.8987,0.8853,0.8189,0.8056,0.7789,0.7118,0.6313,0.5644,0.4973,0.417,0.3498,0.2825,0.175,0.0943,0.0269,-0.0,-0.0,-0.0,-0.0,-0.0,-0.0,-0.0,-0.0,-0.0,-0.0,-0.0,-0.0,-0.0,-0.0,-0.0,-0.0,-0.0,-0.0943,-0.1212,-0.1346,-0.1212,-0.1346,-0.1346,-0.1212,-0.1346,-0.1616,-0.202,-0.229,-0.2559,-0.2828,-0.3229,-0.3767,-0.4574,-0.5245,-0.5915,-0.6719,-0.7655,-0.832,0.5916,0.6283,0.653,0.6655,0.6778,0.6903,0.6903,0.69,0.7143,0.7266,0.7266,0.7508,0.7554,0.7624,0.7759,0.782,0.7666,0.7884,0.7806,0.7594,0.7802,0.77,0.7573,0.773,0.7887,0.7915,0.8587,0.912,0.9655,1.0063,1.0193,1.0183,1.0442,1.1118,1.181,1.1795,1.1784,1.2045,1.2041,1.2177,1.2441,1.2572,1.2568,1.2568,1.2704,1.2836,1.2704,1.2441,1.2309,1.2177,1.1912,1.1912,1.1912,1.1512,1.1115,1.0986,1.0588,1.0326,1.019,1.006,0.9791,0.9528,0.9525,0.9389,0.8851,0.8851,0.8456,0.7789,0.7118,0.6447,0.5646,0.4708,0.3901,0.3229,0.2422,0.1616,0.1077,0.0808,0.0808,0.0808,0.0404,-0.0,-0.0,-0.0,-0.0,-0.0,-0.0,-0.0,-0.0,-0.0,-0.0,-0.0,-0.0,-0.0,-0.1212,-0.1616,-0.1616,-0.1346,-0.1481,-0.1751,-0.1616,-0.1616,-0.1885,-0.2155,-0.2425,-0.2559,-0.2693,-0.3095,-0.3633,-0.4038,-0.4708,-0.5377,-0.6183,-0.7121,-0.7786,0.6528,0.6771,0.7021,0.7143,0.7143,0.7263,0.7266,0.7388,0.7508,0.7627,0.7638,0.8052,0.811,0.7932,0.8234,0.8193,0.7917,0.8117,0.8304,0.8231,0.8554,0.8581,0.8318,0.8456,0.8587,0.8984,0.9522,1.0057,1.0588,1.1,1.1262,1.1251,1.124,1.1644,1.2328,1.2456,1.2444,1.2441,1.2568,1.2572,1.2836,1.2836,1.2836,1.2836,1.2836,1.2704,1.2572,1.2441,1.2305,1.2177,1.2048,1.178,1.1776,1.1512,1.1115,1.0986,1.0585,1.0455,1.0323,1.019,1.006,0.9927,1.0063,0.9794,0.9389,0.9253,0.8853,0.8587,0.7786,0.6985,0.6313,0.5243,0.4305,0.3768,0.323,0.2558,0.1884,0.2019,0.1885,0.1616,0.1212,0.0808,0.0539,0.0404,0.0269,-0.0,-0.0,-0.0,-0.0,-0.0,-0.0,-0.0,-0.0539,-0.1346,-0.1616,-0.1885,-0.202,-0.1751,-0.1616,-0.1885,-0.1885,-0.1885,-0.202,-0.2155,-0.2425,-0.2559,-0.2693,-0.2827,-0.323,-0.3633,-0.417,-0.4841,-0.5781,-0.6585,-0.7252,0.7143,0.7385,0.7385,0.7508,0.7508,0.775,0.7872,0.7997,0.8016,0.8025,0.817,0.8519,0.8466,0.7849,0.8603,0.8573,0.8165,0.8836,0.9153,0.9347,0.9522,0.9658,0.9386,0.9253,0.9519,1.0054,1.0595,1.0993,1.139,1.1931,1.206,1.2052,1.2173,1.2312,1.2584,1.2712,1.2836,1.2704,1.2704,1.2704,1.2836,1.2836,1.2836,1.2836,1.2704,1.2568,1.2309,1.2173,1.2177,1.2173,1.1912,1.1516,1.1251,1.1247,1.0982,1.085,1.0717,1.0721,1.0717,1.0588,1.0588,1.0326,1.0462,1.0465,0.9927,0.9522,0.9253,0.912,0.8189,0.7522,0.6717,0.5644,0.4841,0.4441,0.4172,0.3767,0.3363,0.3231,0.2963,0.2424,0.2289,0.1885,0.1481,0.1212,0.0943,0.0808,-0.0,-0.0,-0.0,-0.0,-0.0,-0.0,-0.1212,-0.1885,-0.202,-0.2155,-0.2155,-0.202,-0.202,-0.2155,-0.2155,-0.2155,-0.2155,-0.229,-0.229,-0.229,-0.2289,-0.2558,-0.2827,-0.323,-0.3768,-0.444,-0.5245,-0.6049,-0.6717,0.7388,0.7385,0.775,0.7747,0.7872,0.8119,0.8247,0.8258,0.8723,0.8756,0.8919,0.9025,0.9133,0.9104,0.9269,0.9356,0.9329,0.9735,1.0035,1.0309,1.0455,1.0588,1.0585,1.0319,1.0183,1.0711,1.0982,1.1519,1.2188,1.2316,1.2444,1.2576,1.2572,1.2704,1.2708,1.2836,1.2836,1.2836,1.2836,1.2836,1.2836,1.2704,1.2704,1.2704,1.2572,1.2177,1.1912,1.1648,1.1383,1.1383,1.1383,1.1247,1.1115,1.0982,1.0853,1.0721,1.0721,1.0721,1.0721,1.0717,1.0717,1.0588,1.0591,1.0588,1.0588,1.0057,0.9791,0.9525,0.8856,0.7789,0.6853,0.6048,0.5512,0.5247,0.5112,0.4977,0.4708,0.3901,0.3365,0.3095,0.2826,0.269,0.2555,0.2019,0.1885,0.1616,0.1212,0.0673,0.0135,-0.0269,-0.0808,-0.1077,-0.1346,-0.202,-0.2155,-0.2155,-0.2155,-0.2155,-0.2155,-0.2155,-0.2155,-0.2155,-0.2155,-0.2155,-0.2155,-0.2155,-0.2155,-0.2289,-0.2558,-0.2962,-0.3366,-0.4171,-0.4842,-0.5512,-0.6451,0.763,0.7627,0.7997,0.8119,0.8244,0.8491,0.8646,0.8703,0.9016,0.909,0.9295,0.9672,0.9774,0.985,1.0045,1.0257,1.0306,1.0455,1.0853,1.1118,1.1251,1.138,1.1644,1.138,1.1244,1.1508,1.1644,1.218,1.258,1.2576,1.2572,1.2836,1.2836,1.2704,1.2836,1.2836,1.2836,1.2836,1.2836,1.2836,1.2836,1.2572,1.2441,1.2309,1.2177,1.1909,1.1516,1.1383,1.1118,1.0982,1.0982,1.0982,1.0982,1.085,1.0721,1.0721,1.0721,1.0721,1.0721,1.0721,1.0721,1.0721,1.0721,1.0588,1.0455,1.019,0.9791,0.9389,0.8723,0.7922,0.7123,0.6719,0.6317,0.6183,0.5915,0.5783,0.5512,0.4839,0.4035,0.3901,0.3632,0.3362,0.3094,0.2827,0.2423,0.2019,0.1885,0.1481,0.1077,0.0539,-0.0943,-0.1346,-0.1616,-0.1885,-0.2155,-0.2155,-0.2155,-0.2155,-0.2155,-0.2155,-0.2155,-0.2155,-0.2155,-0.2155,-0.2155,-0.2155,-0.2155,-0.2155,-0.2289,-0.2693,-0.3231,-0.3902,-0.4572,-0.5243,-0.6183,0.7994,0.7994,0.8366,0.8494,0.8497,0.8879,0.9196,0.9283,0.9468,0.97,0.9803,1.0463,1.0538,1.0431,1.0916,1.1111,1.1118,1.1251,1.1648,1.1912,1.1912,1.2041,1.2305,1.2309,1.2173,1.2309,1.2309,1.2572,1.2704,1.2836,1.2704,1.2836,1.2836,1.2836,1.2836,1.2836,1.2704,1.2704,1.2704,1.2572,1.2572,1.2309,1.2045,1.178,1.178,1.1512,1.1251,1.1115,1.0982,1.0721,1.0721,1.0721,1.0721,1.0721,1.0721,1.0721,1.0721,1.0721,1.0721,1.0721,1.0721,1.0721,1.0588,1.0455,1.0193,0.9791,0.9522,0.912,0.8587,0.8056,0.766,0.739,0.7118,0.6985,0.6719,0.6451,0.6183,0.5915,0.5379,0.4575,0.444,0.417,0.3767,0.3499,0.2961,0.2558,0.2423,0.2154,0.1885,0.1212,-0.0135,-0.1212,-0.1346,-0.1751,-0.202,-0.2159,-0.2158,-0.2161,-0.216,-0.216,-0.2159,-0.2155,-0.2155,-0.2155,-0.2155,-0.2155,-0.2155,-0.2155,-0.2424,-0.2693,-0.3096,-0.3632,-0.4304,-0.4975,-0.6049,0.8122,0.7994,0.861,0.8613,0.8634,0.9468,0.9905,1.009,1.0689,1.1195,1.1117,1.1395,1.1329,1.1215,1.149,1.178,1.1912,1.2045,1.2177,1.2441,1.2572,1.2572,1.2572,1.2704,1.2704,1.2704,1.2704,1.2704,1.2836,1.2836,1.2836,1.2836,1.2836,1.284,1.2704,1.2704,1.2572,1.2437,1.2309,1.2309,1.2045,1.1912,1.1648,1.1383,1.1247,1.1115,1.085,1.085,1.0717,1.0721,1.0721,1.0721,1.0721,1.0721,1.0721,1.0721,1.0721,1.0721,1.0721,1.0721,1.0721,1.0588,1.0455,1.0326,1.0057,0.9652,0.9253,0.8987,0.872,0.832,0.8058,0.7922,0.7791,0.7524,0.739,0.7259,0.7125,0.6989,0.6453,0.5515,0.5247,0.5112,0.4708,0.4171,0.3769,0.3365,0.296,0.2692,0.2155,0.1616,0.0808,-0.0135,-0.0808,-0.1481,-0.202,-0.216,-0.2163,-0.217,-0.2172,-0.2172,-0.2168,-0.2158,-0.2156,-0.2171,-0.2165,-0.2155,-0.2155,-0.2155,-0.2289,-0.2424,-0.2961,-0.3497,-0.4168,-0.4975,-0.6049,0.8488,0.8241,0.897,0.9261,0.9211,0.9895,1.0266,1.0417,1.0948,1.1319,1.153,1.1875,1.1912,1.1776,1.2177,1.2444,1.2444,1.2572,1.2704,1.2836,1.2836,1.2836,1.2836,1.2836,1.2836,1.2704,1.2704,1.2572,1.2836,1.2836,1.2704,1.284,1.2844,1.2712,1.2576,1.2305,1.2177,1.2045,1.2045,1.1912,1.178,1.1644,1.1247,1.0986,1.0982,1.0853,1.0721,1.0721,1.0721,1.0721,1.0721,1.0721,1.0721,1.0721,1.0721,1.0721,1.0721,1.0721,1.0721,1.0721,1.0721,1.0721,1.0323,1.019,0.9924,0.9519,0.8984,0.8851,0.872,0.8587,0.8323,0.8323,0.8189,0.8192,0.8056,0.7925,0.7794,0.7794,0.713,0.6327,0.6063,0.5792,0.5512,0.4975,0.4575,0.4171,0.3635,0.3102,0.2702,0.2028,0.1489,0.0271,-0.0543,-0.1361,-0.1908,-0.2185,-0.2186,-0.2189,-0.2191,-0.2191,-0.2194,-0.2191,-0.2198,-0.221,-0.2193,-0.2168,-0.2155,-0.2155,-0.2155,-0.2289,-0.2827,-0.3497,-0.4168,-0.4973,-0.6048,0.8732,0.8613,0.949,0.9814,0.98,1.0496,1.0777,1.0855,1.1308,1.1523,1.1633,1.2041,1.2305,1.2169,1.2437,1.2704,1.2704,1.2836,1.2836,1.2836,1.2836,1.2836,1.2704,1.2704,1.2572,1.2441,1.2309,1.2309,1.2576,1.2572,1.2572,1.2576,1.2584,1.2584,1.2309,1.1769,1.1644,1.1648,1.1648,1.1648,1.1516,1.1247,1.0982,1.0721,1.0721,1.0721,1.0721,1.0721,1.0721,1.0721,1.0721,1.0721,1.0721,1.0721,1.0721,1.0721,1.0721,1.0721,1.0721,1.0717,1.0721,1.0591,1.0323,0.9924,0.9655,0.9253,0.8851,0.872,0.8587,0.8587,0.8587,0.8587,0.8587,0.8587,0.8587,0.8456,0.8202,0.8081,0.7843,0.7305,0.6896,0.6484,0.6072,0.5688,0.5158,0.4769,0.4362,0.3836,0.3292,0.26,0.1917,0.0548,-0.0549,-0.1241,-0.1798,-0.2223,-0.2222,-0.2222,-0.2223,-0.2223,-0.223,-0.2235,-0.2239,-0.2236,-0.2216,-0.2192,-0.2174,-0.2158,-0.229,-0.2424,-0.2826,-0.3497,-0.4303,-0.5108,-0.6049,0.9086,0.8989,0.9968,1.028,1.0222,1.1082,1.1611,1.1934,1.2338,1.2549,1.2441,1.2572,1.2441,1.2173,1.2169,1.2437,1.2704,1.2704,1.2704,1.2704,1.2704,1.2572,1.2444,1.2305,1.2177,1.2045,1.1912,1.2045,1.2177,1.2045,1.1912,1.2048,1.246,1.2464,1.178,1.1237,1.0965,1.1244,1.1247,1.1115,1.0853,1.085,1.0721,1.0721,1.0721,1.0721,1.0721,1.0721,1.0721,1.0721,1.0721,1.0721,1.0721,1.0721,1.0721,1.0721,1.0721,1.0721,1.0721,1.0588,1.0455,1.0326,0.9927,0.9525,0.9256,0.8987,0.872,0.8587,0.8587,0.8587,0.8587,0.8587,0.8587,0.86,0.8614,0.8617,0.8488,0.8316,0.8068,0.7676,0.7144,0.6817,0.6513,0.6138,0.5891,0.5505,0.4976,0.4442,0.3753,0.3047,0.1937,0.0553,-0.0278,-0.0839,-0.1685,-0.2115,-0.2261,-0.2259,-0.2259,-0.2258,-0.2264,-0.2268,-0.2256,-0.2249,-0.2233,-0.2223,-0.2211,-0.2329,-0.2303,-0.2571,-0.2992,-0.3656,-0.4572,-0.5381,-0.6219,1.0443,0.9961,1.0518,1.09,1.1071,1.1603,1.1846,1.1938,1.2405,1.2572,1.2572,1.2704,1.2572,1.2173,1.1905,1.1905,1.2177,1.2309,1.2177,1.2309,1.2309,1.2177,1.2045,1.2045,1.1912,1.178,1.1648,1.1512,1.1644,1.178,1.1784,1.1784,1.2064,1.1931,1.1516,1.0975,1.0843,1.085,1.085,1.085,1.0717,1.0721,1.0721,1.0721,1.0721,1.0721,1.0721,1.0721,1.0721,1.0721,1.0721,1.0721,1.0721,1.0721,1.0721,1.0717,1.0455,1.0455,1.0455,1.0455,1.0193,0.9927,0.9525,0.9256,0.8853,0.872,0.8587,0.8587,0.8587,0.859,0.8592,0.8587,0.8636,0.8663,0.869,0.8601,0.8491,0.841,0.8191,0.7793,0.7391,0.7072,0.6767,0.6515,0.626,0.5844,0.5442,0.4897,0.4059,0.3071,0.1815,0.028,-0.0141,-0.0426,-0.1282,-0.186,-0.2156,-0.23,-0.2301,-0.23,-0.23,-0.2298,-0.2286,-0.2281,-0.2277,-0.2265,-0.225,-0.2228,-0.2343,-0.2616,-0.3031,-0.398,-0.4789,-0.5634,-0.6756,1.1596,1.1165,1.1287,1.1434,1.166,1.1827,1.1923,1.1901,1.2041,1.2177,1.2309,1.2441,1.2441,1.2173,1.1637,1.1641,1.178,1.1784,1.1784,1.1784,1.178,1.178,1.1648,1.1644,1.1644,1.1516,1.1247,1.1115,1.1118,1.1251,1.1516,1.1516,1.1523,1.139,1.1118,1.085,1.0717,1.0717,1.0721,1.0717,1.0721,1.0721,1.0721,1.0721,1.0721,1.0721,1.0721,1.0721,1.0721,1.0721,1.0721,1.0721,1.0721,1.0585,1.0588,1.0455,1.0326,1.0057,0.9924,0.9924,0.9924,0.9522,0.9256,0.8853,0.872,0.8587,0.8587,0.8587,0.8636,0.8638,0.8641,0.8663,0.8739,0.8791,0.8818,0.8605,0.8382,0.8276,0.8023,0.7619,0.7358,0.71,0.6935,0.6794,0.6647,0.6204,0.5782,0.5366,0.4379,0.3391,0.2267,0.0853,0.0143,-0.0287,-0.1152,-0.1738,-0.2039,-0.2333,-0.2333,-0.233,-0.2322,-0.2322,-0.2318,-0.2315,-0.2311,-0.2305,-0.2289,-0.2266,-0.2384,-0.293,-0.3477,-0.4186,-0.5029,-0.6027,-0.7418,1.1725,1.2399,1.2134,1.1759,1.1679,1.1702,1.1765,1.1784,1.178,1.1912,1.1912,1.2048,1.2048,1.1776,1.1508,1.1508,1.178,1.1784,1.1648,1.178,1.178,1.1516,1.138,1.1247,1.1115,1.0853,1.085,1.085,1.0721,1.0853,1.0853,1.0853,1.0986,1.0853,1.0721,1.0717,1.0721,1.0721,1.0721,1.0721,1.0721,1.0721,1.0721,1.0721,1.0721,1.0721,1.0721,1.0721,1.0721,1.0721,1.0721,1.0588,1.0585,1.0452,1.0323,1.0193,0.9924,0.9655,0.9522,0.9522,0.9522,0.9123,0.8853,0.8728,0.8619,0.86,0.8592,0.863,0.8717,0.8753,0.8791,0.8845,0.8878,0.8921,0.8807,0.8563,0.8336,0.8101,0.7844,0.7436,0.7168,0.704,0.705,0.6892,0.6876,0.6571,0.6017,0.5597,0.475,0.3745,0.289,0.1884,0.0725,-0.0145,-0.1019,-0.1605,-0.2188,-0.2333,-0.2333,-0.2333,-0.233,-0.2333,-0.2333,-0.233,-0.2323,-0.2326,-0.2324,-0.2438,-0.2695,-0.3236,-0.3792,-0.4666,-0.6081,-0.7495,-0.8882,1.2055,1.2052,1.2161,1.2076,1.2084,1.1882,1.1784,1.1784,1.1784,1.1784,1.178,1.1652,1.1519,1.138,1.1115,1.0982,1.1118,1.1115,1.1118,1.1118,1.1118,1.0986,1.085,1.085,1.0853,1.0721,1.0721,1.0721,1.0721,1.0721,1.0721,1.0721,1.0721,1.0721,1.0721,1.0721,1.0721,1.0721,1.0721,1.0721,1.0721,1.0721,1.0721,1.0721,1.0721,1.0721,1.0721,1.0721,1.0721,1.0721,1.0721,1.0588,1.0455,1.019,1.0057,0.993,0.9528,0.9265,0.9128,0.9259,0.912,0.8856,0.8726,0.8622,0.869,0.8701,0.8747,0.8799,0.8845,0.8878,0.8894,0.8927,0.8959,0.8887,0.8789,0.853,0.8282,0.79,0.7632,0.7354,0.7087,0.6964,0.6972,0.6978,0.696,0.6801,0.6246,0.5827,0.4953,0.4081,0.3208,0.248,0.1313,-0.0,-0.1022,-0.1605,-0.2189,-0.2334,-0.2333,-0.2333,-0.2333,-0.2333,-0.2333,-0.2333,-0.2333,-0.2331,-0.2325,-0.2457,-0.2874,-0.3289,-0.415,-0.5175,-0.6888,-0.8713,-1.0109,1.2204,1.1743,1.186,1.2041,1.1912,1.178,1.1516,1.1516,1.1516,1.1516,1.1516,1.1115,1.1115,1.0982,1.085,1.0721,1.0721,1.0717,1.0721,1.0721,1.0721,1.0721,1.0721,1.0721,1.0721,1.0721,1.0721,1.0721,1.0721,1.0721,1.0721,1.0721,1.0721,1.0721,1.0721,1.0721,1.0721,1.0721,1.0721,1.0721,1.0721,1.0721,1.0721,1.0721,1.0721,1.0721,1.0721,1.0721,1.0588,1.0588,1.0459,1.0326,1.0193,0.9927,0.9788,0.9537,0.9291,0.9041,0.9041,0.9041,0.8909,0.8792,0.8706,0.8753,0.8799,0.8826,0.8861,0.8916,0.8967,0.9005,0.9011,0.9057,0.8962,0.8892,0.8752,0.8484,0.8081,0.7684,0.7402,0.7121,0.699,0.699,0.699,0.699,0.6982,0.668,0.6253,0.5827,0.5389,0.4373,0.3354,0.2625,0.1751,0.0438,-0.0876,-0.1606,-0.2335,-0.2334,-0.2333,-0.2333,-0.2333,-0.2333,-0.2333,-0.2333,-0.2333,-0.2333,-0.2474,-0.2757,-0.3051,-0.3494,-0.4653,-0.6087,-0.767,-0.9509,-1.0674,1.2011,1.2025,1.1505,1.1247,1.1247,1.1247,1.1115,1.085,1.0853,1.0853,1.0853,1.0717,1.0717,1.0721,1.0721,1.0721,1.0721,1.0721,1.0721,1.0721,1.0721,1.0721,1.0721,1.0721,1.0721,1.0721,1.0721,1.0721,1.0721,1.0721,1.0721,1.0721,1.0721,1.0721,1.0721,1.0721,1.0721,1.0721,1.0721,1.0721,1.0721,1.0721,1.0721,1.0721,1.0721,1.0721,1.0452,1.0588,1.0455,1.0323,1.019,1.007,0.9825,0.9419,0.9285,0.9166,0.8991,0.8897,0.8905,0.8769,0.878,0.8777,0.8823,0.8899,0.8935,0.8951,0.897,0.9035,0.9076,0.912,0.9163,0.9209,0.8963,0.8837,0.8691,0.8407,0.7849,0.7568,0.728,0.699,0.699,0.699,0.699,0.699,0.6988,0.6696,0.6117,0.5827,0.5389,0.4664,0.35,0.2772,0.2043,0.0584,-0.0876,-0.1752,-0.2335,-0.2334,-0.2333,-0.2333,-0.2333,-0.2333,-0.2333,-0.2333,-0.2333,-0.2333,-0.2625,-0.2915,-0.3646,-0.4373,-0.5827,-0.727,-0.8866,-1.0164,-1.1456,1.1987,1.1512,1.1247,1.1115,1.0853,1.0853,1.085,1.0721,1.0721,1.0721,1.0721,1.0721,1.0721,1.0721,1.0721,1.0721,1.0721,1.0721,1.0721,1.0721,1.0721,1.0721,1.0721,1.0721,1.0721,1.0721,1.0721,1.0721,1.0721,1.0721,1.0721,1.0721,1.0721,1.0721,1.0721,1.0721,1.0721,1.0721,1.0721,1.0721,1.0721,1.0721,1.0721,1.0721,1.0721,1.0452,1.0187,1.019,1.0193,0.994,0.9943,0.971,0.9502,0.9247,0.9146,0.9066,0.8883,0.8886,0.8918,0.8943,0.8965,0.8946,0.894,0.9011,0.9054,0.9071,0.9109,0.9155,0.9193,0.9234,0.9264,0.9269,0.9147,0.8716,0.8427,0.8138,0.7713,0.7425,0.7135,0.699,0.699,0.699,0.699,0.6845,0.6845,0.6555,0.5974,0.568,0.5244,0.4373,0.3501,0.2918,0.2188,0.0584,-0.073,-0.1752,-0.2189,-0.2333,-0.2333,-0.2333,-0.2333,-0.2333,-0.2333,-0.2333,-0.2333,-0.2333,-0.2916,-0.3645,-0.4517,-0.5535,-0.6986,-0.8145,-0.9302,-1.0596,-1.189,1.1644,1.1111,1.0982,1.085,1.0721,1.0721,1.0721,1.0721,1.0721,1.0721,1.0721,1.0721,1.0721,1.0721,1.0721,1.0721,1.0721,1.0721,1.0721,1.0721,1.0721,1.0721,1.0721,1.0721,1.0721,1.0721,1.0721,1.0721,1.0721,1.0721,1.0721,1.0721,1.0721,1.0721,1.0721,1.0721,1.0721,1.0721,1.0721,1.0721,1.0721,1.0721,1.0724,1.0591,1.0591,1.0319,0.9921,0.9794,0.9813,0.9573,0.9475,0.9388,0.92,0.912,0.901,0.8932,0.8997,0.9024,0.9092,0.913,0.9136,0.9098,0.9073,0.9111,0.9177,0.919,0.9223,0.9266,0.9299,0.9302,0.9302,0.9304,0.8871,0.8582,0.8148,0.7858,0.7425,0.7135,0.699,0.699,0.699,0.699,0.699,0.6845,0.67,0.6264,0.5829,0.5391,0.4953,0.4227,0.3501,0.2918,0.2189,0.073,-0.0584,-0.1752,-0.2189,-0.2333,-0.2333,-0.2333,-0.2333,-0.2333,-0.2333,-0.2333,-0.2333,-0.2625,-0.3353,-0.4227,-0.5389,-0.6549,-0.7996,-0.901,-0.9879,-1.1031,-1.2323,1.1376,1.0707,1.0717,1.0721,1.0721,1.0721,1.0721,1.0721,1.0721,1.0721,1.0721,1.0721,1.0721,1.0721,1.0721,1.0721,1.0721,1.0721,1.0721,1.0721,1.0721,1.0721,1.0721,1.0721,1.0721,1.0721,1.0721,1.0721,1.0721,1.0721,1.0721,1.0721,1.0721,1.0721,1.0721,1.0721,1.0721,1.0721,1.0721,1.0721,1.0588,1.0588,1.0595,1.0598,1.0332,0.9924,0.9664,0.9549,0.9478,0.9396,0.9313,0.9122,0.9051,0.8954,0.8959,0.9,0.9092,0.9174,0.9239,0.9269,0.9275,0.9237,0.9261,0.9294,0.9285,0.9272,0.9283,0.9291,0.9304,0.9304,0.9307,0.8871,0.8582,0.8292,0.7858,0.7568,0.7133,0.699,0.699,0.699,0.699,0.699,0.6847,0.6702,0.6264,0.5829,0.5392,0.4956,0.4518,0.4083,0.3355,0.2918,0.2189,0.1022,-0.0292,-0.1752,-0.2189,-0.2333,-0.2333,-0.2333,-0.2333,-0.2333,-0.2333,-0.2333,-0.2333,-0.2916,-0.379,-0.4953,-0.6261,-0.7564,-0.8719,-0.9729,-1.0596,-1.1459,-1.2463,1.1115,1.0714,1.0721,1.0721,1.0721,1.0721,1.0721,1.0721,1.0721,1.0721,1.0721,1.0721,1.0721,1.0721,1.0721,1.0721,1.0721,1.0721,1.0721,1.0721,1.0721,1.0721,1.0721,1.0721,1.0721,1.0721,1.0721,1.0721,1.0721,1.0721,1.0721,1.0721,1.0721,1.0721,1.0721,1.0721,1.0721,1.0721,1.0721,1.0588,1.0455,1.0323,1.0465,1.0472,1.0082,0.9676,0.9146,0.9358,0.929,0.905,0.8996,0.8954,0.9068,0.9087,0.9101,0.9198,0.9245,0.9272,0.9299,0.9304,0.9304,0.9304,0.9304,0.9304,0.9302,0.9304,0.9304,0.9304,0.9304,0.916,0.9016,0.8726,0.8292,0.8003,0.7568,0.7423,0.7133,0.699,0.699,0.6988,0.6988,0.6847,0.6702,0.6412,0.5974,0.5538,0.4957,0.4521,0.4229,0.3939,0.2918,0.248,0.1313,-0.0,-0.0584,-0.1896,-0.2042,-0.2333,-0.2333,-0.2333,-0.2333,-0.2333,-0.2333,-0.2478,-0.2916,-0.3499,-0.4374,-0.568,-0.6984,-0.7998,-0.9152,-1.0161,-1.1168,-1.2033,-1.2753,1.0982,1.0721,1.0721,1.0721,1.0721,1.0721,1.0721,1.0721,1.0721,1.0721,1.0721,1.0721,1.0721,1.0721,1.0721,1.0721,1.0721,1.0721,1.0721,1.0721,1.0721,1.0721,1.0721,1.0721,1.0721,1.0721,1.0721,1.0721,1.0721,1.0721,1.0721,1.0721,1.0721,1.0721,1.0721,1.0721,1.0588,1.0588,1.0455,1.0326,1.0193,1.006,1.0199,1.0085,0.9701,0.9323,0.8806,0.905,0.8988,0.8902,0.9005,0.9076,0.9177,0.9207,0.9212,0.9285,0.9291,0.9294,0.9304,0.9304,0.9304,0.9304,0.9304,0.9304,0.9304,0.9304,0.9304,0.9304,0.916,0.9016,0.8726,0.8437,0.8003,0.7713,0.7423,0.7278,0.7133,0.699,0.6988,0.6988,0.6845,0.6702,0.6412,0.5976,0.5683,0.5247,0.4812,0.4231,0.4231,0.4232,0.2772,0.1459,0.0146,-0.1168,-0.1605,-0.1896,-0.2042,-0.2333,-0.2333,-0.2333,-0.2333,-0.2333,-0.2479,-0.3062,-0.3645,-0.4373,-0.5245,-0.6404,-0.7706,-0.8719,-0.9729,-1.0881,-1.189,-1.2463,-1.3039,1.0986,1.0721,1.0721,1.0721,1.0721,1.0721,1.0721,1.0721,1.0721,1.0721,1.0721,1.0721,1.0721,1.0721,1.0721,1.0721,1.0721,1.0721,1.0721,1.0721,1.0721,1.0721,1.0721,1.0721,1.0721,1.0721,1.0721,1.0721,1.0721,1.0721,1.0721,1.0721,1.0721,1.0721,1.0721,1.0588,1.0455,1.0326,1.019,0.9924,0.9924,0.9794,0.967,0.957,0.9373,0.9174,0.8949,0.8902,0.9016,0.9092,0.916,0.9201,0.925,0.9288,0.9296,0.9299,0.9302,0.9304,0.9304,0.9304,0.9304,0.9304,0.9304,0.9304,0.916,0.9304,0.9302,0.916,0.8874,0.8582,0.8437,0.8145,0.7711,0.7423,0.728,0.7135,0.6988,0.6845,0.6845,0.67,0.6555,0.6266,0.583,0.5538,0.5101,0.4812,0.4668,0.4232,0.3064,0.3356,0.2188,0.0292,-0.0729,-0.1751,-0.1896,-0.2187,-0.2187,-0.2333,-0.2333,-0.2333,-0.2333,-0.2479,-0.277,-0.3498,-0.4371,-0.5242,-0.6114,-0.7419,-0.8432,-0.9441,-1.0452,-1.1603,-1.2466,-1.3039,-1.3329,1.0721,1.0721,1.0721,1.0721,1.0721,1.0721,1.0721,1.0721,1.0721,1.0721,1.0721,1.0721,1.0721,1.0721,1.0721,1.0721,1.0721,1.0721,1.0721,1.0721,1.0721,1.0721,1.0721,1.0721,1.0721,1.0721,1.0721,1.0721,1.0721,1.0721,1.0721,1.0721,1.0717,1.0717,1.0585,1.0455,1.0326,1.0057,0.9655,0.9531,0.941,0.9276,0.9151,0.9098,0.8913,0.912,0.9051,0.9027,0.909,0.9139,0.9226,0.9272,0.9302,0.9304,0.9304,0.9304,0.9302,0.9299,0.9285,0.928,0.9275,0.9283,0.9285,0.901,0.9016,0.9157,0.9157,0.8868,0.8582,0.8292,0.8,0.7711,0.7421,0.7278,0.7135,0.699,0.699,0.6845,0.6557,0.641,0.6119,0.5829,0.5392,0.4957,0.4521,0.4522,0.4669,0.3795,0.1167,0.0438,0.0146,-0.1167,-0.1458,-0.2187,-0.2333,-0.2333,-0.2333,-0.2333,-0.2333,-0.2333,-0.2333,-0.2916,-0.3499,-0.4371,-0.5242,-0.6114,-0.6984,-0.8145,-0.9157,-1.002,-1.1028,-1.2176,-1.2753,-1.3182,-1.3615,1.0721,1.0721,1.0721,1.0721,1.0721,1.0721,1.0721,1.0721,1.0721,1.0721,1.0721,1.0721,1.0721,1.0721,1.0721,1.0721,1.0721,1.0721,1.0721,1.0721,1.0721,1.0721,1.0721,1.0721,1.0721,1.0721,1.0721,1.0721,1.0721,1.0721,1.0721,1.0721,1.0717,1.0585,1.0319,1.019,1.0057,0.9655,0.9256,0.9151,0.9049,0.8943,0.8822,0.8764,0.8872,0.909,0.9176,0.9283,0.9193,0.9217,0.9275,0.9291,0.9304,0.9304,0.9304,0.9304,0.9296,0.928,0.9253,0.9234,0.9217,0.9207,0.9018,0.8705,0.8548,0.8692,0.8642,0.8368,0.8138,0.7858,0.7713,0.7421,0.7278,0.7135,0.699,0.699,0.6845,0.6557,0.6264,0.568,0.5535,0.5245,0.481,0.4228,0.3937,0.3939,0.4087,0.2188,-0.0292,-0.1313,-0.1897,-0.2335,-0.2333,-0.2333,-0.2333,-0.2333,-0.2333,-0.2333,-0.2479,-0.277,-0.2917,-0.3646,-0.4374,-0.5098,-0.597,-0.6986,-0.8003,-0.8871,-0.9879,-1.074,-1.1603,-1.2606,-1.3047,-1.3499,-1.3802,1.0721,1.0721,1.0721,1.0721,1.0721,1.0721,1.0721,1.0721,1.0721,1.0721,1.0721,1.0721,1.0721,1.0721,1.0721,1.0721,1.0721,1.0721,1.0721,1.0721,1.0721,1.0721,1.0721,1.0721,1.0721,1.0721,1.0721,1.0721,1.0721,1.0721,1.0721,1.0721,1.0585,1.0316,0.9918,0.9921,0.9791,0.9398,0.9018,0.8943,0.8861,0.878,0.8796,0.874,0.8863,0.913,0.9327,0.9374,0.9294,0.9299,0.9296,0.9302,0.9304,0.9304,0.9304,0.9299,0.9266,0.9237,0.9201,0.9171,0.8975,0.8916,0.8573,0.8426,0.8296,0.8065,0.801,0.7771,0.7539,0.7548,0.7404,0.7278,0.7133,0.6845,0.6845,0.67,0.6412,0.6266,0.5682,0.5097,0.4953,0.4664,0.4081,0.3499,0.3354,0.3502,0.2042,-0.0146,-0.1752,-0.1751,-0.2188,-0.2334,-0.2333,-0.2333,-0.2333,-0.2333,-0.2333,-0.2479,-0.277,-0.3063,-0.3646,-0.4227,-0.4953,-0.5825,-0.6841,-0.7718,-0.8726,-0.959,-1.0455,-1.1338,-1.21,-1.285,-1.3298,-1.3606,-1.389,1.0721,1.0721,1.0721,1.0721,1.0721,1.0721,1.0721,1.0721,1.0721,1.0721,1.0721,1.0721,1.0721,1.0721,1.0721,1.0721,1.0721,1.0721,1.0721,1.0721,1.0721,1.0721,1.0721,1.0721,1.0721,1.0721,1.0721,1.0721,1.0721,1.0721,1.0721,1.0721,1.0721,1.0452,0.9782,0.9788,0.9664,0.9154,0.8954,0.8886,0.8908,0.8829,0.8772,0.8858,0.8965,0.9193,0.925,0.9288,0.9302,0.9302,0.9304,0.9304,0.9304,0.9304,0.9304,0.9288,0.9253,0.9228,0.9198,0.916,0.8965,0.8715,0.8411,0.8142,0.7865,0.7587,0.7347,0.6915,0.6795,0.7054,0.706,0.697,0.6843,0.6408,0.6264,0.6119,0.5829,0.5538,0.4955,0.4664,0.4374,0.3937,0.3499,0.2917,0.248,0.1896,-0.0,-0.1897,-0.2042,-0.2187,-0.2333,-0.2333,-0.2333,-0.2333,-0.2333,-0.2333,-0.2333,-0.2625,-0.3062,-0.35,-0.4081,-0.4662,-0.5533,-0.6549,-0.7575,-0.8599,-0.9463,-1.0372,-1.0948,-1.1708,-1.2492,-1.3115,-1.3421,-1.3881,-1.4043]},{"header":{"parameterUnit":"m.s-1","parameterCategory":1,"la1":31.0,"la2":29.5877,"lo1":-88.7671,"lo2":-86.6584,"dy":0.0162,"dx":0.0185,"nx":115,"ny":88,"refTime":"2023-06-18T06:00:00:Z","depth":0,"parameterNumber":3,"parameterNumberName":"V-component_of_WINDS"},"data":[0.0,0.0,0.0,0.0,0.0,0.0,0.0,0.0,0.0,0.0,0.0,0.0,0.0,0.0,0.0,0.0,0.0,0.0,0.0,0.0,0.0,0.0,0.0,0.0,0.0,0.0,0.0,0.0,0.0,0.0,0.0,0.0,0.0,0.0,0.0,0.0,0.0,0.0,0.0,0.0,0.0,0.0,0.0,0.0,0.0,0.0,0.0,0.0,0.0,0.0,0.0,0.0,0.0,0.0,0.0,0.0,0.0,0.0,0.0,0.0,0.0,0.0,0.0,0.0,0.0,0.0,0.0,0.0,0.0,0.0,0.0,0.0,0.0,0.0,0.0,0.0,0.0,0.0,0.0,0.0,0.0,0.0,0.0,0.0,0.0,0.0,0.0,0.0,0.0,0.0,0.0,0.0,0.0,0.0,0.0,0.0,0.0,0.0,0.0,0.0,0.0,0.0,0.0,0.0,0.0,0.0,0.0,0.0,0.0,0.0,0.0,0.0,0.0,0.0,0.0,0.0,0.0,0.0,0.0,0.0,0.0,0.0,0.0,0.0,0.0,0.0,0.0,0.0,0.0,0.0,0.0,0.0,0.0,0.0,0.0,0.0,0.0,0.0,0.0,0.0,0.0,0.0,0.0,0.0,0.0,0.0,0.0,0.0,0.0,0.0,0.0,0.0,0.0,0.0,0.0,0.0,0.0,0.0,0.0,0.0,0.0,0.0,0.0,0.0,0.0,0.0,0.0,0.0,0.0,0.0,0.0,0.0,0.0,0.0,0.0,0.0,0.0,0.0,0.0,0.0,0.0,0.0,0.0,0.0,0.0,0.0,0.0,0.0,0.0,0.0,0.0,0.0,0.0,0.0,0.0,0.0,0.0,0.0,0.0,0.0,0.0,0.0,0.0,0.0,0.0,0.0,0.0,0.0,0.0,0.0,0.0,0.0,0.0,0.0,0.0,0.0,0.0,0.0,0.0,0.0,0.0,0.0,0.0,0.0,0.0,0.0,0.0,0.0,0.0,0.0,0.0,0.0,0.0,0.0,0.0,0.0,0.0,0.0,0.0,0.0,0.0,0.0,0.0,0.0,0.0,0.0,0.0,0.0,0.0,0.0,0.0,0.0,0.0,0.0,0.0,0.0,0.0,0.0,0.0,0.0,0.0,0.0,0.0,0.0,0.0,0.0,0.0,0.0,0.0,0.0,0.0,0.0,0.0,0.0,0.0,0.0,0.0,0.0,0.0,0.0,0.0,0.0,0.0,0.0,0.0,0.0,0.0,0.0,0.0,0.0,0.0,0.0,0.0,0.0,0.0,0.0,0.0,0.0,0.0,0.0,0.0,0.0,0.0,0.0,0.0,0.0,0.0,0.0,0.0,0.0,0.0,0.0,0.0,0.0,0.0,0.0,0.0,0.0,0.0,0.0,0.0,0.0,0.0,0.0,0.0,0.0,0.0,0.0,0.0,0.0,0.0,0.0,0.0,0.0,0.0,0.0,0.0,0.0,0.0,0.0,0.0,0.0,0.0,0.0,0.0,0.0,0.0,0.0,0.0,0.0,0.0,0.0,0.0,0.0,0.0,0.0,0.0,0.0,0.0,0.0,0.0,0.0,0.0,0.0,0.0,0.0,0.0,0.0,0.0,0.0,0.0,0.0,0.0,0.0,0.0,0.0,0.0,0.0,0.0,0.0,0.0,0.0,0.0,0.0,0.0,0.0,0.0,0.0,0.0,0.0,0.0,0.0,0.0,0.0,0.0,0.0,0.0,0.0,0.0,0.0,0.0,0.0,0.0,0.0,0.0,0.0,0.0,0.0,0.0,0.0,0.0,0.0,0.0,0.0,0.0,0.0,0.0,0.0,0.0,0.0,0.0,0.0,0.0,0.0,0.0,0.0,0.0,0.0,0.0,0.0,0.0,0.0,0.0,0.0,0.0,0.0,0.0,0.0,0.0,0.0,0.0,0.0,0.0,0.0,0.0,0.0,0.0,0.0,0.0,0.0,0.0,0.0,0.0,0.0,0.0,0.0,0.0,0.0,0.0,0.0,0.0,0.0,0.0,0.0,0.0,0.0,0.0,0.0,0.0,0.0,0.0,0.0,0.0,0.0,0.0,0.0,0.0,0.0,0.0,0.0,0.0,0.0,0.0,0.0,0.0,0.0,0.0,0.0,0.0,0.0,0.0,0.0,0.0,0.0,0.0,0.0,0.0,0.0,0.0,0.0,0.0,0.0,0.0,0.0,0.0,0.0,0.0,0.0,0.0,0.0,0.0,0.0,0.0,0.0,0.0,0.0,0.0,0.0,0.0,0.0,0.0,0.0,0.0,0.0,0.0,0.0,0.0,0.0,0.0,0.0,0.0,0.0,0.0,0.0,0.0,0.0,0.0,0.0,0.0,0.0,0.0,0.0,0.0,0.0,0.0,0.0,0.0,0.0,0.0,0.0,0.0,0.0,0.0,0.0,0.0,0.0,0.0,0.0,0.0,0.0,0.0,0.0,0.0,0.0,0.0,0.0,0.0,0.0,0.0,0.0,0.0,0.0,0.0,0.0,0.0,0.0,0.0,0.0,0.0,0.0,0.0,0.0,0.0,0.0,0.0,0.0,0.0,0.0,0.0,0.0,0.0,0.0,0.0,0.0,0.0,0.0,0.0,0.0,0.0,0.0,0.0,0.0,0.0,0.0,0.0,0.0,0.0,0.0,0.0,0.0,0.0,0.0,0.0,0.0,0.0,0.0,0.0,0.0,0.0,0.0,0.0,0.0,0.0,0.0,0.0,0.0,0.0,0.0,0.0,0.0,0.0,0.0,0.0,0.0,0.0,0.0,0.0,0.0,0.0,0.0,0.0,0.0,0.0,0.0,0.0,0.0,0.0,0.0,0.0,0.0,0.0,0.0,0.0,0.0,0.0,0.0,0.0,0.0,0.0,0.0,0.0,0.0,0.0,0.0,0.0,0.0,0.0,0.0,0.0,0.0,0.0,0.0,0.0,0.0,0.0,0.0,0.0,0.0,0.0,0.0,0.0,0.0,0.0,0.0,0.0,0.0,0.0,0.0,0.0,0.0,0.0,0.0,0.0,0.0,0.0,0.0,0.0,0.0,0.0,0.0,0.0,0.0,0.0,0.0,0.0,0.0,0.0,0.0,0.0,0.0,0.0,0.0,0.0,0.0,0.0,0.0,0.0,0.0,0.0,0.0,0.0,0.0,0.0,0.0,0.0,0.0,0.0,0.0,0.0,0.0,0.0,0.0,0.0,0.0,0.0,0.0,0.0,0.0,0.0,0.0,0.0,0.0,0.0,0.0,0.0,0.0,0.0,0.0,0.0,0.0,0.0,0.0,0.0,0.0,0.0,0.0,0.0,0.0,0.0,0.0,0.0,0.0,0.0,0.0,0.0,0.0,0.0,0.0,0.0,0.0,0.0,0.0,0.0,0.0,0.0,0.0,0.0,0.0,0.0,0.0,0.0,0.0,0.0,0.0,0.0,0.0,0.0,0.0,0.0,0.0,0.0,0.0,0.0,0.0,0.0,0.0,0.0,0.0,0.0,0.0,0.0,0.0,0.0,0.0,0.0,0.0,0.0,0.0,0.0,0.0,0.0,0.0,0.0,0.0,0.0,0.0,0.0,0.0,0.0,0.0,0.0,0.0,0.0,0.0,0.0,0.0,0.0,0.0,0.0,0.0,0.0,0.0,0.0,0.0,0.0,0.0,0.0,0.0,0.0,0.0,0.0,0.0,0.0,0.0,0.0,0.0,0.0,0.0,0.0,0.0,0.0,0.0,0.0,0.0,0.0,0.0,0.0,0.0,0.0,0.0,0.0,0.0,0.0,0.0,0.0,0.0,0.0,0.0,0.0,0.0,0.0,0.0,0.0,0.0,0.0,0.0,0.0,0.0,0.0,0.0,0.0,0.0,0.0,0.0,0.0,0.0,0.0,0.0,0.0,0.0,0.0,0.0,0.0,0.0,0.0,0.0,0.0,0.0,0.0,0.0,0.0,0.0,0.0,0.0,0.0,0.0,0.0,0.0,0.0,0.0,0.0,0.0,0.0,0.0,0.0,0.0,0.0,0.0,0.0,0.0,0.0,0.0,0.0,0.0,0.0,0.0,0.0,0.0,0.0,0.0,0.0,0.0,0.0,0.0,0.0,0.0,0.0,0.0,0.0,0.0,0.0,0.0,0.0,0.0,0.0,0.0,0.0,0.0,0.0,0.0,0.0,0.0,0.0,0.0,0.0,0.0,0.0,0.0,0.0,0.0,0.0,0.0,0.0,0.0,0.0,0.0,-2.919,0.0,0.0,0.0,0.0,0.0,0.0,0.0,0.0,0.0,0.0,0.0,0.0,0.0,0.0,0.0,0.0,0.0,0.0,0.0,0.0,0.0,0.0,0.0,0.0,0.0,0.0,0.0,0.0,0.0,0.0,0.0,0.0,0.0,0.0,0.0,0.0,0.0,0.0,0.0,0.0,0.0,0.0,0.0,0.0,0.0,0.0,0.0,0.0,0.0,0.0,0.0,0.0,0.0,0.0,0.0,0.0,0.0,0.0,0.0,0.0,0.0,0.0,0.0,0.0,0.0,0.0,0.0,0.0,0.0,0.0,0.0,0.0,0.0,0.0,0.0,0.0,0.0,0.0,0.0,0.0,0.0,0.0,0.0,0.0,0.0,0.0,0.0,0.0,0.0,0.0,0.0,0.0,0.0,0.0,0.0,0.0,0.0,0.0,0.0,0.0,0.0,0.0,0.0,0.0,0.0,0.0,0.0,0.0,0.0,0.0,-2.9226,-2.9204,-2.9415,-2.9538,-2.9722,0.0,0.0,0.0,0.0,0.0,0.0,0.0,0.0,0.0,0.0,0.0,0.0,0.0,0.0,0.0,0.0,0.0,0.0,0.0,0.0,0.0,0.0,0.0,0.0,0.0,0.0,0.0,0.0,0.0,0.0,0.0,0.0,0.0,0.0,0.0,0.0,0.0,0.0,0.0,0.0,0.0,0.0,0.0,0.0,0.0,0.0,0.0,0.0,0.0,0.0,0.0,0.0,0.0,0.0,0.0,0.0,0.0,0.0,0.0,0.0,0.0,0.0,0.0,0.0,0.0,0.0,0.0,0.0,0.0,0.0,0.0,0.0,0.0,0.0,0.0,0.0,0.0,0.0,0.0,0.0,0.0,0.0,0.0,0.0,0.0,0.0,0.0,0.0,0.0,0.0,0.0,0.0,0.0,0.0,0.0,0.0,0.0,0.0,0.0,0.0,0.0,0.0,0.0,0.0,0.0,0.0,0.0,0.0,0.0,0.0,0.0,0.0,-3.0011,-3.0254,-3.0424,0.0,0.0,0.0,0.0,0.0,0.0,0.0,0.0,0.0,0.0,0.0,0.0,0.0,0.0,0.0,0.0,0.0,0.0,0.0,0.0,0.0,0.0,0.0,0.0,0.0,0.0,0.0,0.0,0.0,0.0,0.0,0.0,0.0,0.0,0.0,0.0,0.0,0.0,0.0,0.0,0.0,0.0,0.0,0.0,0.0,0.0,0.0,0.0,0.0,0.0,0.0,0.0,0.0,0.0,0.0,0.0,0.0,0.0,0.0,0.0,0.0,0.0,0.0,0.0,0.0,0.0,0.0,0.0,0.0,0.0,0.0,0.0,0.0,0.0,0.0,0.0,0.0,0.0,0.0,0.0,0.0,0.0,0.0,0.0,0.0,0.0,0.0,0.0,0.0,0.0,0.0,0.0,0.0,0.0,0.0,0.0,0.0,0.0,0.0,0.0,0.0,0.0,0.0,0.0,0.0,0.0,0.0,0.0,0.0,0.0,-3.0536,-3.0715,-3.1014,0.0,-3.1422,0.0,0.0,0.0,0.0,0.0,0.0,0.0,0.0,0.0,0.0,0.0,0.0,0.0,0.0,0.0,0.0,0.0,0.0,0.0,0.0,0.0,0.0,0.0,0.0,0.0,0.0,0.0,0.0,0.0,0.0,0.0,0.0,0.0,0.0,0.0,0.0,0.0,0.0,0.0,0.0,0.0,0.0,0.0,0.0,0.0,0.0,0.0,0.0,0.0,0.0,0.0,0.0,0.0,0.0,0.0,0.0,0.0,0.0,0.0,0.0,0.0,0.0,0.0,0.0,0.0,0.0,0.0,0.0,0.0,0.0,0.0,0.0,0.0,0.0,0.0,0.0,0.0,0.0,0.0,0.0,0.0,0.0,0.0,0.0,0.0,0.0,0.0,0.0,0.0,0.0,0.0,0.0,0.0,0.0,0.0,0.0,0.0,0.0,0.0,0.0,0.0,0.0,0.0,0.0,0.0,0.0,0.0,0.0,0.0,0.0,-3.1058,-3.119,-3.1524,-3.1739,0.0,0.0,0.0,0.0,0.0,0.0,0.0,0.0,0.0,0.0,0.0,0.0,0.0,0.0,0.0,0.0,0.0,0.0,0.0,0.0,0.0,0.0,0.0,0.0,0.0,0.0,0.0,0.0,0.0,0.0,0.0,0.0,0.0,0.0,0.0,0.0,0.0,0.0,0.0,0.0,0.0,0.0,0.0,0.0,0.0,0.0,0.0,0.0,0.0,0.0,0.0,0.0,0.0,0.0,0.0,0.0,0.0,0.0,0.0,0.0,0.0,0.0,0.0,0.0,0.0,0.0,0.0,0.0,0.0,0.0,0.0,0.0,0.0,0.0,0.0,0.0,0.0,0.0,0.0,0.0,0.0,0.0,0.0,0.0,0.0,0.0,0.0,0.0,0.0,0.0,0.0,0.0,0.0,0.0,0.0,0.0,0.0,0.0,0.0,0.0,0.0,0.0,0.0,0.0,0.0,0.0,0.0,0.0,0.0,0.0,-3.1526,-3.161,-3.1864,-3.2064,-3.2302,-3.2539,0.0,0.0,0.0,0.0,0.0,0.0,0.0,0.0,0.0,0.0,0.0,0.0,0.0,0.0,0.0,0.0,0.0,0.0,0.0,0.0,0.0,0.0,0.0,0.0,0.0,0.0,0.0,0.0,0.0,0.0,0.0,0.0,0.0,0.0,0.0,0.0,0.0,0.0,0.0,0.0,0.0,0.0,0.0,0.0,0.0,0.0,0.0,0.0,0.0,0.0,0.0,0.0,0.0,0.0,0.0,0.0,0.0,0.0,0.0,0.0,0.0,0.0,0.0,0.0,0.0,0.0,0.0,0.0,0.0,0.0,0.0,0.0,0.0,0.0,0.0,0.0,0.0,0.0,0.0,0.0,0.0,0.0,0.0,0.0,0.0,0.0,0.0,0.0,0.0,0.0,0.0,0.0,0.0,0.0,0.0,0.0,0.0,0.0,0.0,0.0,0.0,0.0,0.0,0.0,0.0,0.0,0.0,0.0,-3.194,-3.1996,-3.2247,-3.2695,-3.2749,-3.2926,0.0,0.0,0.0,0.0,0.0,0.0,0.0,0.0,0.0,0.0,0.0,0.0,0.0,0.0,0.0,0.0,0.0,0.0,0.0,0.0,0.0,0.0,0.0,0.0,0.0,0.0,0.0,0.0,0.0,0.0,0.0,0.0,0.0,0.0,0.0,0.0,0.0,0.0,0.0,0.0,0.0,0.0,0.0,0.0,0.0,0.0,0.0,0.0,0.0,0.0,0.0,0.0,0.0,0.0,0.0,0.0,0.0,0.0,0.0,0.0,0.0,0.0,0.0,0.0,0.0,0.0,0.0,0.0,0.0,0.0,0.0,0.0,0.0,0.0,0.0,0.0,0.0,0.0,0.0,0.0,0.0,0.0,0.0,0.0,0.0,0.0,0.0,0.0,0.0,0.0,0.0,0.0,0.0,0.0,0.0,0.0,0.0,0.0,0.0,0.0,0.0,0.0,0.0,0.0,0.0,0.0,0.0,0.0,0.0,-3.2379,-3.2561,-3.2819,-3.3118,-3.3266,-3.3543,0.0,0.0,0.0,0.0,0.0,0.0,0.0,0.0,0.0,0.0,0.0,0.0,0.0,0.0,0.0,0.0,0.0,0.0,0.0,0.0,0.0,0.0,0.0,0.0,0.0,0.0,0.0,0.0,0.0,0.0,0.0,0.0,0.0,0.0,0.0,0.0,0.0,0.0,0.0,0.0,0.0,0.0,0.0,0.0,0.0,0.0,0.0,0.0,0.0,0.0,0.0,0.0,0.0,0.0,0.0,0.0,0.0,0.0,0.0,0.0,0.0,0.0,0.0,0.0,0.0,0.0,0.0,0.0,0.0,0.0,0.0,0.0,0.0,0.0,0.0,0.0,0.0,0.0,0.0,0.0,0.0,0.0,0.0,0.0,0.0,0.0,0.0,0.0,0.0,0.0,0.0,0.0,0.0,0.0,0.0,0.0,0.0,0.0,0.0,0.0,0.0,0.0,0.0,0.0,0.0,0.0,0.0,0.0,0.0,-3.2819,0.0,-3.3419,-3.3555,-3.3781,-3.405,0.0,0.0,0.0,0.0,0.0,0.0,0.0,0.0,0.0,0.0,0.0,0.0,0.0,0.0,0.0,0.0,0.0,0.0,0.0,0.0,0.0,0.0,0.0,0.0,0.0,0.0,0.0,0.0,0.0,0.0,0.0,0.0,0.0,0.0,0.0,0.0,0.0,0.0,0.0,0.0,0.0,0.0,0.0,0.0,0.0,0.0,0.0,0.0,0.0,0.0,0.0,0.0,0.0,0.0,0.0,0.0,0.0,0.0,0.0,0.0,0.0,0.0,0.0,0.0,0.0,0.0,0.0,0.0,0.0,0.0,0.0,0.0,0.0,0.0,0.0,0.0,0.0,0.0,0.0,0.0,0.0,0.0,0.0,0.0,0.0,0.0,0.0,0.0,0.0,0.0,0.0,0.0,0.0,0.0,0.0,0.0,0.0,0.0,0.0,0.0,0.0,0.0,0.0,0.0,0.0,0.0,0.0,0.0,-3.3043,-3.3309,-3.3698,-3.3973,-3.4101,-3.4216,-3.4431,0.0,0.0,0.0,0.0,0.0,0.0,0.0,0.0,0.0,0.0,0.0,0.0,0.0,0.0,0.0,0.0,0.0,0.0,0.0,0.0,0.0,0.0,0.0,0.0,0.0,0.0,0.0,0.0,0.0,0.0,0.0,0.0,0.0,0.0,0.0,0.0,0.0,0.0,0.0,0.0,0.0,0.0,0.0,0.0,0.0,0.0,0.0,0.0,0.0,0.0,0.0,0.0,0.0,0.0,0.0,0.0,0.0,0.0,0.0,0.0,0.0,0.0,0.0,0.0,0.0,0.0,0.0,0.0,0.0,0.0,0.0,0.0,0.0,0.0,0.0,0.0,0.0,0.0,0.0,0.0,0.0,0.0,0.0,0.0,0.0,0.0,0.0,0.0,0.0,0.0,0.0,0.0,0.0,0.0,0.0,0.0,0.0,0.0,0.0,0.0,0.0,0.0,0.0,0.0,0.0,0.0,0.0,0.0,0.0,-3.4016,-3.4188,-3.4374,-3.4513,-3.48,-3.5081,0.0,0.0,0.0,0.0,0.0,0.0,0.0,0.0,0.0,0.0,0.0,0.0,0.0,0.0,0.0,0.0,0.0,0.0,0.0,0.0,0.0,0.0,0.0,0.0,0.0,0.0,0.0,0.0,0.0,0.0,0.0,0.0,0.0,0.0,0.0,0.0,0.0,0.0,0.0,0.0,0.0,0.0,0.0,0.0,0.0,0.0,0.0,0.0,0.0,0.0,0.0,0.0,0.0,0.0,0.0,0.0,0.0,0.0,0.0,0.0,0.0,0.0,0.0,0.0,0.0,0.0,0.0,0.0,0.0,0.0,0.0,0.0,0.0,0.0,0.0,0.0,0.0,0.0,0.0,0.0,0.0,0.0,0.0,0.0,0.0,0.0,0.0,0.0,0.0,0.0,0.0,0.0,0.0,0.0,0.0,0.0,0.0,0.0,0.0,0.0,0.0,0.0,0.0,0.0,0.0,0.0,0.0,0.0,0.0,-3.5232,-3.4923,-3.4857,-3.4899,-3.5284,-3.5508,-3.565,0.0,0.0,0.0,0.0,0.0,0.0,0.0,0.0,0.0,0.0,0.0,0.0,0.0,0.0,0.0,0.0,0.0,0.0,0.0,0.0,0.0,0.0,0.0,0.0,0.0,0.0,0.0,0.0,0.0,0.0,0.0,0.0,0.0,0.0,0.0,0.0,0.0,0.0,0.0,0.0,0.0,0.0,0.0,0.0,0.0,0.0,0.0,0.0,0.0,0.0,0.0,0.0,0.0,0.0,0.0,0.0,0.0,0.0,0.0,0.0,0.0,0.0,0.0,0.0,0.0,0.0,0.0,0.0,0.0,0.0,0.0,0.0,0.0,0.0,0.0,0.0,0.0,0.0,0.0,0.0,0.0,0.0,0.0,0.0,0.0,0.0,0.0,0.0,0.0,0.0,0.0,0.0,0.0,0.0,0.0,0.0,0.0,0.0,0.0,0.0,0.0,0.0,0.0,0.0,0.0,0.0,0.0,0.0,-3.6869,-3.5991,-3.5499,-3.5421,-3.5735,-3.5925,0.0,0.0,0.0,0.0,0.0,0.0,0.0,0.0,0.0,0.0,0.0,0.0,0.0,0.0,0.0,0.0,0.0,0.0,0.0,0.0,0.0,0.0,0.0,0.0,0.0,0.0,0.0,0.0,0.0,0.0,0.0,0.0,0.0,0.0,0.0,0.0,0.0,0.0,0.0,0.0,0.0,0.0,0.0,0.0,0.0,0.0,0.0,0.0,0.0,0.0,0.0,0.0,0.0,0.0,0.0,0.0,0.0,0.0,0.0,0.0,0.0,0.0,0.0,0.0,0.0,0.0,0.0,0.0,0.0,0.0,0.0,0.0,0.0,0.0,0.0,0.0,0.0,0.0,0.0,0.0,0.0,0.0,0.0,0.0,0.0,0.0,0.0,0.0,0.0,0.0,0.0,0.0,0.0,0.0,0.0,0.0,0.0,0.0,0.0,0.0,0.0,0.0,0.0,0.0,0.0,0.0,0.0,0.0,0.0,-3.7934,-3.7809,-3.7359,-3.6684,-3.6908,-3.6844,0.0,0.0,0.0,0.0,0.0,0.0,0.0,0.0,0.0,0.0,0.0,0.0,0.0,0.0,0.0,0.0,0.0,0.0,0.0,0.0,0.0,0.0,0.0,0.0,0.0,0.0,0.0,0.0,0.0,0.0,0.0,0.0,0.0,0.0,0.0,0.0,0.0,0.0,0.0,0.0,0.0,0.0,0.0,0.0,0.0,0.0,0.0,0.0,0.0,0.0,0.0,0.0,0.0,0.0,0.0,0.0,0.0,0.0,0.0,0.0,0.0,0.0,0.0,0.0,0.0,0.0,0.0,0.0,0.0,0.0,0.0,0.0,0.0,0.0,0.0,0.0,0.0,0.0,0.0,0.0,0.0,0.0,0.0,0.0,0.0,0.0,0.0,0.0,0.0,0.0,0.0,0.0,0.0,0.0,0.0,0.0,0.0,0.0,0.0,0.0,0.0,0.0,0.0,0.0,0.0,0.0,0.0,0.0,-3.8077,-3.9088,-3.9558,-3.9403,-3.8614,-3.8036,-3.76,0.0,0.0,0.0,0.0,0.0,0.0,0.0,0.0,0.0,0.0,0.0,0.0,0.0,0.0,0.0,0.0,0.0,0.0,0.0,0.0,0.0,0.0,0.0,0.0,0.0,0.0,0.0,0.0,0.0,0.0,0.0,0.0,0.0,0.0,0.0,0.0,0.0,0.0,0.0,0.0,0.0,0.0,0.0,0.0,0.0,0.0,0.0,0.0,0.0,0.0,0.0,0.0,0.0,0.0,0.0,0.0,0.0,0.0,0.0,0.0,0.0,0.0,0.0,0.0,0.0,0.0,0.0,0.0,0.0,0.0,0.0,0.0,0.0,0.0,0.0,0.0,0.0,0.0,0.0,0.0,0.0,0.0,0.0,0.0,0.0,0.0,0.0,0.0,0.0,0.0,0.0,0.0,0.0,0.0,0.0,0.0,0.0,0.0,0.0,0.0,0.0,0.0,0.0,0.0,0.0,0.0,0.0,0.0,-3.917,-4.0289,-4.1024,-4.1218,-4.0736,-3.9223,-3.8382,0.0,0.0,0.0,0.0,0.0,0.0,0.0,0.0,0.0,0.0,0.0,0.0,0.0,0.0,0.0,0.0,0.0,0.0,0.0,0.0,0.0,0.0,0.0,0.0,0.0,0.0,0.0,0.0,0.0,0.0,0.0,0.0,0.0,0.0,0.0,0.0,0.0,0.0,0.0,0.0,0.0,0.0,0.0,0.0,0.0,0.0,0.0,0.0,0.0,0.0,0.0,0.0,0.0,0.0,0.0,0.0,0.0,0.0,0.0,0.0,0.0,0.0,0.0,0.0,0.0,0.0,0.0,0.0,0.0,0.0,0.0,0.0,0.0,0.0,0.0,0.0,0.0,0.0,0.0,0.0,0.0,0.0,0.0,0.0,0.0,0.0,0.0,0.0,0.0,0.0,0.0,0.0,0.0,0.0,0.0,0.0,0.0,0.0,0.0,0.0,0.0,0.0,0.0,0.0,0.0,0.0,0.0,0.0,-3.9826,-4.1445,-4.17,-4.1866,-4.1945,-4.082,-3.9787,0.0,0.0,0.0,0.0,0.0,0.0,0.0,0.0,0.0,0.0,0.0,0.0,0.0,0.0,0.0,0.0,0.0,0.0,0.0,0.0,0.0,0.0,0.0,0.0,0.0,0.0,0.0,0.0,0.0,0.0,0.0,0.0,0.0,0.0,0.0,0.0,0.0,0.0,0.0,0.0,0.0,0.0,0.0,0.0,0.0,0.0,0.0,0.0,-4.4012,0.0,0.0,0.0,0.0,0.0,0.0,0.0,0.0,0.0,0.0,0.0,0.0,0.0,0.0,0.0,0.0,0.0,0.0,0.0,0.0,0.0,0.0,0.0,0.0,0.0,0.0,0.0,0.0,0.0,0.0,0.0,0.0,0.0,0.0,0.0,0.0,0.0,0.0,0.0,0.0,0.0,0.0,0.0,0.0,0.0,0.0,0.0,0.0,0.0,0.0,0.0,0.0,0.0,0.0,0.0,0.0,0.0,0.0,0.0,-4.0441,-4.2157,-4.2356,-4.2499,-4.2685,-4.2235,-4.1263,0.0,0.0,0.0,0.0,0.0,0.0,0.0,0.0,0.0,0.0,0.0,0.0,0.0,0.0,0.0,0.0,0.0,0.0,0.0,0.0,0.0,0.0,0.0,0.0,0.0,0.0,0.0,0.0,0.0,0.0,0.0,0.0,0.0,0.0,0.0,0.0,0.0,0.0,0.0,0.0,0.0,0.0,0.0,0.0,0.0,0.0,0.0,0.0,0.0,0.0,0.0,0.0,0.0,0.0,0.0,0.0,0.0,0.0,0.0,0.0,0.0,0.0,0.0,0.0,0.0,0.0,0.0,0.0,0.0,0.0,0.0,0.0,0.0,0.0,0.0,0.0,0.0,0.0,0.0,0.0,0.0,0.0,0.0,0.0,0.0,0.0,0.0,0.0,0.0,0.0,0.0,0.0,0.0,0.0,0.0,0.0,0.0,0.0,0.0,0.0,0.0,0.0,0.0,0.0,0.0,0.0,0.0,-4.0231,-4.1155,-4.2675,-4.2939,-4.3158,-4.3276,-4.3324,-4.2543,-4.0735,0.0,0.0,0.0,0.0,0.0,0.0,0.0,0.0,0.0,0.0,0.0,0.0,0.0,0.0,0.0,0.0,0.0,0.0,0.0,0.0,0.0,0.0,0.0,0.0,0.0,0.0,0.0,0.0,0.0,0.0,0.0,0.0,0.0,0.0,0.0,0.0,0.0,0.0,-4.3885,-4.3292,0.0,0.0,0.0,0.0,0.0,0.0,0.0,0.0,-4.5338,0.0,0.0,0.0,0.0,0.0,0.0,0.0,0.0,0.0,0.0,0.0,0.0,0.0,0.0,0.0,0.0,0.0,0.0,0.0,0.0,0.0,0.0,0.0,0.0,0.0,0.0,0.0,0.0,0.0,0.0,0.0,0.0,0.0,0.0,0.0,0.0,0.0,0.0,0.0,0.0,0.0,0.0,0.0,0.0,0.0,0.0,0.0,0.0,0.0,0.0,0.0,0.0,0.0,0.0,0.0,0.0,-4.0366,-4.1252,-4.2193,-4.3248,-4.3424,-4.3534,-4.3648,-4.3741,-4.3052,-4.1521,0.0,0.0,0.0,0.0,0.0,0.0,0.0,0.0,0.0,0.0,0.0,0.0,0.0,0.0,0.0,0.0,0.0,0.0,0.0,0.0,0.0,0.0,0.0,0.0,0.0,0.0,0.0,0.0,0.0,0.0,0.0,0.0,0.0,0.0,0.0,0.0,0.0,0.0,0.0,-4.3583,-4.3423,0.0,0.0,0.0,0.0,0.0,0.0,0.0,0.0,-4.3749,0.0,0.0,0.0,0.0,0.0,0.0,0.0,0.0,0.0,0.0,0.0,0.0,0.0,0.0,0.0,0.0,0.0,0.0,0.0,0.0,0.0,0.0,0.0,0.0,0.0,0.0,0.0,0.0,0.0,0.0,0.0,0.0,0.0,0.0,0.0,0.0,0.0,0.0,0.0,0.0,0.0,0.0,0.0,0.0,0.0,0.0,0.0,0.0,0.0,0.0,0.0,0.0,0.0,0.0,0.0,-4.0854,-4.1893,-4.2816,-4.3675,-4.3886,-4.3979,-4.4017,-4.4172,-4.3503,0.0,0.0,0.0,0.0,0.0,0.0,0.0,0.0,0.0,0.0,0.0,0.0,0.0,0.0,0.0,0.0,0.0,0.0,0.0,0.0,0.0,0.0,0.0,0.0,0.0,0.0,0.0,0.0,0.0,0.0,0.0,0.0,0.0,0.0,0.0,0.0,0.0,0.0,0.0,0.0,-4.3057,-4.2925,-4.3854,0.0,0.0,0.0,0.0,0.0,0.0,-4.4721,-4.4706,0.0,0.0,0.0,0.0,0.0,0.0,0.0,0.0,0.0,0.0,0.0,0.0,0.0,0.0,0.0,0.0,0.0,0.0,0.0,0.0,0.0,0.0,0.0,0.0,0.0,0.0,0.0,0.0,0.0,0.0,0.0,0.0,0.0,0.0,0.0,0.0,0.0,0.0,0.0,0.0,0.0,0.0,0.0,0.0,0.0,0.0,0.0,0.0,0.0,0.0,0.0,0.0,0.0,0.0,0.0,-4.1391,-4.256,-4.3498,-4.4162,-4.4365,-4.4458,-4.4431,-4.4626,-4.392,0.0,0.0,0.0,0.0,0.0,0.0,0.0,0.0,0.0,0.0,0.0,0.0,0.0,0.0,0.0,0.0,0.0,0.0,0.0,0.0,0.0,0.0,0.0,0.0,0.0,0.0,0.0,0.0,0.0,0.0,0.0,0.0,0.0,0.0,0.0,0.0,0.0,0.0,0.0,0.0,0.0,-4.2721,-4.3847,-4.4085,0.0,0.0,0.0,0.0,-4.5249,-4.5753,0.0,0.0,0.0,0.0,0.0,0.0,0.0,0.0,0.0,0.0,0.0,0.0,0.0,0.0,0.0,0.0,0.0,0.0,0.0,0.0,0.0,0.0,0.0,0.0,0.0,0.0,0.0,0.0,0.0,0.0,0.0,0.0,0.0,0.0,0.0,0.0,0.0,0.0,0.0,0.0,0.0,0.0,0.0,0.0,0.0,0.0,0.0,0.0,0.0,0.0,0.0,0.0,0.0,0.0,0.0,0.0,-4.1957,-4.3536,-4.4542,-4.4777,-4.4943,-4.499,-4.4904,-4.499,-4.4252,0.0,0.0,0.0,0.0,0.0,0.0,0.0,0.0,0.0,0.0,0.0,0.0,0.0,0.0,0.0,0.0,0.0,0.0,0.0,0.0,0.0,0.0,0.0,0.0,0.0,0.0,0.0,0.0,0.0,0.0,0.0,0.0,0.0,0.0,0.0,0.0,0.0,0.0,0.0,0.0,0.0,-4.3946,-4.5579,-4.5863,-4.5911,0.0,0.0,-4.606,-4.6072,-4.6088,0.0,0.0,0.0,0.0,0.0,0.0,0.0,0.0,0.0,0.0,0.0,0.0,0.0,0.0,0.0,0.0,0.0,0.0,0.0,0.0,0.0,0.0,0.0,0.0,0.0,0.0,0.0,0.0,0.0,0.0,0.0,0.0,0.0,0.0,0.0,0.0,0.0,0.0,0.0,0.0,0.0,0.0,0.0,0.0,0.0,0.0,0.0,0.0,0.0,0.0,0.0,0.0,0.0,0.0,0.0,-4.2219,-4.2347,-4.4037,-4.5004,-4.5132,-4.5199,-4.5254,-4.5209,-4.5295,-4.4499,0.0,0.0,0.0,0.0,0.0,0.0,0.0,0.0,0.0,0.0,0.0,0.0,0.0,0.0,0.0,0.0,0.0,0.0,0.0,0.0,0.0,0.0,0.0,0.0,0.0,0.0,0.0,0.0,0.0,0.0,0.0,0.0,0.0,0.0,0.0,0.0,0.0,0.0,0.0,0.0,0.0,0.0,-4.598,-4.66,0.0,0.0,0.0,-4.7556,-4.7504,0.0,0.0,0.0,0.0,0.0,0.0,0.0,0.0,0.0,0.0,0.0,0.0,0.0,0.0,0.0,0.0,0.0,0.0,0.0,0.0,0.0,0.0,0.0,0.0,0.0,0.0,0.0,0.0,0.0,0.0,0.0,0.0,0.0,0.0,0.0,0.0,0.0,0.0,0.0,0.0,0.0,0.0,0.0,0.0,0.0,0.0,0.0,0.0,0.0,0.0,0.0,0.0,0.0,0.0,0.0,0.0,0.0,-4.2985,-4.4518,-4.5362,-4.54,-4.5455,-4.5514,-4.5477,-4.5532,0.0,0.0,0.0,0.0,0.0,0.0,0.0,0.0,0.0,0.0,0.0,0.0,0.0,0.0,0.0,0.0,0.0,0.0,0.0,0.0,0.0,0.0,0.0,0.0,0.0,0.0,0.0,-4.5364,0.0,0.0,0.0,0.0,0.0,0.0,0.0,0.0,0.0,0.0,0.0,0.0,0.0,0.0,-4.5544,-4.6404,-4.7263,-4.7766,0.0,0.0,-4.8552,-4.8458,-4.8443,-4.8155,0.0,0.0,0.0,0.0,0.0,0.0,0.0,0.0,0.0,0.0,0.0,0.0,0.0,0.0,0.0,0.0,0.0,0.0,0.0,0.0,0.0,0.0,0.0,0.0,0.0,0.0,0.0,0.0,0.0,0.0,0.0,0.0,0.0,0.0,0.0,0.0,0.0,0.0,0.0,0.0,0.0,0.0,0.0,0.0,0.0,0.0,0.0,0.0,0.0,0.0,0.0,0.0,0.0,0.0,-4.3368,-4.4174,-4.5167,-4.5661,-4.5669,-4.5737,-4.5742,-4.5684,-4.5742,-4.533,0.0,0.0,0.0,0.0,0.0,0.0,0.0,0.0,0.0,0.0,0.0,0.0,0.0,0.0,0.0,0.0,0.0,0.0,0.0,0.0,0.0,0.0,0.0,0.0,0.0,0.0,0.0,0.0,0.0,0.0,0.0,0.0,0.0,0.0,0.0,0.0,0.0,0.0,0.0,0.0,0.0,-4.6434,-4.7283,-4.8098,-4.8574,0.0,-4.8475,-4.8457,-4.8342,-4.8279,-4.8135,-4.7989,0.0,0.0,0.0,0.0,0.0,0.0,0.0,0.0,0.0,0.0,0.0,0.0,0.0,0.0,0.0,0.0,0.0,0.0,0.0,0.0,0.0,0.0,0.0,0.0,0.0,0.0,0.0,0.0,0.0,0.0,0.0,0.0,0.0,0.0,0.0,0.0,0.0,0.0,0.0,0.0,0.0,0.0,0.0,0.0,0.0,0.0,0.0,0.0,0.0,0.0,0.0,0.0,0.0,-4.3625,-4.4537,-4.5441,-4.588,-4.5898,-4.591,-4.5905,-4.5886,-4.5905,-4.5506,0.0,0.0,0.0,0.0,0.0,0.0,0.0,0.0,0.0,0.0,0.0,0.0,0.0,0.0,0.0,0.0,0.0,0.0,0.0,0.0,0.0,0.0,0.0,0.0,0.0,0.0,0.0,0.0,-4.6325,-4.6559,-4.6772,0.0,0.0,0.0,0.0,0.0,0.0,0.0,0.0,0.0,0.0,-4.7309,-4.8113,-4.8931,0.0,0.0,-4.9611,-4.9853,-4.9681,-4.9625,-4.9354,-4.8671,-4.8528,0.0,0.0,0.0,0.0,0.0,0.0,0.0,0.0,0.0,0.0,0.0,0.0,0.0,0.0,0.0,0.0,0.0,0.0,0.0,0.0,0.0,0.0,0.0,0.0,0.0,0.0,0.0,0.0,0.0,0.0,0.0,0.0,0.0,0.0,0.0,0.0,0.0,0.0,0.0,0.0,0.0,0.0,0.0,0.0,0.0,0.0,0.0,0.0,0.0,0.0,0.0,0.0,-4.3973,-4.5133,-4.5745,-4.6047,-4.6047,-4.6066,-4.6047,-4.6014,-4.6037,-4.5735,0.0,0.0,0.0,0.0,0.0,0.0,0.0,0.0,0.0,0.0,0.0,0.0,0.0,0.0,0.0,0.0,0.0,0.0,0.0,0.0,0.0,0.0,0.0,0.0,0.0,0.0,0.0,0.0,-4.7658,-4.7938,-4.8043,0.0,0.0,0.0,0.0,0.0,0.0,0.0,0.0,0.0,0.0,-4.8444,-4.897,-4.9742,-5.0181,-5.0051,-5.0397,-5.0663,-5.0485,-5.0418,-5.0138,-4.9338,0.0,0.0,0.0,0.0,0.0,0.0,0.0,0.0,0.0,0.0,0.0,0.0,0.0,0.0,0.0,0.0,0.0,0.0,0.0,0.0,0.0,0.0,0.0,0.0,0.0,0.0,0.0,-4.3063,0.0,0.0,-4.2967,0.0,0.0,0.0,0.0,0.0,0.0,0.0,0.0,0.0,0.0,0.0,0.0,0.0,0.0,0.0,0.0,0.0,0.0,0.0,0.0,0.0,0.0,-4.4448,-4.6118,-4.6176,-4.6196,-4.6196,-4.6196,-4.6162,-4.6111,-4.6099,-4.6107,-4.6072,0.0,0.0,0.0,0.0,0.0,0.0,0.0,0.0,0.0,0.0,0.0,0.0,0.0,0.0,0.0,0.0,0.0,0.0,0.0,0.0,0.0,0.0,0.0,0.0,0.0,0.0,-4.9722,-4.9247,-4.8144,0.0,0.0,0.0,0.0,0.0,0.0,0.0,0.0,0.0,-4.7384,-4.8908,-4.9915,-4.9877,-5.0506,-5.0884,-5.0761,-5.0605,-5.0464,-5.0325,-5.0255,-5.0163,0.0,0.0,0.0,0.0,0.0,0.0,0.0,0.0,0.0,0.0,0.0,0.0,0.0,0.0,0.0,0.0,0.0,0.0,0.0,0.0,0.0,0.0,0.0,0.0,0.0,0.0,0.0,-4.4969,-4.4931,0.0,0.0,0.0,0.0,0.0,0.0,0.0,0.0,0.0,0.0,0.0,-4.3784,-4.3888,0.0,0.0,0.0,0.0,0.0,0.0,0.0,0.0,0.0,0.0,0.0,0.0,-4.5046,-4.6137,-4.6215,-4.6215,-4.6215,-4.6215,-4.6462,-4.7008,-4.7021,-4.7294,-4.786,0.0,0.0,0.0,0.0,0.0,0.0,0.0,0.0,0.0,0.0,0.0,0.0,0.0,0.0,0.0,0.0,0.0,0.0,0.0,0.0,0.0,0.0,0.0,0.0,0.0,-4.8561,0.0,0.0,0.0,0.0,0.0,0.0,0.0,0.0,0.0,0.0,-4.7567,-4.8234,-4.9058,-4.9614,-5.0131,-5.0619,-5.0829,-5.0887,0.0,0.0,0.0,0.0,0.0,0.0,0.0,0.0,0.0,0.0,0.0,0.0,0.0,0.0,-5.0903,-5.005,-5.0789,-5.1566,-5.1566,0.0,0.0,0.0,0.0,0.0,0.0,0.0,0.0,0.0,0.0,0.0,0.0,0.0,0.0,-4.5142,-4.5104,-4.5082,0.0,0.0,0.0,0.0,0.0,0.0,0.0,0.0,-4.3856,-4.3991,-4.4013,-4.4109,-4.4208,-4.4292,-4.4314,-4.4628,0.0,0.0,0.0,0.0,0.0,0.0,0.0,0.0,-4.5375,-4.6201,-4.6533,-4.6689,-4.6709,-4.6962,-4.7372,-4.7938,-4.7947,-4.8234,-4.8786,-4.8259,-4.7683,0.0,0.0,0.0,0.0,0.0,0.0,0.0,0.0,0.0,0.0,0.0,0.0,0.0,0.0,0.0,0.0,0.0,0.0,0.0,0.0,0.0,0.0,0.0,-4.9583,0.0,0.0,0.0,0.0,0.0,0.0,0.0,0.0,0.0,-4.8382,-4.8861,-4.9409,-4.9907,-5.0159,-5.0612,-5.1386,0.0,0.0,0.0,0.0,0.0,0.0,0.0,-5.1678,-5.1623,-5.2059,-5.24,-5.24,-5.24,-5.24,-5.24,0.0,0.0,-5.1016,-5.1642,-5.24,-5.24,-5.24,-5.24,-5.24,-5.24,-5.256,0.0,0.0,0.0,0.0,-4.3963,0.0,0.0,0.0,-4.3884,-4.3914,0.0,-4.3875,0.0,0.0,0.0,0.0,-4.4695,-4.4738,0.0,0.0,-4.5531,-4.5912,-4.5937,-4.5999,-4.6055,-4.6105,-4.6104,-4.6158,-4.6196,-4.5422,0.0,0.0,0.0,0.0,0.0,0.0,-4.55,-4.6358,-4.7198,-4.7627,-4.7662,-4.8388,-4.8794,-4.8821,-4.8878,-4.8898,-4.8913,-4.8874,-4.885,-4.8839,-4.7981,0.0,0.0,0.0,0.0,0.0,0.0,0.0,0.0,0.0,0.0,0.0,0.0,0.0,0.0,0.0,0.0,0.0,0.0,0.0,0.0,-5.0945,0.0,0.0,0.0,0.0,0.0,0.0,0.0,0.0,0.0,-5.0975,-5.0255,-5.0111,-5.0062,-5.0017,0.0,0.0,0.0,0.0,-5.2241,-5.2782,-5.2791,-5.2634,-5.2482,-5.2456,-5.2456,-5.2438,0.0,0.0,-5.2513,-5.2494,-5.2551,-5.2551,-5.329,-5.3518,-5.276,-5.2646,-5.2646,-5.2646,-5.2741,-5.2627,-5.2608,-5.2911,-5.3252,-4.849,0.0,0.0,0.0,0.0,-4.7321,-4.7363,-4.74,-4.7332,-4.7295,-4.7313,-4.7294,0.0,0.0,0.0,0.0,0.0,0.0,-4.6591,-4.6648,-4.7431,-4.7509,-4.6959,-4.699,-4.6716,-4.6193,-4.68,-4.7106,-4.7138,-4.7501,-4.6889,-4.5372,0.0,0.0,0.0,0.0,-4.6986,-4.7276,-4.808,-4.8525,-4.8525,-4.8759,-4.915,-4.9712,-5.0344,-5.0656,-5.064,-5.0059,-4.9708,-4.9717,-4.8886,0.0,0.0,0.0,0.0,0.0,0.0,0.0,0.0,0.0,0.0,0.0,0.0,0.0,0.0,0.0,0.0,0.0,0.0,0.0,-5.1857,-5.2187,-5.1965,0.0,0.0,0.0,0.0,0.0,0.0,0.0,0.0,0.0,-5.2571,-5.2152,-5.173,0.0,0.0,-5.2817,-5.2839,-5.2818,-5.2768,-5.2766,-5.2686,0.0,-5.252,-5.2968,-5.3328,-5.3328,-5.3802,-5.4181,-5.4181,-5.421,-5.4458,-5.5047,-5.5398,-5.5703,-5.6045,-5.5559,-5.5129,-5.5148,-5.5564,-5.5962,-5.5962,-5.5962,-5.6095,-5.0308,-4.9766,-4.9083,-4.879,-4.879,-4.8789,-4.884,-4.8864,-4.8828,-4.8804,-4.8794,-4.8794,-4.823,-4.7234,-4.7234,0.0,0.0,0.0,-4.7965,-4.7968,-4.8437,-4.8398,-4.7968,-4.7946,-4.7689,-4.7288,-4.7762,-4.8022,-4.8034,-4.8543,-4.8068,-4.662,0.0,-4.7053,-4.6585,-4.7586,-4.8113,-4.8147,-4.8948,-4.9377,-4.9377,-4.9706,-5.0113,-5.0594,-5.1128,-5.1385,-5.1398,-5.0894,-5.0606,-5.0569,-4.9777,-4.9289,0.0,0.0,0.0,0.0,0.0,0.0,0.0,0.0,0.0,0.0,0.0,-4.8351,-4.9216,0.0,0.0,0.0,-5.1536,-5.2576,-5.3164,-5.3193,0.0,0.0,0.0,0.0,0.0,0.0,0.0,-5.2972,-5.2591,-5.2597,-5.3615,-5.3591,-5.3269,-5.285,-5.3162,-5.347,-5.3547,0.0,-5.3532,-5.3613,-5.359,-5.3536,-5.349,-5.3869,-5.4162,-5.4191,-5.4922,-5.5454,-5.5502,-5.5798,-5.6226,-5.6711,-5.6939,-5.7148,-5.7643,-5.7501,-5.7205,-5.6861,-5.7135,-5.7457,-5.7476,-5.7476,-5.754,-5.1396,-5.1279,-4.9674,-4.903,-4.9011,-4.9005,-4.9017,-4.9007,-4.9014,-4.9002,-4.9003,-4.9,-4.897,-4.8899,-4.8835,0.0,-4.8806,-4.8872,-4.8899,-4.8919,-4.8906,-4.8906,-4.8919,-4.8899,-4.8866,-4.8788,-4.8853,-4.8898,-4.8928,-4.8986,-4.9056,-4.9095,-4.9095,-4.9046,-4.892,-4.8964,-4.9003,-4.8998,-4.9799,-5.0189,-5.0207,-5.0988,-5.1394,-5.1398,-5.1394,-5.1386,-5.1391,-5.1386,-5.1394,-5.1388,-5.068,-5.0275,-5.0177,0.0,0.0,0.0,0.0,0.0,0.0,0.0,0.0,0.0,0.0,0.0,0.0,0.0,0.0,0.0,-5.3494,0.0,-5.4091,-5.405,0.0,0.0,0.0,-5.3861,-5.3798,-5.3808,-5.3828,-5.3891,0.0,0.0,-5.3914,-5.4536,-5.4691,-5.3832,-5.3582,-5.3706,-5.4312,-5.4283,-5.4441,-5.4931,-5.5019,-5.4981,-5.479,-5.4912,-5.5112,-5.5313,-5.5902,-5.6406,-5.6521,-5.7109,-5.7633,-5.7813,-5.7944,-5.8092,-5.8112,-5.8781,-5.8937,-5.8054,-5.7882,-5.7863,-5.7939,-5.7929,-5.8147,-5.1361,-5.1357,-5.0907,-5.0745,-5.0776,-5.0791,-5.0785,-5.0793,-5.0777,-5.08,-5.0767,-5.0761,-5.0424,-4.9774,-4.9146,-4.8849,-4.8829,-4.9493,-4.9791,-4.9828,-5.0452,-5.0413,-4.9809,-4.98,-4.9435,-4.8874,-4.9485,-4.9824,-4.9887,-5.0496,-5.0773,-5.0816,-5.0796,-5.0164,-4.8964,-4.9551,-4.9883,-4.9882,-5.0683,-5.1089,-5.1089,-5.1304,-5.1385,-5.1394,-5.1386,-5.1386,-5.1386,-5.1355,-5.1622,-5.2243,-5.2111,-5.1988,-5.1901,-5.1141,0.0,0.0,0.0,0.0,0.0,0.0,0.0,0.0,0.0,-5.1059,-5.1918,0.0,-5.358,0.0,-5.4424,-5.4961,-5.4925,-5.4903,0.0,0.0,-5.4262,-5.3827,-5.3798,-5.3798,-5.4039,-5.4649,-5.4704,-5.4964,-5.5592,-5.5797,-5.5796,-5.5517,-5.536,-5.5267,-5.5224,-5.5193,-5.5153,-5.513,-5.5178,-5.5121,-5.518,-5.5627,-5.6264,-5.6939,-5.7234,-5.7414,-5.7508,-5.7755,-5.8138,-5.877,-5.9043,-5.9341,-5.996,-6.0306,-6.0301,-6.006,-5.9829,-5.9645,-5.9645,-5.9569,-5.9636,-5.1323,-5.1355,-5.1304,-5.1317,-5.1369,-5.14,-5.1391,-5.1352,-5.139,-5.139,-5.139,-5.14,-5.1132,-5.0654,-5.022,-4.9999,-4.9977,-5.0461,-5.0688,-5.0713,-5.1182,-5.1143,-5.0694,-5.0679,-5.0425,-4.9981,-5.0448,-5.0691,-5.0773,-5.1201,-5.1396,-5.1398,-5.1398,-5.0934,-5.0078,-5.0488,-5.0742,-5.0736,-5.1166,-5.1396,-5.1389,-5.1396,-5.1396,-5.1402,-5.1391,-5.1564,-5.1908,-5.1861,-5.2219,-5.3049,-5.3088,-5.3088,-5.3016,-5.263,-5.2018,0.0,0.0,0.0,0.0,0.0,0.0,0.0,0.0,0.0,0.0,0.0,-5.4644,-5.5028,-5.5536,-5.5817,-5.5777,-5.5763,-5.5767,-5.5732,-5.5277,-5.4938,-5.4907,-5.4925,-5.5077,-5.552,-5.5585,-5.5903,-5.6712,-5.6752,-5.6862,-5.7144,-5.7117,-5.6694,-5.5833,-5.5838,-5.6007,-5.5801,-5.608,-5.6309,-5.6254,-5.67,-5.7232,-5.7734,-5.8162,-5.8444,-5.8553,-5.8966,-5.9465,-5.9907,-6.0092,-6.0314,-6.0795,-6.0888,-6.0869,-6.0888,-6.0757,-6.0597,-6.0475,-6.0433,-6.0379,-5.1291,-5.1317,-5.1291,-5.1291,-5.1291,-5.1369,-5.1369,-5.1323,-5.1381,-5.1386,-5.1401,-5.1394,-5.1385,-5.1387,-5.1402,-5.1394,-5.1391,-5.1402,-5.1394,-5.1394,-5.1394,-5.1394,-5.1394,-5.1394,-5.1394,-5.1394,-5.1398,-5.1396,-5.1387,-5.1387,-5.1387,-5.1406,-5.1523,-5.1562,-5.1581,-5.1679,-5.1732,-5.1746,-5.1742,-5.173,-5.1726,-5.1714,-5.1718,-5.1718,-5.17,-5.2051,-5.2742,-5.2689,-5.3039,-5.3813,-5.388,-5.3868,-5.387,-5.3907,-5.3572,0.0,-5.2008,0.0,0.0,0.0,0.0,0.0,0.0,0.0,0.0,-5.4434,-5.5691,-5.6426,-5.6601,-5.6663,-5.6654,-5.6776,-5.6792,-5.6729,-5.6738,-5.6699,-5.6644,-5.6632,-5.662,-5.6602,-5.6622,-5.69,-5.7557,-5.761,-5.785,-5.8363,-5.841,-5.7815,-5.6517,-5.6659,-5.6966,-5.6837,-5.7332,-5.7657,-5.7829,-5.7989,-5.8202,-5.8426,-5.9037,-5.9528,-5.9595,-6.0288,-6.0875,-6.0894,-6.0918,-6.0999,-6.1018,-6.1018,-6.0999,-6.1018,-6.0978,-6.0914,-6.0777,-6.066,-6.0629,-5.1335,-5.1369,-5.1336,-5.1291,-5.1297,-5.1361,-5.1391,-5.1372,-5.1396,-5.1386,-5.139,-5.1398,-5.1396,-5.1386,-5.1394,-5.1389,-5.1396,-5.1402,-5.1394,-5.1394,-5.1394,-5.1394,-5.1394,-5.1394,-5.1394,-5.1394,-5.14,-5.1386,-5.1387,-5.1387,-5.1387,-5.1426,-5.2109,-5.2458,-5.2475,0.0,0.0,0.0,-5.3498,-5.3512,-5.3504,-5.3459,-5.3435,-5.3442,-5.3435,0.0,-5.365,-5.3536,-5.3872,-5.4692,-5.4769,0.0,0.0,0.0,0.0,0.0,0.0,0.0,0.0,0.0,0.0,0.0,-5.4242,-5.4507,-5.4645,-5.5634,-5.6335,-5.6504,-5.7128,-5.7552,-5.7576,-5.8201,-5.8582,-5.8501,-5.847,-5.8418,-5.8421,-5.8338,-5.8331,-5.8331,-5.8311,-5.8356,-5.8508,-5.8517,-5.8509,-5.8673,-5.862,-5.8432,-5.8047,-5.7984,-5.7973,-5.7915,-5.8141,-5.8385,-5.898,-5.9149,-5.9446,-6.0131,-6.0419,-6.0599,-6.0644,-6.0766,-6.0962,-6.0981,-6.1041,-6.108,-6.108,-6.108,-6.108,-6.1061,-6.1041,-6.1,-6.0935,-6.0869,-6.0823,-5.1335,-5.1349,-5.1362,-5.1343,0.0,-5.1394,-5.1391,-5.1386,-5.1386,-5.139,-5.1394,-5.1394,-5.14,-5.1398,-5.1382,-5.1402,-5.1389,-5.1398,-5.1394,-5.1394,-5.1385,-5.1382,-5.1394,-5.1394,-5.1385,-5.1418,-5.1835,-5.2051,-5.207,-5.2476,-5.2685,-5.2685,-5.3117,-5.3344,-5.3381,-5.4201,-5.4431,-5.4016,-5.3949,-5.3962,-5.3955,-5.3928,-5.3903,-5.3897,-5.3857,0.0,0.0,0.0,0.0,0.0,0.0,0.0,0.0,-5.5612,0.0,-5.4455,-5.4419,-5.4451,-5.446,-5.447,-5.4693,-5.5158,-5.5937,-5.6433,-5.6441,-5.6874,-5.7328,-5.7743,-5.8183,-5.8448,-5.846,-5.8832,-5.9057,-5.9007,-5.8927,-5.8904,-5.8888,-5.8843,-5.8817,-5.8817,-5.8803,-5.893,-5.9351,-5.9339,-5.9465,-5.9761,-5.984,-5.9803,-5.9746,-5.936,-5.9123,-5.9477,-5.9531,-5.9665,-6.0031,-6.0173,-6.0333,-6.0839,-6.0938,-6.0959,-6.1,-6.1021,-6.1061,-6.1041,-6.108,-6.1099,-6.1099,-6.1099,-6.1099,-6.1099,-6.108,-6.1061,-6.106,-6.0999,-6.0955,-5.1303,-5.1316,-5.1362,-5.1394,-5.1394,-5.1388,-5.1396,-5.1385,-5.1398,0.0,0.0,-5.1391,-5.1386,-5.1385,-5.1398,-5.1394,-5.1394,-5.1398,-5.1398,-5.1394,-5.1389,-5.1469,-5.162,-5.162,-5.1726,-5.1893,-5.2596,-5.2929,-5.2949,-5.3656,-5.3986,-5.4001,-5.4142,-5.4294,-5.4489,-5.5153,-5.5143,-5.4456,-5.4385,-5.4359,-5.4326,-5.4339,-5.4339,-5.4351,-5.4266,-5.4564,-5.5205,-5.5216,-5.5508,-5.616,-5.6218,-5.6218,-5.6218,-5.6259,-5.5974,-5.5299,-5.5275,-5.5385,-5.5522,-5.5589,-5.6007,-5.6873,-5.7544,-5.795,-5.8026,-5.8032,-5.8334,-5.9053,-5.9238,-5.9346,-5.9338,-5.9482,-5.9525,-5.9465,-5.9405,-5.9371,-5.9367,-5.929,-5.9341,-5.9283,-5.9352,-5.9483,-6.0134,-6.0179,-6.034,-6.0924,-6.0963,-6.1099,-6.1021,-6.0423,-6.017,-6.0627,-6.0685,-6.0817,-6.0916,-6.0899,-6.1018,-6.102,-6.1001,-6.1022,-6.1022,-6.108,-6.1099,-6.1099,-6.1099,-6.1099,-6.1099,-6.1099,-6.1099,-6.1099,-6.1099,-6.1099,-6.108,-6.106,-6.1018,-5.1335,-5.138,-5.1388,-5.1388,-5.1386,-5.1401,-5.1389,-5.1386,-5.1389,-5.1391,-5.1386,-5.14,-5.1398,-5.1386,-5.1389,-5.1394,-5.1394,-5.1391,-5.1389,-5.1394,-5.1398,-5.1804,-5.2499,-5.2519,-5.2923,-5.3608,-5.376,-5.381,-5.3839,-5.3954,-5.3998,-5.4117,-5.4738,-5.546,-5.6101,-5.6277,-5.6237,-5.6071,-5.6118,-5.6118,-5.6063,-5.6037,-5.6038,-5.6038,-5.5964,-5.5986,-5.61,-5.6058,-5.6082,-5.6199,-5.6218,-5.6218,-5.6218,-5.6278,-5.6233,-5.6129,-5.6115,-5.6461,-5.7175,-5.7293,-5.7731,-5.8548,-5.8761,-5.8843,-5.8923,-5.8903,-5.8961,-5.9128,-5.9795,-6.0214,-6.0261,-6.084,-6.1198,-6.1168,-6.113,-6.1098,-6.0981,-6.0961,-6.0914,-6.0914,-6.0988,-6.0899,-6.1003,-6.1012,-6.096,-6.1098,-6.1117,-6.1099,-6.1079,-6.0964,-6.0867,-6.0963,-6.1001,-6.0982,-6.1001,-6.1041,-6.108,-6.1099,-6.108,-6.108,-6.108,-6.1099,-6.1099,-6.1099,-6.1099,-6.1099,-6.1099,-6.1099,-6.1099,-6.1099,-6.1099,-6.1099,-6.1099,-6.108,-6.1061,-5.1375,-5.1394,-5.1386,-5.1396,-5.1386,-5.1391,-5.1386,-5.1398,-5.1385,-5.1386,-5.1384,-5.1385,-5.1385,-5.1396,-5.1398,-5.1391,-5.1433,-5.1874,-5.2097,-5.214,-5.2593,-5.3022,-5.3388,-5.3413,-5.3607,-5.4024,-5.4482,-5.4708,-5.4747,-5.5169,-5.5391,-5.5386,-5.5769,-5.6121,-5.6418,-5.6484,-5.6449,-5.6387,-5.6435,-5.6435,-5.6388,-5.6358,-5.6347,-5.6338,-5.6309,-5.6304,-5.6297,-5.6272,-5.6265,-5.6265,-5.6246,-5.6246,-5.6265,-5.6738,-5.7004,-5.7016,-5.7441,-5.7892,-5.8315,-5.8403,-5.8802,-5.9618,-5.9704,-5.9942,-6.0497,-6.0067,-6.0021,-6.0451,-6.0903,-6.1113,-6.1115,-6.1466,-6.1667,-6.1615,-6.1568,-6.1539,-6.1456,-6.1396,-6.1408,-6.1389,-6.1332,-6.1306,-6.131,-6.1278,-6.1245,-6.1227,-6.1191,-6.121,-6.121,-6.1173,-6.1117,-6.106,-6.1061,-6.1061,-6.1041,-6.108,-6.1099,-6.1099,-6.1099,-6.1099,-6.1099,-6.1099,-6.1099,-6.1099,-6.1099,-6.1099,-6.1099,-6.1099,-6.1099,-6.1099,-6.1099,-6.1099,-6.1099,-6.1099,-6.108,-5.14,-5.1396,-5.1396,-5.1394,-5.1398,-5.1386,-5.14,-5.1394,-5.1394,-5.1519,-5.1665,-5.1499,-5.1511,-5.1691,-5.1693,-5.1808,-5.2062,-5.2686,-5.2995,-5.3065,-5.3695,-5.4108,-5.4294,-5.4291,-5.4395,-5.4626,-5.5255,-5.5567,-5.5666,-5.6255,-5.6542,-5.6491,-5.6464,-5.6457,-5.6405,-5.6453,-5.6444,-5.6407,-5.6378,-5.6407,-5.6386,-5.6333,-5.6314,-5.6306,-5.6297,-5.6311,-5.6311,-5.6486,-5.6583,-5.6602,-5.6777,-5.6855,-5.6894,-5.7496,-5.7891,-5.7954,-5.8523,-5.9024,-5.928,-5.9494,-5.9863,-6.0531,-6.0578,-6.0905,-6.1517,-6.11,-6.0949,-6.1583,-6.1645,-6.1679,-6.1674,-6.1694,-6.1685,-6.1646,-6.1623,-6.1578,-6.1529,-6.1476,-6.1421,-6.1408,-6.1356,-6.1332,-6.1318,-6.1322,-6.133,-6.131,-6.133,-6.133,-6.133,-6.133,-6.1278,-6.1189,-6.1154,-6.1155,-6.1136,-6.1136,-6.1155,-6.1155,-6.1155,-6.1155,-6.1155,-6.1155,-6.1155,-6.1155,-6.1117,-6.1117,-6.1137,-6.1099,-6.1099,-6.1099,-6.1099,-6.1099,-6.1099,-6.1099,-6.108,-5.139,-5.1402,-5.1386,-5.1382,-5.1391,-5.1396,-5.1411,-5.1433,-5.1394,-5.1843,-5.2491,-5.1765,-5.1882,-5.2507,-5.2569,-5.2979,-5.3659,-5.3829,-5.3876,-5.3878,-5.3954,-5.4424,-5.5145,-5.5184,-5.5568,-5.6147,-5.6303,-5.6303,-5.6303,-5.6446,-5.6485,-5.642,-5.6414,-5.6407,-5.6425,-5.6426,-5.6427,-5.6397,-5.6345,-5.6345,-5.6406,-5.6329,-5.6304,-5.6304,-5.6324,-5.6311,-5.6427,-5.7068,-5.7476,-5.7515,-5.8137,-5.8545,-5.8564,-5.8642,-5.8713,-5.8771,-5.8885,-5.9268,-6.0117,-6.0925,-6.1324,-6.1448,-6.1424,-6.1504,-6.1679,-6.1612,-6.1579,-6.1705,-6.1701,-6.1713,-6.1699,-6.1704,-6.1701,-6.1691,-6.1634,-6.1595,-6.1576,-6.152,-6.1498,-6.1479,-6.1433,-6.1402,-6.1383,-6.1389,-6.1381,-6.1381,-6.1394,-6.1394,-6.1381,-6.1381,-6.14,-6.1352,-6.1306,-6.1278,-6.1278,-6.1281,-6.1281,-6.1278,-6.1261,-6.1261,-6.1261,-6.1261,-6.1261,-6.1225,-6.1208,-6.1191,-6.1173,-6.1155,-6.1099,-6.1099,-6.1099,-6.1099,-6.1099,-6.1099,-6.1099,-5.1396,-5.1386,-5.14,-5.1387,-5.1398,-5.1382,-5.1675,-5.2156,-5.2175,-5.2663,-5.3385,-5.3079,-5.3147,-5.3455,-5.3478,-5.3666,-5.4025,-5.4528,-5.4782,-5.4821,-5.5245,-5.5678,-5.5984,-5.601,-5.6186,-5.6478,-5.6498,-5.6484,-5.6449,-5.6425,-5.6425,-5.6402,-5.6398,-5.665,-5.7064,-5.7114,-5.7348,-5.7862,-5.7806,-5.7826,-5.7811,-5.7347,-5.7314,-5.7722,-5.7768,-5.7768,-5.7806,-5.8137,-5.8292,-5.8311,-5.8642,-5.8817,-5.8817,-5.9283,-5.9607,-5.9685,-6.0169,-6.0611,-6.0984,-6.1354,-6.1568,-6.158,-6.1588,-6.1628,-6.1691,-6.1715,-6.1701,-6.1701,-6.1709,-6.1704,-6.1699,-6.1716,-6.1709,-6.1697,-6.1661,-6.164,-6.1588,-6.1586,-6.1559,-6.1568,-6.151,-6.144,-6.1459,-6.1448,-6.1448,-6.1468,-6.1468,-6.1456,-6.1468,-6.1468,-6.1468,-6.1456,-6.1445,-6.1402,-6.1366,-6.1356,-6.1356,-6.1376,-6.1356,-6.1356,-6.1356,-6.1356,-6.1356,-6.1326,-6.1291,-6.1259,-6.1264,-6.1245,-6.1191,-6.1173,-6.1118,-6.1099,-6.1099,-6.108,-6.1041,-5.1914,-5.2087,-5.2101,-5.2108,-5.2108,-5.2084,-5.2459,-5.3006,-5.3025,-5.3513,-5.4289,-5.4337,-5.4479,-5.4619,-5.4447,-5.4439,-5.4752,-5.534,-5.562,-5.5679,-5.6237,-5.6484,-5.6476,-5.6464,-5.6464,-5.6476,-5.6469,-5.6441,-5.6426,-5.665,-5.6728,-5.6748,-5.6942,-5.7352,-5.7884,-5.7949,-5.8253,-5.8829,-5.883,-5.8914,-5.9082,-5.8622,-5.8467,-5.8752,-5.8797,-5.8817,-5.8803,-5.9036,-5.9152,-5.9172,-5.9371,-5.9488,-5.9527,-6.009,-6.0454,-6.0566,-6.1097,-6.1495,-6.1489,-6.1489,-6.152,-6.158,-6.1588,-6.1621,-6.1666,-6.1671,-6.1691,-6.1715,-6.1715,-6.1713,-6.1713,-6.1698,-6.1698,-6.1711,-6.1717,-6.1691,-6.1634,-6.1639,-6.1623,-6.1612,-6.1564,-6.1509,-6.1528,-6.1528,-6.1528,-6.1528,-6.1528,-6.1528,-6.1528,-6.1528,-6.1528,-6.1528,-6.1528,-6.149,-6.1433,-6.1428,-6.1428,-6.1428,-6.1408,-6.1428,-6.1428,-6.1428,-6.1415,-6.1383,-6.1375,-6.1332,-6.1322,-6.1306,-6.1278,-6.1227,-6.1155,-6.1099,-6.108,-6.1022,-6.1001,-5.3112,-5.3799,-5.3865,-5.3791,-5.3852,-5.3735,-5.3819,-5.3922,-5.3877,-5.4339,-5.5106,-5.5159,-5.5607,-5.6212,-5.5464,-5.5574,-5.6276,-5.6342,-5.6381,-5.6381,-5.6459,-5.6464,-5.6414,-5.6405,-5.6407,-5.6417,-5.6407,-5.6427,-5.6513,-5.7189,-5.755,-5.7603,-5.8195,-5.8681,-5.8836,-5.8778,-5.881,-5.9031,-5.9024,-5.9236,-5.9925,-6.0002,-5.9571,-5.8997,-5.8855,-5.8939,-5.8983,-5.9634,-6.0041,-6.0061,-6.069,-6.1103,-6.1123,-6.1178,-6.1229,-6.1289,-6.1369,-6.1421,-6.1498,-6.1489,-6.151,-6.1595,-6.1584,-6.1592,-6.1595,-6.1602,-6.1628,-6.1679,-6.1699,-6.171,-6.1705,-6.1711,-6.1699,-6.1699,-6.1704,-6.1705,-6.1696,-6.1679,-6.1699,-6.1673,-6.1621,-6.1595,-6.1595,-6.1595,-6.1595,-6.1595,-6.1595,-6.1595,-6.1595,-6.1595,-6.1595,-6.1595,-6.1588,-6.158,-6.1519,-6.149,-6.15,-6.149,-6.149,-6.15,-6.15,-6.1481,-6.148,-6.1479,-6.1476,-6.146,-6.1402,-6.1347,-6.1291,-6.1225,-6.1173,-6.1099,-6.108,-6.102,-6.0978,-5.3689,-5.3922,-5.3936,-5.393,-5.3923,-5.3891,-5.4234,-5.4761,-5.4749,-5.5223,-5.5932,-5.5996,-5.6137,-5.643,-5.6124,-5.6152,-5.6471,-5.6457,-5.6437,-5.6445,-5.6444,-5.6417,-5.6398,-5.6368,-5.6377,-5.6386,-5.6364,-5.6625,-5.7228,-5.8,-5.8377,-5.8389,-5.8636,-5.905,-5.9502,-5.9632,-5.9885,-6.0376,-6.042,-6.055,-6.0738,-6.0799,-6.0619,-6.0317,-6.0336,-6.0395,-6.0379,-6.0677,-6.0799,-6.0799,-6.1055,-6.1173,-6.1173,-6.121,-6.1261,-6.133,-6.1322,-6.1366,-6.1441,-6.1434,-6.1452,-6.1529,-6.1539,-6.1558,-6.1584,-6.1592,-6.1619,-6.1641,-6.1693,-6.1699,-6.171,-6.1709,-6.1709,-6.1699,-6.1716,-6.1707,-6.1705,-6.1715,-6.171,-6.1691,-6.1666,-6.1666,-6.1666,-6.1666,-6.1646,-6.1666,-6.1666,-6.1666,-6.1666,-6.1666,-6.1666,-6.1666,-6.1666,-6.166,-6.1634,-6.1588,-6.1573,-6.1573,-6.1573,-6.1573,-6.1573,-6.1553,-6.1564,-6.1549,-6.1549,-6.1548,-6.1464,-6.1415,-6.1352,-6.1278,-6.1208,-6.1136,-6.106,-6.104,-6.0997,-5.4768,-5.471,-5.471,-5.4702,-5.4714,-5.4699,-5.5043,-5.556,-5.5598,-5.5926,-5.6383,-5.6416,-5.6407,-5.6398,-5.6377,-5.6388,-5.6433,-5.6396,-5.6396,-5.6375,-5.6368,-5.6367,-5.6406,-5.6586,-5.673,-5.6839,-5.7029,-5.7431,-5.8014,-5.8789,-5.9177,-5.9224,-5.9449,-5.9881,-6.0366,-6.0463,-6.0759,-6.1194,-6.1275,-6.1223,-6.1155,-6.1099,-6.1079,-6.1058,-6.1098,-6.1175,-6.1231,-6.1156,-6.1137,-6.1137,-6.108,-6.1021,-6.108,-6.1118,-6.1156,-6.1191,-6.1191,-6.1242,-6.1322,-6.1318,-6.1361,-6.1464,-6.1476,-6.1487,-6.1529,-6.1559,-6.1539,-6.1592,-6.1634,-6.1667,-6.1705,-6.1715,-6.1717,-6.1716,-6.1699,-6.1716,-6.1717,-6.1709,-6.1709,-6.1709,-6.1709,-6.1709,-6.1709,-6.1709,-6.169,-6.1709,-6.1709,-6.1709,-6.1709,-6.1709,-6.1709,-6.1709,-6.1709,-6.1709,-6.169,-6.1657,-6.164,-6.1634,-6.1634,-6.1634,-6.1628,-6.1634,-6.1621,-6.1612,-6.1606,-6.1588,-6.1548,-6.1484,-6.1408,-6.1341,-6.1242,-6.1152,-6.1099,-6.1,-6.0978,-5.6406,-5.6277,-5.6366,-5.6232,-5.6164,-5.6154,-5.6317,-5.6286,-5.6328,-5.6319,-5.6407,-5.6386,-5.6386,-5.6375,-5.6321,-5.6283,-5.6314,-5.6453,-5.6436,-5.631,-5.6383,-5.6399,-5.6469,-5.7191,-5.7554,-5.7632,-5.8401,-5.8741,-5.8857,-5.9603,-6.0045,-6.0206,-6.0763,-6.1007,-6.1259,-6.1145,-6.1203,-6.121,-6.1173,-6.1117,-6.1021,-6.0941,-6.092,-6.088,-6.0872,-6.0888,-6.1073,-6.0959,-6.0941,-6.1001,-6.0938,-6.0933,-6.0976,-6.0997,-6.098,-6.1021,-6.1002,-6.106,-6.1184,-6.122,-6.1268,-6.1381,-6.14,-6.1428,-6.1428,-6.1428,-6.1464,-6.1578,-6.1615,-6.1627,-6.1685,-6.1715,-6.1709,-6.1709,-6.1717,-6.1698,-6.1711,-6.1709,-6.1709,-6.1709,-6.1709,-6.1709,-6.1709,-6.1709,-6.1709,-6.1709,-6.1709,-6.1709,-6.1709,-6.1709,-6.1709,-6.1709,-6.1709,-6.1709,-6.1709,-6.1707,-6.1697,-6.1705,-6.1701,-6.1681,-6.1676,-6.1676,-6.1666,-6.1667,-6.1639,-6.1623,-6.1578,-6.1518,-6.146,-6.1394,-6.1283,-6.1203,-6.1117,-6.106,-6.0978,-5.6425,-5.6398,-5.6398,-5.6397,-5.6395,-5.6345,-5.6353,-5.6391,-5.6348,-5.6341,-5.6333,-5.6265,-5.6253,-5.6278,-5.6251,-5.6232,-5.6298,-5.6835,-5.6861,-5.6489,-5.6868,-5.7146,-5.734,-5.8026,-5.8372,-5.8513,-5.9211,-5.9603,-5.9782,-6.0467,-6.089,-6.0926,-6.1087,-6.1194,-6.1138,-6.1157,-6.1099,-6.1002,-6.1002,-6.092,-6.0808,-6.0781,-6.0757,-6.071,-6.066,-6.0693,-6.0738,-6.0815,-6.085,-6.0872,-6.0804,-6.0757,-6.08,-6.0846,-6.0891,-6.0957,-6.0962,-6.1022,-6.1116,-6.1171,-6.1225,-6.131,-6.1326,-6.1356,-6.14,-6.1394,-6.1434,-6.1526,-6.1568,-6.1615,-6.1631,-6.166,-6.1694,-6.1716,-6.1699,-6.1699,-6.1699,-6.1699,-6.1698,-6.1698,-6.1717,-6.1698,-6.1699,-6.1699,-6.1699,-6.1699,-6.1699,-6.1699,-6.1699,-6.1699,-6.1698,-6.1698,-6.1717,-6.1699,-6.1713,-6.1711,-6.1707,-6.1697,-6.1713,-6.1713,-6.1713,-6.1709,-6.1701,-6.171,-6.1667,-6.1646,-6.1606,-6.1549,-6.1518,-6.1447,-6.1347,-6.1271,-6.1191,-6.1099,-6.104,-5.6388,-5.6353,-5.6372,-5.636,-5.6336,-5.6291,-5.6272,-5.6311,-5.6284,-5.6265,-5.6259,-5.6218,-5.6204,-5.6204,-5.618,-5.6373,-5.6675,-5.7222,-5.7334,-5.7236,-5.7668,-5.7965,-5.8115,-5.8862,-5.9448,-5.9708,-6.0192,-6.0428,-6.0433,-6.0902,-6.1154,-6.1133,-6.1079,-6.1058,-6.1004,-6.0976,-6.092,-6.0834,-6.0834,-6.0766,-6.0685,-6.0635,-6.061,-6.0585,-6.0533,-6.051,-6.0512,-6.0642,-6.0685,-6.0729,-6.068,-6.068,-6.0704,-6.0753,-6.0781,-6.0869,-6.0897,-6.096,-6.1001,-6.106,-6.1137,-6.1173,-6.1191,-6.1245,-6.131,-6.1326,-6.1352,-6.1402,-6.1484,-6.1548,-6.1559,-6.1619,-6.1657,-6.1648,-6.1676,-6.1698,-6.1699,-6.1699,-6.1699,-6.1699,-6.1699,-6.1699,-6.1699,-6.1699,-6.1699,-6.1699,-6.1699,-6.1699,-6.1699,-6.1699,-6.1699,-6.1699,-6.1699,-6.1699,-6.1699,-6.1713,-6.1711,-6.1707,-6.1701,-6.1704,-6.1704,-6.1701,-6.1713,-6.1701,-6.1685,-6.1693,-6.1646,-6.1584,-6.1529,-6.1456,-6.1421,-6.1352,-6.1275,-6.1155,-6.108,-5.6353,-5.6311,-5.6311,-5.6265,-5.6218,-5.6228,-5.6214,-5.6199,-5.6199,-5.6199,-5.6199,-5.6164,-5.6238,-5.6253,-5.6327,-5.6734,-5.737,-5.765,-5.8076,-5.8532,-5.8858,-5.8987,-5.9138,-5.9746,-6.0386,-6.0951,-6.1053,-6.1058,-6.0944,-6.1002,-6.1002,-6.0983,-6.092,-6.0877,-6.0877,-6.083,-6.0757,-6.071,-6.0685,-6.0635,-6.0578,-6.0525,-6.0506,-6.0501,-6.0453,-6.0417,-6.0436,-6.0499,-6.0552,-6.0578,-6.0604,-6.0629,-6.068,-6.0685,-6.0734,-6.08,-6.08,-6.0827,-6.0891,-6.0935,-6.0978,-6.1021,-6.1041,-6.1061,-6.1173,-6.1191,-6.1225,-6.1287,-6.1356,-6.1421,-6.1479,-6.1558,-6.16,-6.1615,-6.1674,-6.1711,-6.1698,-6.1699,-6.1699,-6.1699,-6.1699,-6.1699,-6.1699,-6.1699,-6.1699,-6.1699,-6.1699,-6.1699,-6.1699,-6.1699,-6.1699,-6.1699,-6.1699,-6.1699,-6.1711,-6.1707,-6.1704,-6.1707,-6.1704,-6.1704,-6.1707,-6.1704,-6.1717,-6.1705,-6.1715,-6.1705,-6.1673,-6.1615,-6.1584,-6.1549,-6.1495,-6.1434,-6.1352,-6.1242,-6.1136,-5.6291,-5.6232,-5.6223,-5.6228,-5.6214,-5.6218,-5.6218,-5.6199,-5.6149,-5.6133,-5.6133,-5.6082,-5.643,-5.6953,-5.7013,-5.7458,-5.8228,-5.8889,-5.9293,-5.9695,-6.0278,-6.0528,-6.0583,-6.076,-6.0937,-6.115,-6.1099,-6.1021,-6.0959,-6.0952,-6.0911,-6.0853,-6.0769,-6.0729,-6.0757,-6.0681,-6.0623,-6.0552,-6.0533,-6.0525,-6.0472,-6.0444,-6.0425,-6.0425,-6.0417,-6.0389,-6.0417,-6.0472,-6.0499,-6.0525,-6.0578,-6.0578,-6.0578,-6.0635,-6.071,-6.0753,-6.0823,-6.0888,-6.0891,-6.0933,-6.0957,-6.1018,-6.0999,-6.1,-6.1041,-6.1041,-6.1137,-6.1225,-6.1287,-6.1342,-6.144,-6.1539,-6.1576,-6.1615,-6.1652,-6.1697,-6.1709,-6.1713,-6.1713,-6.1713,-6.1717,-6.1699,-6.1699,-6.1699,-6.1699,-6.1699,-6.1699,-6.1699,-6.1699,-6.1699,-6.1699,-6.1699,-6.1699,-6.1699,-6.1707,-6.1697,-6.1717,-6.1704,-6.1701,-6.1713,-6.1717,-6.1717,-6.1709,-6.1701,-6.171,-6.1705,-6.1679,-6.1621,-6.1612,-6.1606,-6.1539,-6.1464,-6.1408,-6.1306,-6.1206,-5.6204,-5.6156,-5.6164,-5.6149,-5.6149,-5.6114,-5.6133,-5.6117,-5.6082,-5.6046,-5.6123,-5.6401,-5.6807,-5.7345,-5.7677,-5.8294,-5.914,-5.9645,-6.0034,-6.0478,-6.0867,-6.106,-6.1116,-6.1137,-6.1099,-6.1022,-6.098,-6.0914,-6.0823,-6.083,-6.0762,-6.0704,-6.0647,-6.061,-6.0594,-6.0548,-6.0491,-6.0472,-6.0425,-6.0444,-6.0389,-6.0389,-6.0389,-6.0389,-6.0389,-6.0417,-6.0444,-6.0472,-6.048,-6.0525,-6.0571,-6.0604,-6.0585,-6.0635,-6.071,-6.0753,-6.0804,-6.0846,-6.0869,-6.0891,-6.0933,-6.0955,-6.0952,-6.0976,-6.1,-6.1001,-6.1061,-6.1099,-6.1206,-6.1302,-6.1356,-6.1476,-6.1568,-6.1603,-6.1634,-6.1666,-6.167,-6.1686,-6.1709,-6.1697,-6.1707,-6.1713,-6.1716,-6.1717,-6.1698,-6.1699,-6.1699,-6.1699,-6.1699,-6.1699,-6.1699,-6.1699,-6.1716,-6.1704,-6.1717,-6.1709,-6.1705,-6.1713,-6.1717,-6.1709,-6.1709,-6.1709,-6.1705,-6.1701,-6.171,-6.1705,-6.1679,-6.1654,-6.1634,-6.1612,-6.1558,-6.1509,-6.1447,-6.1366,-6.1271,-5.6149,-5.6098,-5.6098,-5.6082,-5.6082,-5.6029,-5.6012,-5.6014,-5.6149,-5.6207,-5.6344,-5.7004,-5.7505,-5.7671,-5.8433,-5.9128,-5.9994,-6.0017,-6.0345,-6.073,-6.098,-6.0978,-6.0981,-6.1001,-6.096,-6.0894,-6.0862,-6.0791,-6.0718,-6.0674,-6.0628,-6.059,-6.0506,-6.0518,-6.0502,-6.0455,-6.0389,-6.0417,-6.0417,-6.0417,-6.0389,-6.0389,-6.0389,-6.0389,-6.0417,-6.0425,-6.0499,-6.0506,-6.0525,-6.0506,-6.0578,-6.0655,-6.0704,-6.0685,-6.0734,-6.0757,-6.0781,-6.08,-6.0781,-6.0823,-6.0823,-6.0888,-6.0885,-6.0904,-6.0955,-6.098,-6.1001,-6.1021,-6.1173,-6.1259,-6.1332,-6.1421,-6.1509,-6.1578,-6.1597,-6.1584,-6.1607,-6.1654,-6.1687,-6.1691,-6.1696,-6.169,-6.1701,-6.1707,-6.1711,-6.1713,-6.1699,-6.1699,-6.1699,-6.1699,-6.1699,-6.1699,-6.1707,-6.1709,-6.1705,-6.1701,-6.1701,-6.1705,-6.1705,-6.1701,-6.1701,-6.1701,-6.1701,-6.1715,-6.1715,-6.1715,-6.1696,-6.1685,-6.1654,-6.1634,-6.1603,-6.1559,-6.1495,-6.1421,-6.1332,-5.6117,-5.6098,-5.6029,-5.601,-5.6012,-5.5996,-5.6017,-5.6094,-5.6676,-5.6889,-5.712,-5.7796,-5.849,-5.9147,-5.9359,-5.9918,-6.0614,-6.061,-6.0779,-6.0792,-6.0846,-6.0823,-6.0804,-6.085,-6.0853,-6.0742,-6.0734,-6.0674,-6.0583,-6.0537,-6.0491,-6.0464,-6.0444,-6.0417,-6.0436,-6.0389,-6.0389,-6.0389,-6.0389,-6.0389,-6.0389,-6.0417,-6.0417,-6.0417,-6.0444,-6.0525,-6.0578,-6.0629,-6.068,-6.068,-6.068,-6.0685,-6.071,-6.0734,-6.0777,-6.08,-6.08,-6.08,-6.08,-6.0781,-6.0781,-6.0823,-6.0843,-6.0823,-6.0823,-6.0914,-6.0957,-6.0999,-6.108,-6.1225,-6.1337,-6.1402,-6.1452,-6.1515,-6.1526,-6.1518,-6.1539,-6.1576,-6.1627,-6.1621,-6.1634,-6.1621,-6.1607,-6.1686,-6.169,-6.1697,-6.1707,-6.1715,-6.1699,-6.1698,-6.1713,-6.1709,-6.1704,-6.1705,-6.1701,-6.1701,-6.1701,-6.1701,-6.1701,-6.1701,-6.1701,-6.1701,-6.1701,-6.1701,-6.1701,-6.1701,-6.1701,-6.1696,-6.1685,-6.1667,-6.1646,-6.1578,-6.1528,-6.1452,-6.1381,-5.6065,-5.6046,-5.6014,-5.5996,-5.5998,-5.5981,-5.6174,-5.6541,-5.6927,-5.739,-5.7871,-5.8582,-5.9198,-5.9661,-6.0025,-6.0484,-6.0773,-6.0846,-6.0777,-6.0729,-6.0704,-6.066,-6.061,-6.066,-6.0666,-6.0616,-6.061,-6.0545,-6.0483,-6.0464,-6.0444,-6.0389,-6.0389,-6.0417,-6.0389,-6.0389,-6.0389,-6.0389,-6.0389,-6.0389,-6.0389,-6.0444,-6.0472,-6.0499,-6.0525,-6.0559,-6.0655,-6.068,-6.0729,-6.0734,-6.0734,-6.0734,-6.0734,-6.0757,-6.08,-6.08,-6.08,-6.08,-6.08,-6.08,-6.08,-6.08,-6.08,-6.0823,-6.0846,-6.0891,-6.0957,-6.1,-6.1099,-6.1208,-6.1326,-6.1352,-6.1394,-6.1408,-6.1434,-6.1467,-6.1452,-6.1489,-6.1567,-6.1576,-6.1592,-6.1588,-6.1602,-6.1654,-6.1671,-6.1686,-6.169,-6.1701,-6.1709,-6.1716,-6.1711,-6.1704,-6.1717,-6.1709,-6.1701,-6.1701,-6.1701,-6.1701,-6.1701,-6.1701,-6.1701,-6.1701,-6.1701,-6.1701,-6.1701,-6.1701,-6.1701,-6.1701,-6.1696,-6.1679,-6.1654,-6.1595,-6.1529,-6.1476,-6.1408,-5.5995,-5.5995,-5.598,-5.6,-5.6019,-5.6059,-5.6463,-5.7003,-5.7349,-5.7963,-5.858,-5.9338,-5.9762,-5.9919,-6.0368,-6.069,-6.0729,-6.0704,-6.0629,-6.0578,-6.0578,-6.0533,-6.048,-6.0499,-6.0506,-6.0499,-6.0499,-6.0444,-6.0417,-6.0389,-6.0417,-6.0389,-6.0389,-6.0389,-6.0389,-6.0389,-6.0417,-6.0417,-6.0417,-6.0444,-6.0444,-6.0499,-6.0552,-6.0604,-6.0604,-6.0635,-6.0704,-6.071,-6.0734,-6.08,-6.08,-6.08,-6.08,-6.08,-6.08,-6.08,-6.08,-6.08,-6.08,-6.08,-6.08,-6.08,-6.0823,-6.0846,-6.0911,-6.0957,-6.098,-6.1021,-6.1099,-6.1191,-6.1281,-6.1294,-6.1287,-6.1302,-6.1352,-6.1381,-6.1408,-6.1434,-6.1484,-6.1568,-6.1559,-6.1558,-6.1584,-6.1619,-6.1648,-6.1685,-6.1671,-6.1681,-6.169,-6.1707,-6.1699,-6.1707,-6.1704,-6.1713,-6.1705,-6.1818,-6.1798,-6.1896,-6.1857,-6.1857,-6.1818,-6.1701,-6.1701,-6.1701,-6.1701,-6.1701,-6.1701,-6.1701,-6.1691,-6.1679,-6.1641,-6.1592,-6.1549,-6.1498,-6.1421,-5.6016,-5.5995,-5.5943,-5.5962,-5.6097,-5.6576,-5.6898,-5.7223,-5.8385,-5.8966,-5.9259,-6.0021,-6.0392,-6.0512,-6.052,-6.0604,-6.0578,-6.0552,-6.0525,-6.0472,-6.0444,-6.0444,-6.0444,-6.0417,-6.0417,-6.0417,-6.0417,-6.0417,-6.0389,-6.0389,-6.0389,-6.0389,-6.0389,-6.0408,-6.0417,-6.0417,-6.0444,-6.0453,-6.0499,-6.0499,-6.0552,-6.0578,-6.0629,-6.068,-6.0685,-6.071,-6.0757,-6.0757,-6.0781,-6.08,-6.08,-6.08,-6.08,-6.08,-6.08,-6.08,-6.08,-6.08,-6.08,-6.08,-6.08,-6.0823,-6.0846,-6.0888,-6.0914,-6.0939,-6.1001,-6.1041,-6.108,-6.1136,-6.121,-6.1208,-6.1245,-6.1278,-6.1294,-6.133,-6.1345,-6.1341,-6.14,-6.1491,-6.1515,-6.1526,-6.1539,-6.1578,-6.1623,-6.1627,-6.1628,-6.166,-6.1701,-6.1717,-6.1713,-6.1699,-6.1713,-6.1701,-6.1705,-6.1857,-6.1954,-6.2149,-6.2189,-6.2189,-6.2091,-6.1798,-6.174,-6.2169,-6.1993,-6.1701,-6.1701,-6.172,-6.1696,-6.1691,-6.1648,-6.158,-6.1539,-6.1498,-6.1421,-5.5961,-5.5979,-5.5847,-5.6096,-5.6559,-5.684,-5.7489,-5.8335,-5.9072,-5.9618,-6.0016,-6.0386,-6.0578,-6.0585,-6.0525,-6.0491,-6.0491,-6.0444,-6.0417,-6.0389,-6.0389,-6.0389,-6.0389,-6.0389,-6.0389,-6.0417,-6.0417,-6.0444,-6.0389,-6.0389,-6.0417,-6.0408,-6.0427,-6.0455,-6.0464,-6.048,-6.0525,-6.0552,-6.0552,-6.0578,-6.0604,-6.061,-6.0685,-6.0753,-6.0734,-6.0777,-6.08,-6.08,-6.08,-6.08,-6.08,-6.08,-6.08,-6.08,-6.08,-6.08,-6.08,-6.08,-6.08,-6.08,-6.08,-6.08,-6.0869,-6.0891,-6.0935,-6.096,-6.1022,-6.1041,-6.108,-6.1099,-6.1155,-6.1155,-6.1173,-6.1192,-6.1191,-6.1227,-6.1264,-6.1264,-6.1384,-6.1492,-6.1557,-6.1564,-6.1452,-6.1498,-6.1568,-6.1578,-6.1631,-6.1758,-6.1894,-6.1959,-6.2052,-6.2109,-6.2224,-6.2387,-6.2451,-6.2579,-6.2598,-6.2676,-6.2735,-6.2735,-6.2833,-6.2755,-6.293,-6.3282,-6.2813,-6.2091,-6.172,-6.172,-6.172,-6.1696,-6.1654,-6.158,-6.1539,-6.1479,-6.1402,-5.5924,-5.5962,-5.5959,-5.6379,-5.7035,-5.7328,-5.815,-5.9288,-5.9561,-5.9977,-6.0553,-6.0533,-6.048,-6.0487,-6.0453,-6.0417,-6.0417,-6.0389,-6.0389,-6.0389,-6.0389,-6.0389,-6.0417,-6.0417,-6.0444,-6.0472,-6.0499,-6.0499,-6.0464,-6.0444,-6.0444,-6.0464,-6.0502,-6.0502,-6.0499,-6.0546,-6.061,-6.0629,-6.0629,-6.0629,-6.0655,-6.0685,-6.0734,-6.08,-6.08,-6.08,-6.08,-6.08,-6.08,-6.08,-6.08,-6.08,-6.08,-6.08,-6.08,-6.08,-6.08,-6.08,-6.08,-6.0781,-6.08,-6.0843,-6.0869,-6.0935,-6.0959,-6.1001,-6.1041,-6.108,-6.1099,-6.1099,-6.1099,-6.1099,-6.1099,-6.1099,-6.1099,-6.1137,-6.127,-6.1384,-6.1651,-6.1718,-6.1725,-6.1691,-6.1655,-6.1907,-6.2071,-6.2337,-6.2387,-6.2715,-6.2824,-6.27,-6.2744,-6.2751,-6.2888,-6.3191,-6.3392,-6.3652,-6.3633,-6.3633,-6.3652,-6.3672,-6.3848,-6.4004,-6.4121,-6.4023,-6.3457,-6.2774,-6.2267,-6.1798,-6.1715,-6.1691,-6.1634,-6.158,-6.1529,-6.1468,-6.1421,-5.5788,-5.5962,-5.653,-5.6851,-5.7239,-5.8371,-5.9045,-5.9319,-5.9974,-6.033,-6.0472,-6.0444,-6.0472,-6.0506,-6.0487,-6.0453,-6.0417,-6.0417,-6.0417,-6.0417,-6.0417,-6.0444,-6.0491,-6.048,-6.0525,-6.0552,-6.0578,-6.0552,-6.0525,-6.0552,-6.0578,-6.0571,-6.0567,-6.0587,-6.0604,-6.0628,-6.0638,-6.0666,-6.0685,-6.071,-6.0777,-6.0757,-6.08,-6.08,-6.08,-6.08,-6.08,-6.08,-6.08,-6.08,-6.08,-6.08,-6.08,-6.08,-6.08,-6.08,-6.08,-6.08,-6.08,-6.0823,-6.0846,-6.0888,-6.0955,-6.0999,-6.1021,-6.1041,-6.108,-6.1099,-6.1099,-6.1099,-6.1099,-6.1099,-6.1099,-6.1195,-6.1292,-6.1311,-6.1369,-6.2121,-6.2331,-6.2519,-6.27,-6.2245,-6.1963,-6.2316,-6.2614,-6.2924,-6.3222,-6.3517,-6.3639,-6.3442,-6.3408,-6.3415,-6.373,-6.4057,-6.4333,-6.4594,-6.4746,-6.4687,-6.4687,-6.4667,-6.4843,-6.496,-6.4609,-6.4394,-6.3945,-6.3672,-6.3301,-6.2769,-6.2067,-6.1978,-6.2291,-6.2002,-6.1529,-6.1503,-6.1758,-5.6345,-5.6492,-5.6748,-5.7412,-5.8314,-5.9007,-5.9556,-6.0015,-6.03,-6.0444,-6.0444,-6.0417,-6.0444,-6.0506,-6.054,-6.054,-6.0525,-6.0499,-6.0525,-6.0499,-6.0499,-6.0525,-6.0552,-6.0552,-6.0578,-6.0604,-6.0629,-6.0635,-6.061,-6.0604,-6.0623,-6.0623,-6.0648,-6.0674,-6.0655,-6.0695,-6.0719,-6.0757,-6.0757,-6.0757,-6.0781,-6.08,-6.08,-6.08,-6.08,-6.08,-6.08,-6.08,-6.08,-6.08,-6.08,-6.08,-6.08,-6.08,-6.08,-6.0781,-6.0846,-6.0846,-6.0846,-6.0846,-6.0911,-6.0955,-6.0999,-6.1021,-6.1061,-6.108,-6.1099,-6.1099,-6.1099,-6.1118,-6.1137,-6.1099,-6.1447,-6.164,-6.1834,-6.2181,-6.2393,-6.2818,-6.3281,-6.3469,-6.3635,-6.3297,-6.3056,-6.3318,-6.356,-6.3599,-6.3811,-6.4012,-6.4071,-6.393,-6.3978,-6.4101,-6.4531,-6.5018,-6.528,-6.5559,-6.5863,-6.5878,-6.5897,-6.5878,-6.5878,-6.58,-6.5468,-6.5331,-6.5194,-6.4863,-6.4433,-6.3809,-6.314,-6.3071,-6.3111,-6.2823,-6.259,-6.2814,-6.2959,-5.6996,-5.744,-5.7397,-5.8144,-5.9294,-5.946,-5.9939,-6.052,-6.0533,-6.0525,-6.0499,-6.0472,-6.0472,-6.0506,-6.0572,-6.0591,-6.0604,-6.0623,-6.0623,-6.0623,-6.0604,-6.0604,-6.0629,-6.061,-6.061,-6.0655,-6.0685,-6.071,-6.0729,-6.0704,-6.0655,-6.0655,-6.0693,-6.0718,-6.0729,-6.0757,-6.0781,-6.0781,-6.08,-6.0781,-6.08,-6.08,-6.08,-6.08,-6.08,-6.08,-6.08,-6.08,-6.08,-6.08,-6.08,-6.08,-6.08,-6.0804,-6.0823,-6.0846,-6.0888,-6.0914,-6.0935,-6.0935,-6.0935,-6.098,-6.1021,-6.1061,-6.108,-6.1099,-6.1099,-6.1099,-6.1447,-6.1466,-6.1485,-6.164,-6.2182,-6.2549,-6.2743,-6.3226,-6.3669,-6.3939,-6.4188,-6.4375,-6.4582,-6.4827,-6.4629,-6.4644,-6.46,-6.4428,-6.4468,-6.4582,-6.4656,-6.4696,-6.4921,-6.5151,-6.5429,-6.5859,-6.6025,-6.6364,-6.6727,-6.6795,-6.6795,-6.6737,-6.6502,-6.6502,-6.6366,-6.6307,-6.619,-6.6014,-6.5546,-6.4882,-6.4253,-6.3917,-6.3694,-6.3867,-6.3904,-6.4053,-6.3867,-5.7628,-5.8964,-5.898,-5.9115,-5.939,-6.0201,-6.0527,-6.0623,-6.0604,-6.0578,-6.0578,-6.0571,-6.0571,-6.0585,-6.0616,-6.0616,-6.0604,-6.0623,-6.0629,-6.0604,-6.0604,-6.0655,-6.066,-6.0685,-6.071,-6.0777,-6.0757,-6.0757,-6.08,-6.0777,-6.0777,-6.0777,-6.0753,-6.0777,-6.08,-6.0781,-6.08,-6.08,-6.08,-6.08,-6.08,-6.08,-6.08,-6.08,-6.08,-6.08,-6.08,-6.08,-6.08,-6.08,-6.08,-6.0823,-6.0804,-6.0827,-6.0869,-6.0911,-6.0935,-6.0959,-6.098,-6.098,-6.098,-6.1041,-6.1061,-6.1138,-6.1331,-6.1195,-6.1137,-6.1408,-6.2027,-6.2278,-6.2549,-6.2936,-6.3168,-6.3478,-6.3671,-6.396,-6.4404,-6.4808,-6.5056,-6.5261,-6.5448,-6.56,-6.5697,-6.5576,-6.5421,-6.5256,-6.5486,-6.5621,-6.5864,-6.5948,-6.6187,-6.6399,-6.65,-6.6679,-6.6711,-6.6875,-6.6839,-6.6815,-6.6795,-6.6795,-6.6737,-6.6795,-6.6795,-6.6737,-6.6522,-6.6619,-6.6561,-6.5716,-6.4983,-6.443,-6.4302,-6.4695,-6.4636,-6.4527,-6.4213,-5.8597,-5.9236,-5.9771,-6.0028,-6.0066,-6.0425,-6.0623,-6.0623,-6.0623,-6.0623,-6.0604,-6.0649,-6.0674,-6.066,-6.071,-6.0734,-6.0729,-6.071,-6.0729,-6.0729,-6.0729,-6.0753,-6.0757,-6.0757,-6.0777,-6.08,-6.08,-6.08,-6.08,-6.08,-6.08,-6.08,-6.08,-6.08,-6.08,-6.08,-6.08,-6.08,-6.08,-6.08,-6.08,-6.08,-6.08,-6.08,-6.08,-6.08,-6.08,-6.08,-6.08,-6.08,-6.08,-6.0823,-6.0846,-6.0891,-6.0914,-6.0974,-6.1018,-6.1079,-6.1079,-6.104,-6.1021,-6.108,-6.1118,-6.135,-6.1834,-6.1911,-6.224,-6.2607,-6.2936,-6.3168,-6.3284,-6.3516,-6.3748,-6.4251,-6.458,-6.4792,-6.51,-6.5521,-6.571,-6.5821,-6.6046,-6.6256,-6.6334,-6.6392,-6.6217,-6.6096,-6.6386,-6.6601,-6.6652,-6.6731,-6.6778,-6.6829,-6.6862,-6.6894,-6.6887,-6.6875,-6.6878,-6.6834,-6.6795,-6.6795,-6.6795,-6.6795,-6.6795,-6.6795,-6.6795,-6.6756,-6.658,-6.6224,-6.5836,-6.5484,-6.5513,-6.5754,-6.5537,-6.5083,-6.4743,-5.9324,-5.9716,-6.031,-6.0533,-6.0578,-6.0604,-6.0655,-6.0655,-6.0655,-6.0655,-6.0655,-6.071,-6.071,-6.0734,-6.0757,-6.08,-6.08,-6.0781,-6.08,-6.08,-6.08,-6.08,-6.08,-6.08,-6.08,-6.08,-6.08,-6.08,-6.08,-6.08,-6.08,-6.08,-6.08,-6.08,-6.08,-6.08,-6.08,-6.08,-6.08,-6.08,-6.08,-6.08,-6.08,-6.08,-6.08,-6.08,-6.08,-6.08,-6.0823,-6.0823,-6.0866,-6.0888,-6.0911,-6.0955,-6.0938,-6.1076,-6.1252,-6.1408,-6.1408,-6.1408,-6.1447,-6.1582,-6.195,-6.2278,-6.2607,-6.2801,-6.3052,-6.3439,-6.3806,-6.4077,-6.4116,-6.4445,-6.4793,-6.5335,-6.5374,-6.5547,-6.5814,-6.6157,-6.6248,-6.6357,-6.6508,-6.6508,-6.6508,-6.6508,-6.6431,-6.6344,-6.6464,-6.6601,-6.6618,-6.6712,-6.6791,-6.6823,-6.6871,-6.6893,-6.6889,-6.6895,-6.6873,-6.6834,-6.6795,-6.6795,-6.6795,-6.6795,-6.6795,-6.6795,-6.6795,-6.6795,-6.6673,-6.6466,-6.6551,-6.6666,-6.6537,-6.6244,-6.604,-6.5584,-6.5543,-5.9702,-6.0456,-6.0597,-6.0685,-6.0685,-6.0685,-6.071,-6.0757,-6.0777,-6.0777,-6.0777,-6.0781,-6.0781,-6.08,-6.08,-6.08,-6.08,-6.08,-6.08,-6.08,-6.08,-6.08,-6.08,-6.08,-6.08,-6.08,-6.08,-6.08,-6.08,-6.08,-6.08,-6.08,-6.08,-6.08,-6.08,-6.08,-6.08,-6.08,-6.08,-6.08,-6.08,-6.08,-6.08,-6.08,-6.08,-6.08,-6.0827,-6.0823,-6.0846,-6.0869,-6.0891,-6.0991,-6.1169,-6.1193,-6.1214,-6.133,-6.2008,-6.2317,-6.2375,-6.2394,-6.2472,-6.2453,-6.2781,-6.3323,-6.3574,-6.369,-6.3826,-6.429,-6.458,-6.4889,-6.5199,-6.5528,-6.5858,-6.6013,-6.6012,-6.6088,-6.6314,-6.6426,-6.6477,-6.6508,-6.6508,-6.6508,-6.6508,-6.6508,-6.6489,-6.65,-6.6575,-6.6601,-6.6618,-6.6692,-6.6783,-6.6837,-6.6863,-6.6892,-6.6889,-6.6891,-6.6873,-6.6834,-6.6795,-6.6795,-6.6795,-6.6795,-6.6795,-6.6795,-6.6795,-6.6795,-6.6804,-6.6772,-6.6775,-6.6712,-6.6601,-6.638,-6.6225,-6.6039,-6.5807,-6.0265,-6.0635,-6.0685,-6.071,-6.0777,-6.0777,-6.0757,-6.08,-6.08,-6.08,-6.08,-6.08,-6.08,-6.08,-6.08,-6.08,-6.08,-6.08,-6.08,-6.08,-6.08,-6.08,-6.08,-6.08,-6.08,-6.08,-6.08,-6.08,-6.08,-6.08,-6.08,-6.08,-6.08,-6.08,-6.08,-6.08,-6.08,-6.08,-6.08,-6.08,-6.08,-6.08,-6.08,-6.08,-6.08,-6.0827,-6.0872,-6.0891,-6.0911,-6.1032,-6.1051,-6.1306,-6.1734,-6.1871,-6.2123,-6.253,-6.3207,-6.3226,-6.3458,-6.3632,-6.3787,-6.3652,-6.3613,-6.4116,-6.4425,-6.4541,-6.4812,-6.5141,-6.5412,-6.5702,-6.5915,-6.5953,-6.6128,-6.6206,-6.6243,-6.6279,-6.6409,-6.6461,-6.6493,-6.6508,-6.6508,-6.6508,-6.6508,-6.6524,-6.6524,-6.6553,-6.6607,-6.6594,-6.663,-6.6712,-6.6803,-6.6831,-6.6839,-6.6872,-6.689,-6.6891,-6.6878,-6.6815,-6.6795,-6.6795,-6.6795,-6.6795,-6.6795,-6.6795,-6.6795,-6.6815,-6.6792,-6.6756,-6.6683,-6.6606,-6.647,-6.6338,-6.6185,-6.5971,-6.575,-6.061,-6.069,-6.0734,-6.0757,-6.08,-6.08,-6.08,-6.08,-6.08,-6.08,-6.08,-6.08,-6.08,-6.08,-6.08,-6.08,-6.08,-6.08,-6.08,-6.08,-6.08,-6.08,-6.08,-6.08,-6.08,-6.08,-6.08,-6.08,-6.08,-6.08,-6.08,-6.08,-6.08,-6.08,-6.08,-6.08,-6.08,-6.08,-6.08,-6.08,-6.08,-6.08,-6.0819,-6.0843,-6.0843,-6.085,-6.0916,-6.0976,-6.1092,-6.1308,-6.156,-6.189,-6.249,-6.2897,-6.311,-6.3555,-6.4019,-6.4213,-6.4696,-6.4967,-6.5006,-6.4735,-6.4561,-6.4831,-6.5296,-6.5392,-6.5624,-6.5934,-6.6166,-6.6185,-6.6185,-6.6205,-6.6264,-6.6302,-6.6357,-6.6392,-6.6461,-6.6493,-6.6508,-6.6508,-6.6508,-6.6508,-6.6508,-6.6524,-6.6538,-6.6581,-6.662,-6.6638,-6.6652,-6.6722,-6.6803,-6.6831,-6.6859,-6.689,-6.6892,-6.6891,-6.6859,-6.6815,-6.6795,-6.6795,-6.6795,-6.6795,-6.6795,-6.6795,-6.6815,-6.6804,-6.6771,-6.6722,-6.6618,-6.6495,-6.6316,-6.6206,-6.6102,-6.5919,-6.569,-6.0641,-6.0723,-6.0781,-6.08,-6.08,-6.08,-6.08,-6.08,-6.08,-6.08,-6.08,-6.08,-6.08,-6.08,-6.08,-6.08,-6.08,-6.08,-6.08,-6.08,-6.08,-6.08,-6.08,-6.08,-6.08,-6.08,-6.08,-6.08,-6.08,-6.08,-6.08,-6.08,-6.08,-6.08,-6.08,-6.08,-6.08,-6.08,-6.08,-6.08,-6.0823,-6.0823,-6.0862,-6.0881,-6.0927,-6.0935,-6.1017,-6.1153,-6.1579,-6.1948,-6.2316,-6.2916,-6.34,-6.371,-6.3748,-6.4038,-6.4696,-6.5276,-6.574,-6.5953,-6.5992,-6.5721,-6.5895,-6.6127,-6.6069,-6.5973,-6.605,-6.6108,-6.6205,-6.6205,-6.6224,-6.6264,-6.6302,-6.6339,-6.6392,-6.6426,-6.6474,-6.6508,-6.6508,-6.6508,-6.6508,-6.6508,-6.6543,-6.6558,-6.6581,-6.662,-6.6657,-6.6691,-6.6702,-6.675,-6.681,-6.6831,-6.6859,-6.6887,-6.6894,-6.6891,-6.6859,-6.6795,-6.6795,-6.6795,-6.6795,-6.6795,-6.6795,-6.6795,-6.6815,-6.6792,-6.6748,-6.6652,-6.6542,-6.6387,-6.6225,-6.6084,-6.5971,-6.5826,-6.5644,-6.071,-6.0762,-6.08,-6.08,-6.08,-6.08,-6.08,-6.08,-6.08,-6.08,-6.08,-6.08,-6.08,-6.08,-6.08,-6.08,-6.08,-6.08,-6.08,-6.08,-6.08,-6.08,-6.08,-6.08,-6.08,-6.08,-6.08,-6.08,-6.08,-6.08,-6.08,-6.08,-6.08,-6.08,-6.08,-6.08,-6.08,-6.08,-6.08,-6.0823,-6.0846,-6.0869,-6.0904,-6.0943,-6.1068,-6.1094,-6.1195,-6.1696,-6.2161,-6.2414,-6.3013,-6.371,-6.4522,-6.4657,-6.4754,-6.545,-6.5779,-6.5973,-6.6166,-6.6205,-6.6205,-6.6205,-6.6205,-6.6205,-6.6185,-6.6205,-6.6205,-6.6205,-6.6205,-6.6225,-6.6245,-6.6283,-6.6339,-6.6375,-6.6426,-6.6442,-6.6474,-6.6508,-6.6508,-6.6489,-6.6489,-6.6543,-6.6558,-6.6586,-6.6607,-6.6645,-6.671,-6.6741,-6.6761,-6.6798,-6.6831,-6.6848,-6.6862,-6.6894,-6.6872,-6.6848,-6.6824,-6.6795,-6.6795,-6.6795,-6.6795,-6.6795,-6.6795,-6.679,-6.6792,-6.6764,-6.6732,-6.6594,-6.645,-6.6336,-6.6167,-6.6019,-6.5856,-6.5724,-6.5608,-6.0734,-6.08,-6.08,-6.08,-6.08,-6.08,-6.08,-6.08,-6.08,-6.08,-6.08,-6.08,-6.08,-6.08,-6.08,-6.08,-6.08,-6.08,-6.08,-6.08,-6.08,-6.08,-6.08,-6.08,-6.08,-6.08,-6.08,-6.08,-6.08,-6.08,-6.08,-6.08,-6.08,-6.08,-6.08,-6.08,-6.0823,-6.0823,-6.0846,-6.0888,-6.0911,-6.0933,-6.0949,-6.1087,-6.1248,-6.1465,-6.1679,-6.2414,-6.2955,-6.3342,-6.4077,-6.458,-6.5296,-6.5508,-6.5547,-6.6069,-6.6108,-6.6127,-6.6205,-6.6205,-6.6205,-6.6205,-6.6205,-6.6205,-6.6205,-6.6205,-6.6205,-6.6205,-6.6225,-6.6245,-6.6283,-6.6321,-6.6375,-6.6409,-6.6442,-6.6458,-6.6474,-6.6508,-6.6489,-6.6489,-6.6524,-6.6558,-6.6586,-6.6627,-6.6633,-6.6669,-6.6721,-6.678,-6.678,-6.68,-6.6837,-6.6878,-6.6875,-6.6904,-6.6856,-6.6828,-6.6824,-6.6795,-6.6795,-6.6795,-6.6795,-6.6815,-6.6809,-6.6785,-6.6756,-6.6712,-6.6649,-6.6509,-6.6351,-6.6225,-6.6084,-6.5905,-6.575,-6.5644,-6.5552,-6.0753,-6.08,-6.08,-6.08,-6.08,-6.08,-6.08,-6.08,-6.08,-6.08,-6.08,-6.08,-6.08,-6.08,-6.08,-6.08,-6.08,-6.08,-6.08,-6.08,-6.08,-6.08,-6.08,-6.08,-6.08,-6.08,-6.08,-6.08,-6.08,-6.08,-6.08,-6.08,-6.08,-6.08,-6.08,-6.0823,-6.0846,-6.0888,-6.0891,-6.0935,-6.0935,-6.0976,-6.1055,-6.1288,-6.1793,-6.2316,-6.2685,-6.3342,-6.4155,-6.4696,-6.518,-6.547,-6.5818,-6.6089,-6.6147,-6.6166,-6.6185,-6.6205,-6.6205,-6.6205,-6.6205,-6.6205,-6.6205,-6.6205,-6.6225,-6.6205,-6.6185,-6.6225,-6.6284,-6.6302,-6.6321,-6.6338,-6.6389,-6.6442,-6.6477,-6.6493,-6.6489,-6.6524,-6.6524,-6.6538,-6.6553,-6.66,-6.664,-6.6645,-6.668,-6.6721,-6.6751,-6.68,-6.6824,-6.683,-6.6839,-6.6894,-6.6871,-6.6871,-6.6848,-6.682,-6.682,-6.6795,-6.6795,-6.6795,-6.6795,-6.6809,-6.6798,-6.6744,-6.6693,-6.661,-6.6536,-6.6403,-6.6282,-6.6126,-6.5994,-6.5801,-6.5663,-6.5552,-6.5513,-6.08,-6.08,-6.08,-6.08,-6.08,-6.08,-6.08,-6.08,-6.08,-6.08,-6.08,-6.08,-6.08,-6.08,-6.08,-6.08,-6.08,-6.08,-6.08,-6.08,-6.08,-6.08,-6.08,-6.08,-6.08,-6.08,-6.08,-6.08,-6.08,-6.08,-6.08,-6.08,-6.0781,-6.0781,-6.0804,-6.0846,-6.0888,-6.0914,-6.0959,-6.1038,-6.1135,-6.1156,-6.1234,-6.1795,-6.2433,-6.2897,-6.34,-6.4232,-6.4677,-6.5025,-6.5644,-6.5973,-6.6185,-6.6205,-6.6205,-6.6205,-6.6185,-6.6166,-6.6069,-6.6031,-6.5992,-6.605,-6.6069,-6.6206,-6.6245,-6.6205,-6.6205,-6.6245,-6.6302,-6.6339,-6.6355,-6.6389,-6.6422,-6.6458,-6.6493,-6.6508,-6.6508,-6.6524,-6.6572,-6.6567,-6.6594,-6.662,-6.6657,-6.671,-6.6741,-6.6761,-6.677,-6.6826,-6.6865,-6.6873,-6.6855,-6.6865,-6.6839,-6.682,-6.6795,-6.6795,-6.6795,-6.6815,-6.6815,-6.6815,-6.6815,-6.6792,-6.6764,-6.6693,-6.661,-6.6536,-6.645,-6.6338,-6.6205,-6.6061,-6.59,-6.5697,-6.5608,-6.5523,-6.5454,-6.08,-6.08,-6.08,-6.08,-6.08,-6.08,-6.08,-6.08,-6.08,-6.08,-6.08,-6.08,-6.08,-6.08,-6.08,-6.08,-6.08,-6.08,-6.08,-6.08,-6.08,-6.08,-6.08,-6.08,-6.08,-6.08,-6.08,-6.08,-6.08,-6.08,-6.08,-6.08,-6.0781,-6.0804,-6.085,-6.0891,-6.0914,-6.0959,-6.1021,-6.1234,-6.1466,-6.1679,-6.1795,-6.2356,-6.3129,-6.3671,-6.427,-6.5024,-6.5412,-6.5586,-6.5992,-6.6108,-6.6205,-6.6205,-6.6205,-6.6205,-6.6147,-6.6031,-6.5837,-6.5702,-6.5586,-6.5508,-6.5199,-6.5025,-6.4928,-6.4928,-6.5644,-6.5778,-6.6279,-6.6392,-6.6409,-6.6422,-6.6458,-6.6493,-6.6508,-6.6508,-6.6524,-6.6572,-6.6581,-6.6594,-6.6606,-6.6649,-6.6702,-6.6741,-6.6759,-6.6798,-6.6828,-6.6839,-6.6874,-6.6881,-6.6867,-6.6854,-6.6815,-6.6795,-6.6795,-6.6795,-6.6795,-6.6815,-6.6809,-6.6798,-6.6811,-6.6775,-6.6732,-6.6641,-6.6569,-6.647,-6.6375,-6.6264,-6.6102,-6.5947,-6.5801,-6.5616,-6.559,-6.5618,-6.5635,-6.08,-6.08,-6.08,-6.08,-6.08,-6.08,-6.08,-6.08,-6.08,-6.08,-6.08,-6.08,-6.08,-6.08,-6.08,-6.08,-6.08,-6.08,-6.08,-6.08,-6.08,-6.08,-6.08,-6.08,-6.08,-6.08,-6.08,-6.08,-6.08,-6.08,-6.08,-6.08,-6.0804,-6.0831,-6.0897,-6.0916,-6.0957,-6.1058,-6.1254,-6.1679,-6.2066,-6.2472,-6.2588,-6.3187,-6.4077,-6.4967,-6.5333,-6.5662,-6.6127,-6.6166,-6.6147,-6.6185,-6.6205,-6.6205,-6.6205,-6.6166,-6.5934,-6.5721,-6.547,-6.5257,-6.489,-6.4464,-6.4038,-6.3998,-6.4094,-6.4517,-6.5233,-6.5655,-6.6173,-6.6251,-6.6267,-6.6458,-6.6474,-6.6524,-6.6524,-6.6538,-6.6586,-6.66,-6.6613,-6.6622,-6.6652,-6.6692,-6.6731,-6.6764,-6.6791,-6.6822,-6.6844,-6.6875,-6.6891,-6.6852,-6.6839,-6.6834,-6.6815,-6.6795,-6.6795,-6.6795,-6.6795,-6.6809,-6.6798,-6.6805,-6.6775,-6.6722,-6.6652,-6.6581,-6.6485,-6.6448,-6.6283,-6.6144,-6.6013,-6.5986,-6.6089,-6.6106,-6.6097,-6.6134,-6.6055,-6.08,-6.08,-6.08,-6.08,-6.08,-6.08,-6.08,-6.08,-6.08,-6.08,-6.08,-6.08,-6.08,-6.08,-6.08,-6.08,-6.08,-6.08,-6.08,-6.08,-6.08,-6.08,-6.08,-6.08,-6.08,-6.08,-6.08,-6.08,-6.08,-6.08,-6.08,-6.08,-6.08,-6.0827,-6.0899,-6.0938,-6.1017,-6.1253,-6.1756,-6.224,-6.2395,-6.282,-6.342,-6.4039,-6.4812,-6.5412,-6.5818,-6.6089,-6.6185,-6.6185,-6.6205,-6.6205,-6.6205,-6.6205,-6.6205,-6.6089,-6.5837,-6.5663,-6.545,-6.518,-6.4812,-6.5103,-6.4985,-6.5137,-6.5231,-6.5322,-6.5763,-6.579,-6.6038,-6.5736,-6.5794,-6.6314,-6.6504,-6.6548,-6.6581,-6.6594,-6.662,-6.6645,-6.6671,-6.6692,-6.6732,-6.6759,-6.6764,-6.6811,-6.6829,-6.6848,-6.6855,-6.6867,-6.6844,-6.682,-6.6795,-6.6795,-6.6795,-6.6795,-6.6795,-6.6795,-6.6815,-6.6804,-6.6785,-6.6783,-6.6731,-6.6673,-6.6587,-6.6495,-6.6484,-6.6438,-6.6281,-6.6422,-6.6309,-6.6397,-6.6592,-6.6691,-6.671,-6.6736,-6.6782]}]]